<?xml version="1.0" encoding="UTF-8" standalone="no" ?>
<gpx xmlns="http://www.topografix.com/GPX/1/1" xmlns:xsi="http://www.w3.org/2001/XMLSchema-instance" xsi:schemaLocation="http://www.topografix.com/GPX/1/1 http://www.topografix.com/GPX/1/1/gpx.xsd" version="1.1" creator="VisuGPX - https://www.visugpx.com">
  <metadata>
    <name>randonnée VTT forêt de haye 14/07/2013</name>
    <desc><![CDATA[randonnée VTT du 14/07/2013]]></desc>
  </metadata>
  <trk>
    <name><![CDATA[14 juillet 2013]]></name>
    <trkseg>
      <trkpt lat="48.68552" lon="6.15963">
        <ele>229</ele>
        <time>2013-07-14T10:11:50Z</time>
      </trkpt>
      <trkpt lat="48.68576" lon="6.15962">
        <ele>241</ele>
        <time>2013-07-14T10:11:58Z</time>
      </trkpt>
      <trkpt lat="48.68583" lon="6.15958">
        <ele>245</ele>
        <time>2013-07-14T10:12:00Z</time>
      </trkpt>
      <trkpt lat="48.68594" lon="6.15952">
        <ele>249</ele>
        <time>2013-07-14T10:12:06Z</time>
      </trkpt>
      <trkpt lat="48.68599" lon="6.1595">
        <ele>246</ele>
        <time>2013-07-14T10:12:08Z</time>
      </trkpt>
      <trkpt lat="48.68596" lon="6.15949">
        <ele>233</ele>
        <time>2013-07-14T10:12:14Z</time>
      </trkpt>
      <trkpt lat="48.68589" lon="6.15944">
        <ele>230</ele>
        <time>2013-07-14T10:12:16Z</time>
      </trkpt>
      <trkpt lat="48.68581" lon="6.15939">
        <ele>227</ele>
        <time>2013-07-14T10:12:18Z</time>
      </trkpt>
      <trkpt lat="48.68565" lon="6.15927">
        <ele>223</ele>
        <time>2013-07-14T10:12:22Z</time>
      </trkpt>
      <trkpt lat="48.68558" lon="6.15921">
        <ele>223</ele>
        <time>2013-07-14T10:12:24Z</time>
      </trkpt>
      <trkpt lat="48.68544" lon="6.1591">
        <ele>221</ele>
        <time>2013-07-14T10:12:28Z</time>
      </trkpt>
      <trkpt lat="48.68535" lon="6.15901">
        <ele>217</ele>
        <time>2013-07-14T10:12:30Z</time>
      </trkpt>
      <trkpt lat="48.68527" lon="6.15889">
        <ele>212</ele>
        <time>2013-07-14T10:12:32Z</time>
      </trkpt>
      <trkpt lat="48.68535" lon="6.15846">
        <ele>211</ele>
        <time>2013-07-14T10:12:36Z</time>
      </trkpt>
      <trkpt lat="48.68536" lon="6.15829">
        <ele>209</ele>
        <time>2013-07-14T10:12:38Z</time>
      </trkpt>
      <trkpt lat="48.68538" lon="6.15813">
        <ele>209</ele>
        <time>2013-07-14T10:12:40Z</time>
      </trkpt>
      <trkpt lat="48.68538" lon="6.15799">
        <ele>207</ele>
        <time>2013-07-14T10:12:42Z</time>
      </trkpt>
      <trkpt lat="48.68537" lon="6.15786">
        <ele>206</ele>
        <time>2013-07-14T10:12:44Z</time>
      </trkpt>
      <trkpt lat="48.68537" lon="6.15771">
        <ele>205</ele>
        <time>2013-07-14T10:12:46Z</time>
      </trkpt>
      <trkpt lat="48.68537" lon="6.15756">
        <ele>206</ele>
        <time>2013-07-14T10:12:48Z</time>
      </trkpt>
      <trkpt lat="48.68535" lon="6.15745">
        <ele>206</ele>
        <time>2013-07-14T10:12:50Z</time>
      </trkpt>
      <trkpt lat="48.68533" lon="6.15734">
        <ele>202</ele>
        <time>2013-07-14T10:12:52Z</time>
      </trkpt>
      <trkpt lat="48.6853" lon="6.15724">
        <ele>199</ele>
        <time>2013-07-14T10:12:54Z</time>
      </trkpt>
      <trkpt lat="48.68529" lon="6.15712">
        <ele>203</ele>
        <time>2013-07-14T10:12:56Z</time>
      </trkpt>
      <trkpt lat="48.68527" lon="6.15698">
        <ele>201</ele>
        <time>2013-07-14T10:12:58Z</time>
      </trkpt>
      <trkpt lat="48.68526" lon="6.15684">
        <ele>201</ele>
        <time>2013-07-14T10:13:00Z</time>
      </trkpt>
      <trkpt lat="48.68526" lon="6.15669">
        <ele>200</ele>
        <time>2013-07-14T10:13:02Z</time>
      </trkpt>
      <trkpt lat="48.68533" lon="6.15644">
        <ele>212</ele>
        <time>2013-07-14T10:13:06Z</time>
      </trkpt>
      <trkpt lat="48.68535" lon="6.15628">
        <ele>214</ele>
        <time>2013-07-14T10:13:08Z</time>
      </trkpt>
      <trkpt lat="48.68536" lon="6.15612">
        <ele>215</ele>
        <time>2013-07-14T10:13:10Z</time>
      </trkpt>
      <trkpt lat="48.68533" lon="6.15601">
        <ele>218</ele>
        <time>2013-07-14T10:13:12Z</time>
      </trkpt>
      <trkpt lat="48.68528" lon="6.15591">
        <ele>220</ele>
        <time>2013-07-14T10:13:14Z</time>
      </trkpt>
      <trkpt lat="48.68525" lon="6.15579">
        <ele>219</ele>
        <time>2013-07-14T10:13:16Z</time>
      </trkpt>
      <trkpt lat="48.68523" lon="6.15566">
        <ele>221</ele>
        <time>2013-07-14T10:13:18Z</time>
      </trkpt>
      <trkpt lat="48.68519" lon="6.15554">
        <ele>222</ele>
        <time>2013-07-14T10:13:20Z</time>
      </trkpt>
      <trkpt lat="48.68517" lon="6.15538">
        <ele>226</ele>
        <time>2013-07-14T10:13:22Z</time>
      </trkpt>
      <trkpt lat="48.68514" lon="6.15521">
        <ele>230</ele>
        <time>2013-07-14T10:13:24Z</time>
      </trkpt>
      <trkpt lat="48.68512" lon="6.15507">
        <ele>230</ele>
        <time>2013-07-14T10:13:26Z</time>
      </trkpt>
      <trkpt lat="48.68509" lon="6.15493">
        <ele>233</ele>
        <time>2013-07-14T10:13:28Z</time>
      </trkpt>
      <trkpt lat="48.68504" lon="6.15477">
        <ele>231</ele>
        <time>2013-07-14T10:13:30Z</time>
      </trkpt>
      <trkpt lat="48.68498" lon="6.15464">
        <ele>230</ele>
        <time>2013-07-14T10:13:32Z</time>
      </trkpt>
      <trkpt lat="48.68494" lon="6.15447">
        <ele>229</ele>
        <time>2013-07-14T10:13:34Z</time>
      </trkpt>
      <trkpt lat="48.6849" lon="6.1543">
        <ele>225</ele>
        <time>2013-07-14T10:13:36Z</time>
      </trkpt>
      <trkpt lat="48.68488" lon="6.15413">
        <ele>224</ele>
        <time>2013-07-14T10:13:38Z</time>
      </trkpt>
      <trkpt lat="48.68483" lon="6.154">
        <ele>228</ele>
        <time>2013-07-14T10:13:40Z</time>
      </trkpt>
      <trkpt lat="48.68478" lon="6.15386">
        <ele>234</ele>
        <time>2013-07-14T10:13:42Z</time>
      </trkpt>
      <trkpt lat="48.68475" lon="6.15372">
        <ele>236</ele>
        <time>2013-07-14T10:13:44Z</time>
      </trkpt>
      <trkpt lat="48.68472" lon="6.15359">
        <ele>240</ele>
        <time>2013-07-14T10:13:46Z</time>
      </trkpt>
      <trkpt lat="48.68469" lon="6.15345">
        <ele>239</ele>
        <time>2013-07-14T10:13:48Z</time>
      </trkpt>
      <trkpt lat="48.68464" lon="6.15331">
        <ele>235</ele>
        <time>2013-07-14T10:13:50Z</time>
      </trkpt>
      <trkpt lat="48.68462" lon="6.15317">
        <ele>235</ele>
        <time>2013-07-14T10:13:52Z</time>
      </trkpt>
      <trkpt lat="48.68459" lon="6.15304">
        <ele>236</ele>
        <time>2013-07-14T10:13:54Z</time>
      </trkpt>
      <trkpt lat="48.68455" lon="6.15291">
        <ele>231</ele>
        <time>2013-07-14T10:13:56Z</time>
      </trkpt>
      <trkpt lat="48.68451" lon="6.15276">
        <ele>232</ele>
        <time>2013-07-14T10:13:58Z</time>
      </trkpt>
      <trkpt lat="48.68446" lon="6.15264">
        <ele>232</ele>
        <time>2013-07-14T10:14:00Z</time>
      </trkpt>
      <trkpt lat="48.68441" lon="6.15251">
        <ele>228</ele>
        <time>2013-07-14T10:14:02Z</time>
      </trkpt>
      <trkpt lat="48.68436" lon="6.15241">
        <ele>227</ele>
        <time>2013-07-14T10:14:04Z</time>
      </trkpt>
      <trkpt lat="48.68432" lon="6.15232">
        <ele>229</ele>
        <time>2013-07-14T10:14:06Z</time>
      </trkpt>
      <trkpt lat="48.6843" lon="6.15222">
        <ele>235</ele>
        <time>2013-07-14T10:14:08Z</time>
      </trkpt>
      <trkpt lat="48.68428" lon="6.15212">
        <ele>238</ele>
        <time>2013-07-14T10:14:10Z</time>
      </trkpt>
      <trkpt lat="48.68427" lon="6.152">
        <ele>239</ele>
        <time>2013-07-14T10:14:12Z</time>
      </trkpt>
      <trkpt lat="48.68425" lon="6.15188">
        <ele>239</ele>
        <time>2013-07-14T10:14:14Z</time>
      </trkpt>
      <trkpt lat="48.68424" lon="6.15181">
        <ele>238</ele>
        <time>2013-07-14T10:14:15Z</time>
      </trkpt>
      <trkpt lat="48.68424" lon="6.15175">
        <ele>238</ele>
        <time>2013-07-14T10:14:16Z</time>
      </trkpt>
      <trkpt lat="48.68423" lon="6.15161">
        <ele>239</ele>
        <time>2013-07-14T10:14:18Z</time>
      </trkpt>
      <trkpt lat="48.68422" lon="6.15146">
        <ele>237</ele>
        <time>2013-07-14T10:14:20Z</time>
      </trkpt>
      <trkpt lat="48.68419" lon="6.15131">
        <ele>234</ele>
        <time>2013-07-14T10:14:22Z</time>
      </trkpt>
      <trkpt lat="48.68416" lon="6.15123">
        <ele>234</ele>
        <time>2013-07-14T10:14:24Z</time>
      </trkpt>
      <trkpt lat="48.68416" lon="6.15118">
        <ele>236</ele>
        <time>2013-07-14T10:14:25Z</time>
      </trkpt>
      <trkpt lat="48.68415" lon="6.15113">
        <ele>235</ele>
        <time>2013-07-14T10:14:26Z</time>
      </trkpt>
      <trkpt lat="48.68413" lon="6.15104">
        <ele>236</ele>
        <time>2013-07-14T10:14:28Z</time>
      </trkpt>
      <trkpt lat="48.68412" lon="6.15095">
        <ele>235</ele>
        <time>2013-07-14T10:14:30Z</time>
      </trkpt>
      <trkpt lat="48.6841" lon="6.15086">
        <ele>235</ele>
        <time>2013-07-14T10:14:32Z</time>
      </trkpt>
      <trkpt lat="48.68407" lon="6.15079">
        <ele>236</ele>
        <time>2013-07-14T10:14:34Z</time>
      </trkpt>
      <trkpt lat="48.68406" lon="6.1507">
        <ele>235</ele>
        <time>2013-07-14T10:14:36Z</time>
      </trkpt>
      <trkpt lat="48.68403" lon="6.15062">
        <ele>236</ele>
        <time>2013-07-14T10:14:38Z</time>
      </trkpt>
      <trkpt lat="48.684" lon="6.15053">
        <ele>235</ele>
        <time>2013-07-14T10:14:40Z</time>
      </trkpt>
      <trkpt lat="48.68397" lon="6.15046">
        <ele>237</ele>
        <time>2013-07-14T10:14:42Z</time>
      </trkpt>
      <trkpt lat="48.68395" lon="6.1504">
        <ele>240</ele>
        <time>2013-07-14T10:14:44Z</time>
      </trkpt>
      <trkpt lat="48.68393" lon="6.15036">
        <ele>240</ele>
        <time>2013-07-14T10:14:45Z</time>
      </trkpt>
      <trkpt lat="48.68391" lon="6.15033">
        <ele>239</ele>
        <time>2013-07-14T10:14:46Z</time>
      </trkpt>
      <trkpt lat="48.6839" lon="6.15023">
        <ele>239</ele>
        <time>2013-07-14T10:14:48Z</time>
      </trkpt>
      <trkpt lat="48.68385" lon="6.15019">
        <ele>239</ele>
        <time>2013-07-14T10:14:50Z</time>
      </trkpt>
      <trkpt lat="48.6838" lon="6.15013">
        <ele>237</ele>
        <time>2013-07-14T10:14:52Z</time>
      </trkpt>
      <trkpt lat="48.68377" lon="6.15004">
        <ele>235</ele>
        <time>2013-07-14T10:14:54Z</time>
      </trkpt>
      <trkpt lat="48.68373" lon="6.14996">
        <ele>233</ele>
        <time>2013-07-14T10:14:56Z</time>
      </trkpt>
      <trkpt lat="48.6837" lon="6.14986">
        <ele>233</ele>
        <time>2013-07-14T10:14:58Z</time>
      </trkpt>
      <trkpt lat="48.68366" lon="6.14978">
        <ele>231</ele>
        <time>2013-07-14T10:15:00Z</time>
      </trkpt>
      <trkpt lat="48.68362" lon="6.14971">
        <ele>230</ele>
        <time>2013-07-14T10:15:02Z</time>
      </trkpt>
      <trkpt lat="48.68359" lon="6.14963">
        <ele>232</ele>
        <time>2013-07-14T10:15:04Z</time>
      </trkpt>
      <trkpt lat="48.68357" lon="6.14956">
        <ele>231</ele>
        <time>2013-07-14T10:15:06Z</time>
      </trkpt>
      <trkpt lat="48.68355" lon="6.14948">
        <ele>230</ele>
        <time>2013-07-14T10:15:08Z</time>
      </trkpt>
      <trkpt lat="48.6835" lon="6.14946">
        <ele>233</ele>
        <time>2013-07-14T10:15:10Z</time>
      </trkpt>
      <trkpt lat="48.68346" lon="6.14941">
        <ele>234</ele>
        <time>2013-07-14T10:15:12Z</time>
      </trkpt>
      <trkpt lat="48.68341" lon="6.14935">
        <ele>231</ele>
        <time>2013-07-14T10:15:14Z</time>
      </trkpt>
      <trkpt lat="48.68338" lon="6.14929">
        <ele>233</ele>
        <time>2013-07-14T10:15:16Z</time>
      </trkpt>
      <trkpt lat="48.68334" lon="6.14923">
        <ele>233</ele>
        <time>2013-07-14T10:15:18Z</time>
      </trkpt>
      <trkpt lat="48.68333" lon="6.14915">
        <ele>233</ele>
        <time>2013-07-14T10:15:20Z</time>
      </trkpt>
      <trkpt lat="48.6833" lon="6.14906">
        <ele>230</ele>
        <time>2013-07-14T10:15:22Z</time>
      </trkpt>
      <trkpt lat="48.68328" lon="6.14898">
        <ele>229</ele>
        <time>2013-07-14T10:15:24Z</time>
      </trkpt>
      <trkpt lat="48.68326" lon="6.14891">
        <ele>230</ele>
        <time>2013-07-14T10:15:26Z</time>
      </trkpt>
      <trkpt lat="48.68324" lon="6.14882">
        <ele>231</ele>
        <time>2013-07-14T10:15:28Z</time>
      </trkpt>
      <trkpt lat="48.68319" lon="6.14875">
        <ele>230</ele>
        <time>2013-07-14T10:15:30Z</time>
      </trkpt>
      <trkpt lat="48.68314" lon="6.14868">
        <ele>229</ele>
        <time>2013-07-14T10:15:32Z</time>
      </trkpt>
      <trkpt lat="48.68312" lon="6.14863">
        <ele>229</ele>
        <time>2013-07-14T10:15:34Z</time>
      </trkpt>
      <trkpt lat="48.6831" lon="6.14857">
        <ele>232</ele>
        <time>2013-07-14T10:15:36Z</time>
      </trkpt>
      <trkpt lat="48.68308" lon="6.14852">
        <ele>233</ele>
        <time>2013-07-14T10:15:38Z</time>
      </trkpt>
      <trkpt lat="48.68306" lon="6.14846">
        <ele>232</ele>
        <time>2013-07-14T10:15:40Z</time>
      </trkpt>
      <trkpt lat="48.68302" lon="6.14841">
        <ele>233</ele>
        <time>2013-07-14T10:15:42Z</time>
      </trkpt>
      <trkpt lat="48.68298" lon="6.14838">
        <ele>232</ele>
        <time>2013-07-14T10:15:44Z</time>
      </trkpt>
      <trkpt lat="48.68293" lon="6.14836">
        <ele>236</ele>
        <time>2013-07-14T10:15:46Z</time>
      </trkpt>
      <trkpt lat="48.68287" lon="6.14834">
        <ele>240</ele>
        <time>2013-07-14T10:15:48Z</time>
      </trkpt>
      <trkpt lat="48.68282" lon="6.1483">
        <ele>239</ele>
        <time>2013-07-14T10:15:50Z</time>
      </trkpt>
      <trkpt lat="48.68279" lon="6.14824">
        <ele>239</ele>
        <time>2013-07-14T10:15:52Z</time>
      </trkpt>
      <trkpt lat="48.68273" lon="6.14822">
        <ele>238</ele>
        <time>2013-07-14T10:15:54Z</time>
      </trkpt>
      <trkpt lat="48.68267" lon="6.14821">
        <ele>242</ele>
        <time>2013-07-14T10:15:56Z</time>
      </trkpt>
      <trkpt lat="48.68262" lon="6.14819">
        <ele>244</ele>
        <time>2013-07-14T10:15:58Z</time>
      </trkpt>
      <trkpt lat="48.68259" lon="6.14813">
        <ele>247</ele>
        <time>2013-07-14T10:16:00Z</time>
      </trkpt>
      <trkpt lat="48.68257" lon="6.14806">
        <ele>245</ele>
        <time>2013-07-14T10:16:02Z</time>
      </trkpt>
      <trkpt lat="48.68254" lon="6.148">
        <ele>245</ele>
        <time>2013-07-14T10:16:04Z</time>
      </trkpt>
      <trkpt lat="48.68251" lon="6.14794">
        <ele>246</ele>
        <time>2013-07-14T10:16:06Z</time>
      </trkpt>
      <trkpt lat="48.68248" lon="6.14792">
        <ele>250</ele>
        <time>2013-07-14T10:16:08Z</time>
      </trkpt>
      <trkpt lat="48.68244" lon="6.14785">
        <ele>247</ele>
        <time>2013-07-14T10:16:10Z</time>
      </trkpt>
      <trkpt lat="48.68242" lon="6.14775">
        <ele>245</ele>
        <time>2013-07-14T10:16:12Z</time>
      </trkpt>
      <trkpt lat="48.6824" lon="6.14767">
        <ele>244</ele>
        <time>2013-07-14T10:16:14Z</time>
      </trkpt>
      <trkpt lat="48.68238" lon="6.14759">
        <ele>244</ele>
        <time>2013-07-14T10:16:16Z</time>
      </trkpt>
      <trkpt lat="48.68235" lon="6.14753">
        <ele>247</ele>
        <time>2013-07-14T10:16:18Z</time>
      </trkpt>
      <trkpt lat="48.68232" lon="6.14747">
        <ele>248</ele>
        <time>2013-07-14T10:16:20Z</time>
      </trkpt>
      <trkpt lat="48.68227" lon="6.14741">
        <ele>249</ele>
        <time>2013-07-14T10:16:22Z</time>
      </trkpt>
      <trkpt lat="48.68225" lon="6.14734">
        <ele>251</ele>
        <time>2013-07-14T10:16:24Z</time>
      </trkpt>
      <trkpt lat="48.68224" lon="6.14724">
        <ele>248</ele>
        <time>2013-07-14T10:16:26Z</time>
      </trkpt>
      <trkpt lat="48.6822" lon="6.14716">
        <ele>247</ele>
        <time>2013-07-14T10:16:28Z</time>
      </trkpt>
      <trkpt lat="48.68215" lon="6.14708">
        <ele>245</ele>
        <time>2013-07-14T10:16:30Z</time>
      </trkpt>
      <trkpt lat="48.68212" lon="6.14702">
        <ele>247</ele>
        <time>2013-07-14T10:16:32Z</time>
      </trkpt>
      <trkpt lat="48.68207" lon="6.14697">
        <ele>246</ele>
        <time>2013-07-14T10:16:34Z</time>
      </trkpt>
      <trkpt lat="48.68203" lon="6.14689">
        <ele>246</ele>
        <time>2013-07-14T10:16:36Z</time>
      </trkpt>
      <trkpt lat="48.68198" lon="6.14681">
        <ele>244</ele>
        <time>2013-07-14T10:16:38Z</time>
      </trkpt>
      <trkpt lat="48.68192" lon="6.14673">
        <ele>245</ele>
        <time>2013-07-14T10:16:40Z</time>
      </trkpt>
      <trkpt lat="48.68189" lon="6.14663">
        <ele>245</ele>
        <time>2013-07-14T10:16:42Z</time>
      </trkpt>
      <trkpt lat="48.68185" lon="6.14653">
        <ele>245</ele>
        <time>2013-07-14T10:16:44Z</time>
      </trkpt>
      <trkpt lat="48.68178" lon="6.14644">
        <ele>243</ele>
        <time>2013-07-14T10:16:46Z</time>
      </trkpt>
      <trkpt lat="48.68172" lon="6.14634">
        <ele>243</ele>
        <time>2013-07-14T10:16:48Z</time>
      </trkpt>
      <trkpt lat="48.68167" lon="6.14624">
        <ele>242</ele>
        <time>2013-07-14T10:16:50Z</time>
      </trkpt>
      <trkpt lat="48.68164" lon="6.14611">
        <ele>243</ele>
        <time>2013-07-14T10:16:52Z</time>
      </trkpt>
      <trkpt lat="48.68158" lon="6.14602">
        <ele>242</ele>
        <time>2013-07-14T10:16:54Z</time>
      </trkpt>
      <trkpt lat="48.68152" lon="6.14593">
        <ele>240</ele>
        <time>2013-07-14T10:16:56Z</time>
      </trkpt>
      <trkpt lat="48.68146" lon="6.14584">
        <ele>240</ele>
        <time>2013-07-14T10:16:58Z</time>
      </trkpt>
      <trkpt lat="48.68139" lon="6.14581">
        <ele>243</ele>
        <time>2013-07-14T10:17:00Z</time>
      </trkpt>
      <trkpt lat="48.68134" lon="6.14572">
        <ele>245</ele>
        <time>2013-07-14T10:17:02Z</time>
      </trkpt>
      <trkpt lat="48.68129" lon="6.14565">
        <ele>247</ele>
        <time>2013-07-14T10:17:04Z</time>
      </trkpt>
      <trkpt lat="48.68124" lon="6.14557">
        <ele>246</ele>
        <time>2013-07-14T10:17:06Z</time>
      </trkpt>
      <trkpt lat="48.68119" lon="6.14548">
        <ele>245</ele>
        <time>2013-07-14T10:17:08Z</time>
      </trkpt>
      <trkpt lat="48.68115" lon="6.14539">
        <ele>244</ele>
        <time>2013-07-14T10:17:10Z</time>
      </trkpt>
      <trkpt lat="48.68109" lon="6.14532">
        <ele>243</ele>
        <time>2013-07-14T10:17:12Z</time>
      </trkpt>
      <trkpt lat="48.68105" lon="6.14522">
        <ele>242</ele>
        <time>2013-07-14T10:17:14Z</time>
      </trkpt>
      <trkpt lat="48.68102" lon="6.14512">
        <ele>243</ele>
        <time>2013-07-14T10:17:16Z</time>
      </trkpt>
      <trkpt lat="48.68098" lon="6.14504">
        <ele>242</ele>
        <time>2013-07-14T10:17:18Z</time>
      </trkpt>
      <trkpt lat="48.68096" lon="6.14496">
        <ele>244</ele>
        <time>2013-07-14T10:17:20Z</time>
      </trkpt>
      <trkpt lat="48.68093" lon="6.14488">
        <ele>244</ele>
        <time>2013-07-14T10:17:22Z</time>
      </trkpt>
      <trkpt lat="48.68089" lon="6.14481">
        <ele>246</ele>
        <time>2013-07-14T10:17:24Z</time>
      </trkpt>
      <trkpt lat="48.68085" lon="6.14475">
        <ele>247</ele>
        <time>2013-07-14T10:17:26Z</time>
      </trkpt>
      <trkpt lat="48.68083" lon="6.14467">
        <ele>248</ele>
        <time>2013-07-14T10:17:28Z</time>
      </trkpt>
      <trkpt lat="48.6808" lon="6.14459">
        <ele>246</ele>
        <time>2013-07-14T10:17:30Z</time>
      </trkpt>
      <trkpt lat="48.68076" lon="6.14454">
        <ele>247</ele>
        <time>2013-07-14T10:17:32Z</time>
      </trkpt>
      <trkpt lat="48.68071" lon="6.14446">
        <ele>245</ele>
        <time>2013-07-14T10:17:34Z</time>
      </trkpt>
      <trkpt lat="48.68067" lon="6.14438">
        <ele>245</ele>
        <time>2013-07-14T10:17:36Z</time>
      </trkpt>
      <trkpt lat="48.68063" lon="6.14432">
        <ele>245</ele>
        <time>2013-07-14T10:17:38Z</time>
      </trkpt>
      <trkpt lat="48.68058" lon="6.14427">
        <ele>246</ele>
        <time>2013-07-14T10:17:40Z</time>
      </trkpt>
      <trkpt lat="48.68053" lon="6.14422">
        <ele>246</ele>
        <time>2013-07-14T10:17:42Z</time>
      </trkpt>
      <trkpt lat="48.68049" lon="6.14414">
        <ele>245</ele>
        <time>2013-07-14T10:17:44Z</time>
      </trkpt>
      <trkpt lat="48.68045" lon="6.14406">
        <ele>244</ele>
        <time>2013-07-14T10:17:46Z</time>
      </trkpt>
      <trkpt lat="48.68041" lon="6.14398">
        <ele>244</ele>
        <time>2013-07-14T10:17:48Z</time>
      </trkpt>
      <trkpt lat="48.68033" lon="6.14384">
        <ele>245</ele>
        <time>2013-07-14T10:17:52Z</time>
      </trkpt>
      <trkpt lat="48.6803" lon="6.14376">
        <ele>244</ele>
        <time>2013-07-14T10:17:54Z</time>
      </trkpt>
      <trkpt lat="48.68028" lon="6.14368">
        <ele>246</ele>
        <time>2013-07-14T10:17:56Z</time>
      </trkpt>
      <trkpt lat="48.68025" lon="6.14361">
        <ele>245</ele>
        <time>2013-07-14T10:17:58Z</time>
      </trkpt>
      <trkpt lat="48.68016" lon="6.14349">
        <ele>245</ele>
        <time>2013-07-14T10:18:02Z</time>
      </trkpt>
      <trkpt lat="48.68012" lon="6.14344">
        <ele>247</ele>
        <time>2013-07-14T10:18:04Z</time>
      </trkpt>
      <trkpt lat="48.68007" lon="6.14338">
        <ele>248</ele>
        <time>2013-07-14T10:18:06Z</time>
      </trkpt>
      <trkpt lat="48.68004" lon="6.14333">
        <ele>249</ele>
        <time>2013-07-14T10:18:08Z</time>
      </trkpt>
      <trkpt lat="48.67998" lon="6.14328">
        <ele>250</ele>
        <time>2013-07-14T10:18:10Z</time>
      </trkpt>
      <trkpt lat="48.67993" lon="6.14324">
        <ele>250</ele>
        <time>2013-07-14T10:18:12Z</time>
      </trkpt>
      <trkpt lat="48.67986" lon="6.14322">
        <ele>248</ele>
        <time>2013-07-14T10:18:14Z</time>
      </trkpt>
      <trkpt lat="48.67979" lon="6.14319">
        <ele>247</ele>
        <time>2013-07-14T10:18:16Z</time>
      </trkpt>
      <trkpt lat="48.67978" lon="6.14313">
        <ele>250</ele>
        <time>2013-07-14T10:18:18Z</time>
      </trkpt>
      <trkpt lat="48.67975" lon="6.14308">
        <ele>250</ele>
        <time>2013-07-14T10:18:20Z</time>
      </trkpt>
      <trkpt lat="48.67971" lon="6.14303">
        <ele>250</ele>
        <time>2013-07-14T10:18:22Z</time>
      </trkpt>
      <trkpt lat="48.67969" lon="6.14299">
        <ele>253</ele>
        <time>2013-07-14T10:18:24Z</time>
      </trkpt>
      <trkpt lat="48.67965" lon="6.14292">
        <ele>252</ele>
        <time>2013-07-14T10:18:26Z</time>
      </trkpt>
      <trkpt lat="48.67962" lon="6.14287">
        <ele>252</ele>
        <time>2013-07-14T10:18:28Z</time>
      </trkpt>
      <trkpt lat="48.67959" lon="6.14281">
        <ele>252</ele>
        <time>2013-07-14T10:18:30Z</time>
      </trkpt>
      <trkpt lat="48.67956" lon="6.14276">
        <ele>249</ele>
        <time>2013-07-14T10:18:32Z</time>
      </trkpt>
      <trkpt lat="48.67952" lon="6.14273">
        <ele>249</ele>
        <time>2013-07-14T10:18:34Z</time>
      </trkpt>
      <trkpt lat="48.67949" lon="6.14273">
        <ele>248</ele>
        <time>2013-07-14T10:18:36Z</time>
      </trkpt>
      <trkpt lat="48.67948" lon="6.14271">
        <ele>248</ele>
        <time>2013-07-14T10:18:38Z</time>
      </trkpt>
      <trkpt lat="48.67947" lon="6.14268">
        <ele>249</ele>
        <time>2013-07-14T10:18:40Z</time>
      </trkpt>
      <trkpt lat="48.67947" lon="6.14264">
        <ele>249</ele>
        <time>2013-07-14T10:18:42Z</time>
      </trkpt>
      <trkpt lat="48.67945" lon="6.14258">
        <ele>249</ele>
        <time>2013-07-14T10:18:44Z</time>
      </trkpt>
      <trkpt lat="48.67942" lon="6.14252">
        <ele>249</ele>
        <time>2013-07-14T10:18:46Z</time>
      </trkpt>
      <trkpt lat="48.67939" lon="6.14245">
        <ele>249</ele>
        <time>2013-07-14T10:18:48Z</time>
      </trkpt>
      <trkpt lat="48.67935" lon="6.1424">
        <ele>249</ele>
        <time>2013-07-14T10:18:50Z</time>
      </trkpt>
      <trkpt lat="48.67931" lon="6.14235">
        <ele>249</ele>
        <time>2013-07-14T10:18:52Z</time>
      </trkpt>
      <trkpt lat="48.67928" lon="6.14229">
        <ele>249</ele>
        <time>2013-07-14T10:18:54Z</time>
      </trkpt>
      <trkpt lat="48.67923" lon="6.14224">
        <ele>248</ele>
        <time>2013-07-14T10:18:56Z</time>
      </trkpt>
      <trkpt lat="48.6792" lon="6.14219">
        <ele>247</ele>
        <time>2013-07-14T10:18:58Z</time>
      </trkpt>
      <trkpt lat="48.67916" lon="6.14215">
        <ele>249</ele>
        <time>2013-07-14T10:19:00Z</time>
      </trkpt>
      <trkpt lat="48.67912" lon="6.1421">
        <ele>249</ele>
        <time>2013-07-14T10:19:02Z</time>
      </trkpt>
      <trkpt lat="48.6791" lon="6.14204">
        <ele>250</ele>
        <time>2013-07-14T10:19:04Z</time>
      </trkpt>
      <trkpt lat="48.67906" lon="6.14198">
        <ele>248</ele>
        <time>2013-07-14T10:19:06Z</time>
      </trkpt>
      <trkpt lat="48.67903" lon="6.14191">
        <ele>248</ele>
        <time>2013-07-14T10:19:08Z</time>
      </trkpt>
      <trkpt lat="48.67901" lon="6.14183">
        <ele>248</ele>
        <time>2013-07-14T10:19:10Z</time>
      </trkpt>
      <trkpt lat="48.67899" lon="6.14176">
        <ele>246</ele>
        <time>2013-07-14T10:19:12Z</time>
      </trkpt>
      <trkpt lat="48.679" lon="6.14169">
        <ele>247</ele>
        <time>2013-07-14T10:19:14Z</time>
      </trkpt>
      <trkpt lat="48.67903" lon="6.14162">
        <ele>247</ele>
        <time>2013-07-14T10:19:16Z</time>
      </trkpt>
      <trkpt lat="48.67907" lon="6.14156">
        <ele>247</ele>
        <time>2013-07-14T10:19:18Z</time>
      </trkpt>
      <trkpt lat="48.6791" lon="6.1415">
        <ele>248</ele>
        <time>2013-07-14T10:19:20Z</time>
      </trkpt>
      <trkpt lat="48.67913" lon="6.14144">
        <ele>250</ele>
        <time>2013-07-14T10:19:22Z</time>
      </trkpt>
      <trkpt lat="48.67916" lon="6.1414">
        <ele>249</ele>
        <time>2013-07-14T10:19:24Z</time>
      </trkpt>
      <trkpt lat="48.67921" lon="6.1414">
        <ele>249</ele>
        <time>2013-07-14T10:19:26Z</time>
      </trkpt>
      <trkpt lat="48.67926" lon="6.14143">
        <ele>249</ele>
        <time>2013-07-14T10:19:28Z</time>
      </trkpt>
      <trkpt lat="48.67932" lon="6.14147">
        <ele>249</ele>
        <time>2013-07-14T10:19:30Z</time>
      </trkpt>
      <trkpt lat="48.67938" lon="6.14151">
        <ele>250</ele>
        <time>2013-07-14T10:19:32Z</time>
      </trkpt>
      <trkpt lat="48.67946" lon="6.14157">
        <ele>250</ele>
        <time>2013-07-14T10:19:34Z</time>
      </trkpt>
      <trkpt lat="48.67953" lon="6.14161">
        <ele>249</ele>
        <time>2013-07-14T10:19:36Z</time>
      </trkpt>
      <trkpt lat="48.67962" lon="6.14163">
        <ele>248</ele>
        <time>2013-07-14T10:19:38Z</time>
      </trkpt>
      <trkpt lat="48.6797" lon="6.14161">
        <ele>248</ele>
        <time>2013-07-14T10:19:40Z</time>
      </trkpt>
      <trkpt lat="48.67978" lon="6.1416">
        <ele>246</ele>
        <time>2013-07-14T10:19:42Z</time>
      </trkpt>
      <trkpt lat="48.67984" lon="6.14157">
        <ele>246</ele>
        <time>2013-07-14T10:19:44Z</time>
      </trkpt>
      <trkpt lat="48.67991" lon="6.14155">
        <ele>245</ele>
        <time>2013-07-14T10:19:46Z</time>
      </trkpt>
      <trkpt lat="48.67997" lon="6.14152">
        <ele>246</ele>
        <time>2013-07-14T10:19:48Z</time>
      </trkpt>
      <trkpt lat="48.68003" lon="6.1415">
        <ele>246</ele>
        <time>2013-07-14T10:19:50Z</time>
      </trkpt>
      <trkpt lat="48.68009" lon="6.14148">
        <ele>245</ele>
        <time>2013-07-14T10:19:52Z</time>
      </trkpt>
      <trkpt lat="48.68015" lon="6.14145">
        <ele>245</ele>
        <time>2013-07-14T10:19:54Z</time>
      </trkpt>
      <trkpt lat="48.6802" lon="6.14142">
        <ele>245</ele>
        <time>2013-07-14T10:19:56Z</time>
      </trkpt>
      <trkpt lat="48.68024" lon="6.14139">
        <ele>247</ele>
        <time>2013-07-14T10:19:58Z</time>
      </trkpt>
      <trkpt lat="48.68029" lon="6.14138">
        <ele>248</ele>
        <time>2013-07-14T10:20:00Z</time>
      </trkpt>
      <trkpt lat="48.68034" lon="6.14136">
        <ele>249</ele>
        <time>2013-07-14T10:20:02Z</time>
      </trkpt>
      <trkpt lat="48.68037" lon="6.14135">
        <ele>251</ele>
        <time>2013-07-14T10:20:04Z</time>
      </trkpt>
      <trkpt lat="48.68041" lon="6.14133">
        <ele>254</ele>
        <time>2013-07-14T10:20:06Z</time>
      </trkpt>
      <trkpt lat="48.68043" lon="6.14133">
        <ele>260</ele>
        <time>2013-07-14T10:20:08Z</time>
      </trkpt>
      <trkpt lat="48.68047" lon="6.14131">
        <ele>259</ele>
        <time>2013-07-14T10:20:10Z</time>
      </trkpt>
      <trkpt lat="48.68051" lon="6.14129">
        <ele>259</ele>
        <time>2013-07-14T10:20:12Z</time>
      </trkpt>
      <trkpt lat="48.68055" lon="6.14125">
        <ele>258</ele>
        <time>2013-07-14T10:20:14Z</time>
      </trkpt>
      <trkpt lat="48.68059" lon="6.14122">
        <ele>259</ele>
        <time>2013-07-14T10:20:16Z</time>
      </trkpt>
      <trkpt lat="48.68063" lon="6.14119">
        <ele>261</ele>
        <time>2013-07-14T10:20:18Z</time>
      </trkpt>
      <trkpt lat="48.68067" lon="6.14118">
        <ele>263</ele>
        <time>2013-07-14T10:20:20Z</time>
      </trkpt>
      <trkpt lat="48.68071" lon="6.14117">
        <ele>265</ele>
        <time>2013-07-14T10:20:22Z</time>
      </trkpt>
      <trkpt lat="48.68074" lon="6.14114">
        <ele>265</ele>
        <time>2013-07-14T10:20:24Z</time>
      </trkpt>
      <trkpt lat="48.6808" lon="6.14112">
        <ele>263</ele>
        <time>2013-07-14T10:20:26Z</time>
      </trkpt>
      <trkpt lat="48.68084" lon="6.1411">
        <ele>264</ele>
        <time>2013-07-14T10:20:28Z</time>
      </trkpt>
      <trkpt lat="48.68088" lon="6.14107">
        <ele>265</ele>
        <time>2013-07-14T10:20:30Z</time>
      </trkpt>
      <trkpt lat="48.68092" lon="6.14106">
        <ele>266</ele>
        <time>2013-07-14T10:20:32Z</time>
      </trkpt>
      <trkpt lat="48.68097" lon="6.14104">
        <ele>266</ele>
        <time>2013-07-14T10:20:34Z</time>
      </trkpt>
      <trkpt lat="48.68102" lon="6.14102">
        <ele>264</ele>
        <time>2013-07-14T10:20:36Z</time>
      </trkpt>
      <trkpt lat="48.68107" lon="6.14098">
        <ele>260</ele>
        <time>2013-07-14T10:20:38Z</time>
      </trkpt>
      <trkpt lat="48.68113" lon="6.14095">
        <ele>259</ele>
        <time>2013-07-14T10:20:40Z</time>
      </trkpt>
      <trkpt lat="48.68117" lon="6.14091">
        <ele>259</ele>
        <time>2013-07-14T10:20:42Z</time>
      </trkpt>
      <trkpt lat="48.68122" lon="6.14087">
        <ele>256</ele>
        <time>2013-07-14T10:20:44Z</time>
      </trkpt>
      <trkpt lat="48.68127" lon="6.14084">
        <ele>256</ele>
        <time>2013-07-14T10:20:46Z</time>
      </trkpt>
      <trkpt lat="48.68132" lon="6.1408">
        <ele>256</ele>
        <time>2013-07-14T10:20:48Z</time>
      </trkpt>
      <trkpt lat="48.68136" lon="6.14076">
        <ele>258</ele>
        <time>2013-07-14T10:20:50Z</time>
      </trkpt>
      <trkpt lat="48.68139" lon="6.14074">
        <ele>260</ele>
        <time>2013-07-14T10:20:52Z</time>
      </trkpt>
      <trkpt lat="48.68143" lon="6.1407">
        <ele>261</ele>
        <time>2013-07-14T10:20:54Z</time>
      </trkpt>
      <trkpt lat="48.68148" lon="6.14066">
        <ele>259</ele>
        <time>2013-07-14T10:20:56Z</time>
      </trkpt>
      <trkpt lat="48.68152" lon="6.14063">
        <ele>260</ele>
        <time>2013-07-14T10:20:58Z</time>
      </trkpt>
      <trkpt lat="48.68156" lon="6.1406">
        <ele>259</ele>
        <time>2013-07-14T10:21:00Z</time>
      </trkpt>
      <trkpt lat="48.68161" lon="6.14056">
        <ele>259</ele>
        <time>2013-07-14T10:21:02Z</time>
      </trkpt>
      <trkpt lat="48.68165" lon="6.14052">
        <ele>260</ele>
        <time>2013-07-14T10:21:04Z</time>
      </trkpt>
      <trkpt lat="48.68168" lon="6.14049">
        <ele>262</ele>
        <time>2013-07-14T10:21:06Z</time>
      </trkpt>
      <trkpt lat="48.68173" lon="6.14046">
        <ele>260</ele>
        <time>2013-07-14T10:21:08Z</time>
      </trkpt>
      <trkpt lat="48.68177" lon="6.14044">
        <ele>261</ele>
        <time>2013-07-14T10:21:10Z</time>
      </trkpt>
      <trkpt lat="48.68181" lon="6.14041">
        <ele>261</ele>
        <time>2013-07-14T10:21:12Z</time>
      </trkpt>
      <trkpt lat="48.68186" lon="6.14038">
        <ele>261</ele>
        <time>2013-07-14T10:21:14Z</time>
      </trkpt>
      <trkpt lat="48.6819" lon="6.14033">
        <ele>261</ele>
        <time>2013-07-14T10:21:16Z</time>
      </trkpt>
      <trkpt lat="48.68194" lon="6.14029">
        <ele>260</ele>
        <time>2013-07-14T10:21:18Z</time>
      </trkpt>
      <trkpt lat="48.68199" lon="6.14025">
        <ele>260</ele>
        <time>2013-07-14T10:21:20Z</time>
      </trkpt>
      <trkpt lat="48.68204" lon="6.14022">
        <ele>259</ele>
        <time>2013-07-14T10:21:22Z</time>
      </trkpt>
      <trkpt lat="48.68208" lon="6.14018">
        <ele>259</ele>
        <time>2013-07-14T10:21:24Z</time>
      </trkpt>
      <trkpt lat="48.68212" lon="6.14015">
        <ele>260</ele>
        <time>2013-07-14T10:21:26Z</time>
      </trkpt>
      <trkpt lat="48.68216" lon="6.14011">
        <ele>262</ele>
        <time>2013-07-14T10:21:28Z</time>
      </trkpt>
      <trkpt lat="48.6822" lon="6.14007">
        <ele>262</ele>
        <time>2013-07-14T10:21:30Z</time>
      </trkpt>
      <trkpt lat="48.68223" lon="6.14003">
        <ele>264</ele>
        <time>2013-07-14T10:21:32Z</time>
      </trkpt>
      <trkpt lat="48.68227" lon="6.14">
        <ele>265</ele>
        <time>2013-07-14T10:21:34Z</time>
      </trkpt>
      <trkpt lat="48.68232" lon="6.13996">
        <ele>261</ele>
        <time>2013-07-14T10:21:36Z</time>
      </trkpt>
      <trkpt lat="48.68237" lon="6.13993">
        <ele>261</ele>
        <time>2013-07-14T10:21:38Z</time>
      </trkpt>
      <trkpt lat="48.68241" lon="6.1399">
        <ele>261</ele>
        <time>2013-07-14T10:21:40Z</time>
      </trkpt>
      <trkpt lat="48.68245" lon="6.13987">
        <ele>262</ele>
        <time>2013-07-14T10:21:42Z</time>
      </trkpt>
      <trkpt lat="48.68248" lon="6.13985">
        <ele>263</ele>
        <time>2013-07-14T10:21:44Z</time>
      </trkpt>
      <trkpt lat="48.68252" lon="6.13982">
        <ele>265</ele>
        <time>2013-07-14T10:21:46Z</time>
      </trkpt>
      <trkpt lat="48.68255" lon="6.13979">
        <ele>265</ele>
        <time>2013-07-14T10:21:48Z</time>
      </trkpt>
      <trkpt lat="48.68258" lon="6.13976">
        <ele>265</ele>
        <time>2013-07-14T10:21:50Z</time>
      </trkpt>
      <trkpt lat="48.68262" lon="6.13972">
        <ele>264</ele>
        <time>2013-07-14T10:21:52Z</time>
      </trkpt>
      <trkpt lat="48.68266" lon="6.13969">
        <ele>265</ele>
        <time>2013-07-14T10:21:54Z</time>
      </trkpt>
      <trkpt lat="48.68269" lon="6.13967">
        <ele>267</ele>
        <time>2013-07-14T10:21:56Z</time>
      </trkpt>
      <trkpt lat="48.68273" lon="6.13965">
        <ele>268</ele>
        <time>2013-07-14T10:21:58Z</time>
      </trkpt>
      <trkpt lat="48.68276" lon="6.13962">
        <ele>270</ele>
        <time>2013-07-14T10:22:00Z</time>
      </trkpt>
      <trkpt lat="48.6828" lon="6.13959">
        <ele>269</ele>
        <time>2013-07-14T10:22:02Z</time>
      </trkpt>
      <trkpt lat="48.68284" lon="6.13954">
        <ele>268</ele>
        <time>2013-07-14T10:22:04Z</time>
      </trkpt>
      <trkpt lat="48.68288" lon="6.1395">
        <ele>267</ele>
        <time>2013-07-14T10:22:06Z</time>
      </trkpt>
      <trkpt lat="48.68293" lon="6.13946">
        <ele>267</ele>
        <time>2013-07-14T10:22:08Z</time>
      </trkpt>
      <trkpt lat="48.68296" lon="6.13942">
        <ele>266</ele>
        <time>2013-07-14T10:22:10Z</time>
      </trkpt>
      <trkpt lat="48.683" lon="6.13938">
        <ele>267</ele>
        <time>2013-07-14T10:22:12Z</time>
      </trkpt>
      <trkpt lat="48.68304" lon="6.13935">
        <ele>267</ele>
        <time>2013-07-14T10:22:14Z</time>
      </trkpt>
      <trkpt lat="48.68308" lon="6.13932">
        <ele>268</ele>
        <time>2013-07-14T10:22:16Z</time>
      </trkpt>
      <trkpt lat="48.68311" lon="6.13928">
        <ele>268</ele>
        <time>2013-07-14T10:22:18Z</time>
      </trkpt>
      <trkpt lat="48.68315" lon="6.13924">
        <ele>269</ele>
        <time>2013-07-14T10:22:20Z</time>
      </trkpt>
      <trkpt lat="48.68319" lon="6.1392">
        <ele>269</ele>
        <time>2013-07-14T10:22:22Z</time>
      </trkpt>
      <trkpt lat="48.68322" lon="6.13916">
        <ele>270</ele>
        <time>2013-07-14T10:22:24Z</time>
      </trkpt>
      <trkpt lat="48.68324" lon="6.13912">
        <ele>271</ele>
        <time>2013-07-14T10:22:26Z</time>
      </trkpt>
      <trkpt lat="48.68326" lon="6.13911">
        <ele>272</ele>
        <time>2013-07-14T10:22:28Z</time>
      </trkpt>
      <trkpt lat="48.68329" lon="6.13911">
        <ele>272</ele>
        <time>2013-07-14T10:22:30Z</time>
      </trkpt>
      <trkpt lat="48.68333" lon="6.13912">
        <ele>272</ele>
        <time>2013-07-14T10:22:32Z</time>
      </trkpt>
      <trkpt lat="48.68339" lon="6.13914">
        <ele>272</ele>
        <time>2013-07-14T10:22:34Z</time>
      </trkpt>
      <trkpt lat="48.68346" lon="6.13915">
        <ele>272</ele>
        <time>2013-07-14T10:22:36Z</time>
      </trkpt>
      <trkpt lat="48.68355" lon="6.13915">
        <ele>272</ele>
        <time>2013-07-14T10:22:38Z</time>
      </trkpt>
      <trkpt lat="48.68362" lon="6.13911">
        <ele>273</ele>
        <time>2013-07-14T10:22:40Z</time>
      </trkpt>
      <trkpt lat="48.68366" lon="6.13908">
        <ele>273</ele>
        <time>2013-07-14T10:22:42Z</time>
      </trkpt>
      <trkpt lat="48.6837" lon="6.13904">
        <ele>272</ele>
        <time>2013-07-14T10:22:44Z</time>
      </trkpt>
      <trkpt lat="48.68373" lon="6.13902">
        <ele>273</ele>
        <time>2013-07-14T10:22:46Z</time>
      </trkpt>
      <trkpt lat="48.68377" lon="6.13899">
        <ele>272</ele>
        <time>2013-07-14T10:22:48Z</time>
      </trkpt>
      <trkpt lat="48.6838" lon="6.13896">
        <ele>274</ele>
        <time>2013-07-14T10:22:50Z</time>
      </trkpt>
      <trkpt lat="48.68383" lon="6.13892">
        <ele>275</ele>
        <time>2013-07-14T10:22:52Z</time>
      </trkpt>
      <trkpt lat="48.68387" lon="6.13888">
        <ele>274</ele>
        <time>2013-07-14T10:22:54Z</time>
      </trkpt>
      <trkpt lat="48.68391" lon="6.13885">
        <ele>275</ele>
        <time>2013-07-14T10:22:56Z</time>
      </trkpt>
      <trkpt lat="48.68395" lon="6.1388">
        <ele>274</ele>
        <time>2013-07-14T10:22:58Z</time>
      </trkpt>
      <trkpt lat="48.68398" lon="6.13877">
        <ele>276</ele>
        <time>2013-07-14T10:23:00Z</time>
      </trkpt>
      <trkpt lat="48.68401" lon="6.13872">
        <ele>276</ele>
        <time>2013-07-14T10:23:02Z</time>
      </trkpt>
      <trkpt lat="48.68405" lon="6.13868">
        <ele>277</ele>
        <time>2013-07-14T10:23:04Z</time>
      </trkpt>
      <trkpt lat="48.68408" lon="6.13865">
        <ele>278</ele>
        <time>2013-07-14T10:23:06Z</time>
      </trkpt>
      <trkpt lat="48.68412" lon="6.13861">
        <ele>278</ele>
        <time>2013-07-14T10:23:08Z</time>
      </trkpt>
      <trkpt lat="48.68416" lon="6.13857">
        <ele>277</ele>
        <time>2013-07-14T10:23:10Z</time>
      </trkpt>
      <trkpt lat="48.68419" lon="6.13852">
        <ele>277</ele>
        <time>2013-07-14T10:23:12Z</time>
      </trkpt>
      <trkpt lat="48.68423" lon="6.13848">
        <ele>279</ele>
        <time>2013-07-14T10:23:14Z</time>
      </trkpt>
      <trkpt lat="48.68426" lon="6.13843">
        <ele>279</ele>
        <time>2013-07-14T10:23:16Z</time>
      </trkpt>
      <trkpt lat="48.68429" lon="6.13838">
        <ele>278</ele>
        <time>2013-07-14T10:23:18Z</time>
      </trkpt>
      <trkpt lat="48.68433" lon="6.13833">
        <ele>279</ele>
        <time>2013-07-14T10:23:20Z</time>
      </trkpt>
      <trkpt lat="48.68436" lon="6.13828">
        <ele>279</ele>
        <time>2013-07-14T10:23:22Z</time>
      </trkpt>
      <trkpt lat="48.68439" lon="6.13823">
        <ele>279</ele>
        <time>2013-07-14T10:23:24Z</time>
      </trkpt>
      <trkpt lat="48.68441" lon="6.13817">
        <ele>280</ele>
        <time>2013-07-14T10:23:26Z</time>
      </trkpt>
      <trkpt lat="48.68444" lon="6.13811">
        <ele>280</ele>
        <time>2013-07-14T10:23:28Z</time>
      </trkpt>
      <trkpt lat="48.68447" lon="6.13805">
        <ele>281</ele>
        <time>2013-07-14T10:23:30Z</time>
      </trkpt>
      <trkpt lat="48.68449" lon="6.13799">
        <ele>281</ele>
        <time>2013-07-14T10:23:32Z</time>
      </trkpt>
      <trkpt lat="48.68452" lon="6.13793">
        <ele>281</ele>
        <time>2013-07-14T10:23:34Z</time>
      </trkpt>
      <trkpt lat="48.68454" lon="6.13787">
        <ele>281</ele>
        <time>2013-07-14T10:23:36Z</time>
      </trkpt>
      <trkpt lat="48.68457" lon="6.13781">
        <ele>280</ele>
        <time>2013-07-14T10:23:38Z</time>
      </trkpt>
      <trkpt lat="48.68459" lon="6.13775">
        <ele>280</ele>
        <time>2013-07-14T10:23:40Z</time>
      </trkpt>
      <trkpt lat="48.68461" lon="6.13768">
        <ele>281</ele>
        <time>2013-07-14T10:23:42Z</time>
      </trkpt>
      <trkpt lat="48.68463" lon="6.13761">
        <ele>281</ele>
        <time>2013-07-14T10:23:44Z</time>
      </trkpt>
      <trkpt lat="48.68465" lon="6.13755">
        <ele>281</ele>
        <time>2013-07-14T10:23:46Z</time>
      </trkpt>
      <trkpt lat="48.68467" lon="6.13749">
        <ele>282</ele>
        <time>2013-07-14T10:23:48Z</time>
      </trkpt>
      <trkpt lat="48.68469" lon="6.13743">
        <ele>282</ele>
        <time>2013-07-14T10:23:50Z</time>
      </trkpt>
      <trkpt lat="48.6847" lon="6.13737">
        <ele>283</ele>
        <time>2013-07-14T10:23:52Z</time>
      </trkpt>
      <trkpt lat="48.68472" lon="6.1373">
        <ele>283</ele>
        <time>2013-07-14T10:23:54Z</time>
      </trkpt>
      <trkpt lat="48.68473" lon="6.13724">
        <ele>285</ele>
        <time>2013-07-14T10:23:56Z</time>
      </trkpt>
      <trkpt lat="48.68474" lon="6.13718">
        <ele>286</ele>
        <time>2013-07-14T10:23:58Z</time>
      </trkpt>
      <trkpt lat="48.68475" lon="6.13712">
        <ele>287</ele>
        <time>2013-07-14T10:24:00Z</time>
      </trkpt>
      <trkpt lat="48.68477" lon="6.13706">
        <ele>287</ele>
        <time>2013-07-14T10:24:02Z</time>
      </trkpt>
      <trkpt lat="48.68477" lon="6.13698">
        <ele>288</ele>
        <time>2013-07-14T10:24:04Z</time>
      </trkpt>
      <trkpt lat="48.68478" lon="6.13691">
        <ele>289</ele>
        <time>2013-07-14T10:24:06Z</time>
      </trkpt>
      <trkpt lat="48.68479" lon="6.13684">
        <ele>289</ele>
        <time>2013-07-14T10:24:08Z</time>
      </trkpt>
      <trkpt lat="48.6848" lon="6.13678">
        <ele>290</ele>
        <time>2013-07-14T10:24:10Z</time>
      </trkpt>
      <trkpt lat="48.6848" lon="6.13671">
        <ele>291</ele>
        <time>2013-07-14T10:24:12Z</time>
      </trkpt>
      <trkpt lat="48.6848" lon="6.13665">
        <ele>291</ele>
        <time>2013-07-14T10:24:14Z</time>
      </trkpt>
      <trkpt lat="48.6848" lon="6.13658">
        <ele>292</ele>
        <time>2013-07-14T10:24:16Z</time>
      </trkpt>
      <trkpt lat="48.6848" lon="6.13651">
        <ele>293</ele>
        <time>2013-07-14T10:24:18Z</time>
      </trkpt>
      <trkpt lat="48.6848" lon="6.13644">
        <ele>294</ele>
        <time>2013-07-14T10:24:20Z</time>
      </trkpt>
      <trkpt lat="48.6848" lon="6.13637">
        <ele>292</ele>
        <time>2013-07-14T10:24:22Z</time>
      </trkpt>
      <trkpt lat="48.6848" lon="6.13631">
        <ele>292</ele>
        <time>2013-07-14T10:24:24Z</time>
      </trkpt>
      <trkpt lat="48.6848" lon="6.13624">
        <ele>291</ele>
        <time>2013-07-14T10:24:26Z</time>
      </trkpt>
      <trkpt lat="48.6848" lon="6.13617">
        <ele>292</ele>
        <time>2013-07-14T10:24:28Z</time>
      </trkpt>
      <trkpt lat="48.6848" lon="6.1361">
        <ele>292</ele>
        <time>2013-07-14T10:24:30Z</time>
      </trkpt>
      <trkpt lat="48.6848" lon="6.13604">
        <ele>292</ele>
        <time>2013-07-14T10:24:32Z</time>
      </trkpt>
      <trkpt lat="48.68479" lon="6.13597">
        <ele>292</ele>
        <time>2013-07-14T10:24:34Z</time>
      </trkpt>
      <trkpt lat="48.68479" lon="6.1359">
        <ele>293</ele>
        <time>2013-07-14T10:24:36Z</time>
      </trkpt>
      <trkpt lat="48.68479" lon="6.13583">
        <ele>294</ele>
        <time>2013-07-14T10:24:38Z</time>
      </trkpt>
      <trkpt lat="48.68479" lon="6.13576">
        <ele>294</ele>
        <time>2013-07-14T10:24:40Z</time>
      </trkpt>
      <trkpt lat="48.68478" lon="6.1357">
        <ele>294</ele>
        <time>2013-07-14T10:24:42Z</time>
      </trkpt>
      <trkpt lat="48.68478" lon="6.13563">
        <ele>295</ele>
        <time>2013-07-14T10:24:44Z</time>
      </trkpt>
      <trkpt lat="48.68477" lon="6.13557">
        <ele>295</ele>
        <time>2013-07-14T10:24:46Z</time>
      </trkpt>
      <trkpt lat="48.68477" lon="6.13551">
        <ele>296</ele>
        <time>2013-07-14T10:24:48Z</time>
      </trkpt>
      <trkpt lat="48.68476" lon="6.13545">
        <ele>295</ele>
        <time>2013-07-14T10:24:50Z</time>
      </trkpt>
      <trkpt lat="48.68477" lon="6.13538">
        <ele>295</ele>
        <time>2013-07-14T10:24:52Z</time>
      </trkpt>
      <trkpt lat="48.68475" lon="6.13531">
        <ele>295</ele>
        <time>2013-07-14T10:24:54Z</time>
      </trkpt>
      <trkpt lat="48.68475" lon="6.13526">
        <ele>297</ele>
        <time>2013-07-14T10:24:56Z</time>
      </trkpt>
      <trkpt lat="48.68475" lon="6.13519">
        <ele>296</ele>
        <time>2013-07-14T10:24:58Z</time>
      </trkpt>
      <trkpt lat="48.68475" lon="6.13512">
        <ele>297</ele>
        <time>2013-07-14T10:25:00Z</time>
      </trkpt>
      <trkpt lat="48.68474" lon="6.13506">
        <ele>297</ele>
        <time>2013-07-14T10:25:02Z</time>
      </trkpt>
      <trkpt lat="48.68473" lon="6.13499">
        <ele>297</ele>
        <time>2013-07-14T10:25:04Z</time>
      </trkpt>
      <trkpt lat="48.68473" lon="6.13492">
        <ele>298</ele>
        <time>2013-07-14T10:25:06Z</time>
      </trkpt>
      <trkpt lat="48.68473" lon="6.13485">
        <ele>298</ele>
        <time>2013-07-14T10:25:08Z</time>
      </trkpt>
      <trkpt lat="48.68473" lon="6.13478">
        <ele>299</ele>
        <time>2013-07-14T10:25:10Z</time>
      </trkpt>
      <trkpt lat="48.68474" lon="6.13471">
        <ele>300</ele>
        <time>2013-07-14T10:25:12Z</time>
      </trkpt>
      <trkpt lat="48.68474" lon="6.13456">
        <ele>300</ele>
        <time>2013-07-14T10:25:16Z</time>
      </trkpt>
      <trkpt lat="48.68474" lon="6.13449">
        <ele>301</ele>
        <time>2013-07-14T10:25:18Z</time>
      </trkpt>
      <trkpt lat="48.68475" lon="6.13442">
        <ele>301</ele>
        <time>2013-07-14T10:25:20Z</time>
      </trkpt>
      <trkpt lat="48.68475" lon="6.13434">
        <ele>302</ele>
        <time>2013-07-14T10:25:22Z</time>
      </trkpt>
      <trkpt lat="48.68475" lon="6.13427">
        <ele>303</ele>
        <time>2013-07-14T10:25:24Z</time>
      </trkpt>
      <trkpt lat="48.68476" lon="6.13419">
        <ele>304</ele>
        <time>2013-07-14T10:25:26Z</time>
      </trkpt>
      <trkpt lat="48.68477" lon="6.13412">
        <ele>304</ele>
        <time>2013-07-14T10:25:28Z</time>
      </trkpt>
      <trkpt lat="48.68477" lon="6.13405">
        <ele>302</ele>
        <time>2013-07-14T10:25:30Z</time>
      </trkpt>
      <trkpt lat="48.68478" lon="6.13399">
        <ele>304</ele>
        <time>2013-07-14T10:25:32Z</time>
      </trkpt>
      <trkpt lat="48.68478" lon="6.13392">
        <ele>306</ele>
        <time>2013-07-14T10:25:34Z</time>
      </trkpt>
      <trkpt lat="48.68479" lon="6.13385">
        <ele>309</ele>
        <time>2013-07-14T10:25:36Z</time>
      </trkpt>
      <trkpt lat="48.68481" lon="6.13378">
        <ele>309</ele>
        <time>2013-07-14T10:25:38Z</time>
      </trkpt>
      <trkpt lat="48.68483" lon="6.13372">
        <ele>309</ele>
        <time>2013-07-14T10:25:40Z</time>
      </trkpt>
      <trkpt lat="48.68484" lon="6.13365">
        <ele>313</ele>
        <time>2013-07-14T10:25:42Z</time>
      </trkpt>
      <trkpt lat="48.68486" lon="6.13359">
        <ele>314</ele>
        <time>2013-07-14T10:25:44Z</time>
      </trkpt>
      <trkpt lat="48.68488" lon="6.13352">
        <ele>311</ele>
        <time>2013-07-14T10:25:46Z</time>
      </trkpt>
      <trkpt lat="48.68489" lon="6.13344">
        <ele>312</ele>
        <time>2013-07-14T10:25:48Z</time>
      </trkpt>
      <trkpt lat="48.6849" lon="6.13337">
        <ele>312</ele>
        <time>2013-07-14T10:25:50Z</time>
      </trkpt>
      <trkpt lat="48.68492" lon="6.13332">
        <ele>312</ele>
        <time>2013-07-14T10:25:52Z</time>
      </trkpt>
      <trkpt lat="48.68493" lon="6.13326">
        <ele>313</ele>
        <time>2013-07-14T10:25:54Z</time>
      </trkpt>
      <trkpt lat="48.68494" lon="6.1332">
        <ele>312</ele>
        <time>2013-07-14T10:25:56Z</time>
      </trkpt>
      <trkpt lat="48.68496" lon="6.13314">
        <ele>313</ele>
        <time>2013-07-14T10:25:58Z</time>
      </trkpt>
      <trkpt lat="48.68498" lon="6.13308">
        <ele>313</ele>
        <time>2013-07-14T10:26:00Z</time>
      </trkpt>
      <trkpt lat="48.68498" lon="6.13304">
        <ele>314</ele>
        <time>2013-07-14T10:26:01Z</time>
      </trkpt>
      <trkpt lat="48.68499" lon="6.13301">
        <ele>313</ele>
        <time>2013-07-14T10:26:02Z</time>
      </trkpt>
      <trkpt lat="48.68501" lon="6.13295">
        <ele>313</ele>
        <time>2013-07-14T10:26:04Z</time>
      </trkpt>
      <trkpt lat="48.68502" lon="6.13289">
        <ele>314</ele>
        <time>2013-07-14T10:26:06Z</time>
      </trkpt>
      <trkpt lat="48.68506" lon="6.13284">
        <ele>309</ele>
        <time>2013-07-14T10:26:08Z</time>
      </trkpt>
      <trkpt lat="48.68509" lon="6.13278">
        <ele>307</ele>
        <time>2013-07-14T10:26:10Z</time>
      </trkpt>
      <trkpt lat="48.68511" lon="6.13273">
        <ele>308</ele>
        <time>2013-07-14T10:26:12Z</time>
      </trkpt>
      <trkpt lat="48.68515" lon="6.13266">
        <ele>309</ele>
        <time>2013-07-14T10:26:14Z</time>
      </trkpt>
      <trkpt lat="48.68519" lon="6.13261">
        <ele>311</ele>
        <time>2013-07-14T10:26:16Z</time>
      </trkpt>
      <trkpt lat="48.68522" lon="6.13256">
        <ele>312</ele>
        <time>2013-07-14T10:26:18Z</time>
      </trkpt>
      <trkpt lat="48.68525" lon="6.1325">
        <ele>314</ele>
        <time>2013-07-14T10:26:20Z</time>
      </trkpt>
      <trkpt lat="48.68529" lon="6.13244">
        <ele>314</ele>
        <time>2013-07-14T10:26:22Z</time>
      </trkpt>
      <trkpt lat="48.68532" lon="6.13238">
        <ele>316</ele>
        <time>2013-07-14T10:26:24Z</time>
      </trkpt>
      <trkpt lat="48.68536" lon="6.13232">
        <ele>316</ele>
        <time>2013-07-14T10:26:26Z</time>
      </trkpt>
      <trkpt lat="48.68539" lon="6.13227">
        <ele>316</ele>
        <time>2013-07-14T10:26:28Z</time>
      </trkpt>
      <trkpt lat="48.68542" lon="6.13221">
        <ele>317</ele>
        <time>2013-07-14T10:26:30Z</time>
      </trkpt>
      <trkpt lat="48.68546" lon="6.13215">
        <ele>315</ele>
        <time>2013-07-14T10:26:32Z</time>
      </trkpt>
      <trkpt lat="48.6855" lon="6.13209">
        <ele>317</ele>
        <time>2013-07-14T10:26:34Z</time>
      </trkpt>
      <trkpt lat="48.68554" lon="6.13203">
        <ele>316</ele>
        <time>2013-07-14T10:26:36Z</time>
      </trkpt>
      <trkpt lat="48.68559" lon="6.13199">
        <ele>316</ele>
        <time>2013-07-14T10:26:38Z</time>
      </trkpt>
      <trkpt lat="48.68563" lon="6.13196">
        <ele>317</ele>
        <time>2013-07-14T10:26:40Z</time>
      </trkpt>
      <trkpt lat="48.68567" lon="6.13193">
        <ele>317</ele>
        <time>2013-07-14T10:26:42Z</time>
      </trkpt>
      <trkpt lat="48.68571" lon="6.13189">
        <ele>319</ele>
        <time>2013-07-14T10:26:44Z</time>
      </trkpt>
      <trkpt lat="48.68575" lon="6.13185">
        <ele>318</ele>
        <time>2013-07-14T10:26:46Z</time>
      </trkpt>
      <trkpt lat="48.68579" lon="6.13181">
        <ele>318</ele>
        <time>2013-07-14T10:26:48Z</time>
      </trkpt>
      <trkpt lat="48.68584" lon="6.13177">
        <ele>317</ele>
        <time>2013-07-14T10:26:50Z</time>
      </trkpt>
      <trkpt lat="48.68589" lon="6.13173">
        <ele>317</ele>
        <time>2013-07-14T10:26:52Z</time>
      </trkpt>
      <trkpt lat="48.68594" lon="6.13169">
        <ele>317</ele>
        <time>2013-07-14T10:26:54Z</time>
      </trkpt>
      <trkpt lat="48.68598" lon="6.13166">
        <ele>317</ele>
        <time>2013-07-14T10:26:56Z</time>
      </trkpt>
      <trkpt lat="48.68602" lon="6.13162">
        <ele>317</ele>
        <time>2013-07-14T10:26:58Z</time>
      </trkpt>
      <trkpt lat="48.68607" lon="6.13159">
        <ele>317</ele>
        <time>2013-07-14T10:27:00Z</time>
      </trkpt>
      <trkpt lat="48.68611" lon="6.13158">
        <ele>319</ele>
        <time>2013-07-14T10:27:02Z</time>
      </trkpt>
      <trkpt lat="48.68615" lon="6.13155">
        <ele>318</ele>
        <time>2013-07-14T10:27:04Z</time>
      </trkpt>
      <trkpt lat="48.6862" lon="6.13153">
        <ele>318</ele>
        <time>2013-07-14T10:27:06Z</time>
      </trkpt>
      <trkpt lat="48.68625" lon="6.13151">
        <ele>318</ele>
        <time>2013-07-14T10:27:08Z</time>
      </trkpt>
      <trkpt lat="48.6863" lon="6.13149">
        <ele>320</ele>
        <time>2013-07-14T10:27:10Z</time>
      </trkpt>
      <trkpt lat="48.68634" lon="6.13147">
        <ele>320</ele>
        <time>2013-07-14T10:27:12Z</time>
      </trkpt>
      <trkpt lat="48.68639" lon="6.13145">
        <ele>320</ele>
        <time>2013-07-14T10:27:14Z</time>
      </trkpt>
      <trkpt lat="48.68644" lon="6.13143">
        <ele>319</ele>
        <time>2013-07-14T10:27:16Z</time>
      </trkpt>
      <trkpt lat="48.68649" lon="6.13141">
        <ele>316</ele>
        <time>2013-07-14T10:27:18Z</time>
      </trkpt>
      <trkpt lat="48.68654" lon="6.13139">
        <ele>315</ele>
        <time>2013-07-14T10:27:20Z</time>
      </trkpt>
      <trkpt lat="48.68658" lon="6.13138">
        <ele>318</ele>
        <time>2013-07-14T10:27:22Z</time>
      </trkpt>
      <trkpt lat="48.68663" lon="6.13136">
        <ele>320</ele>
        <time>2013-07-14T10:27:24Z</time>
      </trkpt>
      <trkpt lat="48.68667" lon="6.13135">
        <ele>322</ele>
        <time>2013-07-14T10:27:26Z</time>
      </trkpt>
      <trkpt lat="48.68672" lon="6.13135">
        <ele>321</ele>
        <time>2013-07-14T10:27:28Z</time>
      </trkpt>
      <trkpt lat="48.68677" lon="6.13135">
        <ele>322</ele>
        <time>2013-07-14T10:27:30Z</time>
      </trkpt>
      <trkpt lat="48.68681" lon="6.13136">
        <ele>322</ele>
        <time>2013-07-14T10:27:32Z</time>
      </trkpt>
      <trkpt lat="48.68686" lon="6.13136">
        <ele>321</ele>
        <time>2013-07-14T10:27:34Z</time>
      </trkpt>
      <trkpt lat="48.68692" lon="6.13136">
        <ele>322</ele>
        <time>2013-07-14T10:27:36Z</time>
      </trkpt>
      <trkpt lat="48.68697" lon="6.13137">
        <ele>321</ele>
        <time>2013-07-14T10:27:38Z</time>
      </trkpt>
      <trkpt lat="48.68702" lon="6.13137">
        <ele>323</ele>
        <time>2013-07-14T10:27:40Z</time>
      </trkpt>
      <trkpt lat="48.68708" lon="6.13138">
        <ele>318</ele>
        <time>2013-07-14T10:27:42Z</time>
      </trkpt>
      <trkpt lat="48.68712" lon="6.13139">
        <ele>319</ele>
        <time>2013-07-14T10:27:44Z</time>
      </trkpt>
      <trkpt lat="48.68714" lon="6.13138">
        <ele>319</ele>
        <time>2013-07-14T10:27:45Z</time>
      </trkpt>
      <trkpt lat="48.68716" lon="6.13138">
        <ele>319</ele>
        <time>2013-07-14T10:27:46Z</time>
      </trkpt>
      <trkpt lat="48.68721" lon="6.13139">
        <ele>320</ele>
        <time>2013-07-14T10:27:48Z</time>
      </trkpt>
      <trkpt lat="48.68729" lon="6.1314">
        <ele>320</ele>
        <time>2013-07-14T10:27:51Z</time>
      </trkpt>
      <trkpt lat="48.68731" lon="6.1314">
        <ele>319</ele>
        <time>2013-07-14T10:27:52Z</time>
      </trkpt>
      <trkpt lat="48.68743" lon="6.13144">
        <ele>320</ele>
        <time>2013-07-14T10:27:57Z</time>
      </trkpt>
      <trkpt lat="48.68748" lon="6.13144">
        <ele>319</ele>
        <time>2013-07-14T10:27:59Z</time>
      </trkpt>
      <trkpt lat="48.68752" lon="6.13145">
        <ele>321</ele>
        <time>2013-07-14T10:28:01Z</time>
      </trkpt>
      <trkpt lat="48.68755" lon="6.13146">
        <ele>323</ele>
        <time>2013-07-14T10:28:03Z</time>
      </trkpt>
      <trkpt lat="48.68759" lon="6.13146">
        <ele>324</ele>
        <time>2013-07-14T10:28:05Z</time>
      </trkpt>
      <trkpt lat="48.68763" lon="6.13147">
        <ele>325</ele>
        <time>2013-07-14T10:28:07Z</time>
      </trkpt>
      <trkpt lat="48.68767" lon="6.13147">
        <ele>324</ele>
        <time>2013-07-14T10:28:09Z</time>
      </trkpt>
      <trkpt lat="48.68771" lon="6.13148">
        <ele>325</ele>
        <time>2013-07-14T10:28:11Z</time>
      </trkpt>
      <trkpt lat="48.68774" lon="6.1315">
        <ele>325</ele>
        <time>2013-07-14T10:28:13Z</time>
      </trkpt>
      <trkpt lat="48.68779" lon="6.13151">
        <ele>325</ele>
        <time>2013-07-14T10:28:15Z</time>
      </trkpt>
      <trkpt lat="48.68783" lon="6.13154">
        <ele>326</ele>
        <time>2013-07-14T10:28:17Z</time>
      </trkpt>
      <trkpt lat="48.68787" lon="6.13156">
        <ele>326</ele>
        <time>2013-07-14T10:28:19Z</time>
      </trkpt>
      <trkpt lat="48.68791" lon="6.13159">
        <ele>328</ele>
        <time>2013-07-14T10:28:21Z</time>
      </trkpt>
      <trkpt lat="48.68795" lon="6.13162">
        <ele>329</ele>
        <time>2013-07-14T10:28:23Z</time>
      </trkpt>
      <trkpt lat="48.68798" lon="6.13166">
        <ele>331</ele>
        <time>2013-07-14T10:28:25Z</time>
      </trkpt>
      <trkpt lat="48.68802" lon="6.1317">
        <ele>331</ele>
        <time>2013-07-14T10:28:27Z</time>
      </trkpt>
      <trkpt lat="48.68806" lon="6.13173">
        <ele>332</ele>
        <time>2013-07-14T10:28:29Z</time>
      </trkpt>
      <trkpt lat="48.6881" lon="6.13177">
        <ele>332</ele>
        <time>2013-07-14T10:28:31Z</time>
      </trkpt>
      <trkpt lat="48.68815" lon="6.13181">
        <ele>330</ele>
        <time>2013-07-14T10:28:33Z</time>
      </trkpt>
      <trkpt lat="48.68819" lon="6.13183">
        <ele>331</ele>
        <time>2013-07-14T10:28:35Z</time>
      </trkpt>
      <trkpt lat="48.68823" lon="6.13184">
        <ele>333</ele>
        <time>2013-07-14T10:28:37Z</time>
      </trkpt>
      <trkpt lat="48.68826" lon="6.13184">
        <ele>335</ele>
        <time>2013-07-14T10:28:39Z</time>
      </trkpt>
      <trkpt lat="48.68828" lon="6.1318">
        <ele>338</ele>
        <time>2013-07-14T10:28:41Z</time>
      </trkpt>
      <trkpt lat="48.68829" lon="6.13175">
        <ele>337</ele>
        <time>2013-07-14T10:28:43Z</time>
      </trkpt>
      <trkpt lat="48.68828" lon="6.1317">
        <ele>338</ele>
        <time>2013-07-14T10:28:45Z</time>
      </trkpt>
      <trkpt lat="48.68827" lon="6.13162">
        <ele>339</ele>
        <time>2013-07-14T10:28:47Z</time>
      </trkpt>
      <trkpt lat="48.68827" lon="6.13154">
        <ele>339</ele>
        <time>2013-07-14T10:28:49Z</time>
      </trkpt>
      <trkpt lat="48.68826" lon="6.13148">
        <ele>337</ele>
        <time>2013-07-14T10:28:51Z</time>
      </trkpt>
      <trkpt lat="48.68825" lon="6.13141">
        <ele>338</ele>
        <time>2013-07-14T10:28:53Z</time>
      </trkpt>
      <trkpt lat="48.68824" lon="6.13135">
        <ele>339</ele>
        <time>2013-07-14T10:28:55Z</time>
      </trkpt>
      <trkpt lat="48.68824" lon="6.13128">
        <ele>339</ele>
        <time>2013-07-14T10:28:57Z</time>
      </trkpt>
      <trkpt lat="48.68823" lon="6.13124">
        <ele>340</ele>
        <time>2013-07-14T10:28:58Z</time>
      </trkpt>
      <trkpt lat="48.68823" lon="6.1312">
        <ele>340</ele>
        <time>2013-07-14T10:28:59Z</time>
      </trkpt>
      <trkpt lat="48.68823" lon="6.13114">
        <ele>340</ele>
        <time>2013-07-14T10:29:01Z</time>
      </trkpt>
      <trkpt lat="48.68822" lon="6.13106">
        <ele>342</ele>
        <time>2013-07-14T10:29:03Z</time>
      </trkpt>
      <trkpt lat="48.68821" lon="6.13099">
        <ele>341</ele>
        <time>2013-07-14T10:29:05Z</time>
      </trkpt>
      <trkpt lat="48.6882" lon="6.13091">
        <ele>342</ele>
        <time>2013-07-14T10:29:07Z</time>
      </trkpt>
      <trkpt lat="48.68819" lon="6.13083">
        <ele>340</ele>
        <time>2013-07-14T10:29:09Z</time>
      </trkpt>
      <trkpt lat="48.68818" lon="6.13075">
        <ele>340</ele>
        <time>2013-07-14T10:29:11Z</time>
      </trkpt>
      <trkpt lat="48.68818" lon="6.13068">
        <ele>343</ele>
        <time>2013-07-14T10:29:13Z</time>
      </trkpt>
      <trkpt lat="48.68818" lon="6.1306">
        <ele>344</ele>
        <time>2013-07-14T10:29:15Z</time>
      </trkpt>
      <trkpt lat="48.68817" lon="6.13052">
        <ele>343</ele>
        <time>2013-07-14T10:29:17Z</time>
      </trkpt>
      <trkpt lat="48.68816" lon="6.13043">
        <ele>341</ele>
        <time>2013-07-14T10:29:19Z</time>
      </trkpt>
      <trkpt lat="48.68816" lon="6.13035">
        <ele>342</ele>
        <time>2013-07-14T10:29:21Z</time>
      </trkpt>
      <trkpt lat="48.68816" lon="6.13026">
        <ele>342</ele>
        <time>2013-07-14T10:29:23Z</time>
      </trkpt>
      <trkpt lat="48.68816" lon="6.13018">
        <ele>342</ele>
        <time>2013-07-14T10:29:25Z</time>
      </trkpt>
      <trkpt lat="48.68816" lon="6.1301">
        <ele>341</ele>
        <time>2013-07-14T10:29:27Z</time>
      </trkpt>
      <trkpt lat="48.68815" lon="6.13003">
        <ele>340</ele>
        <time>2013-07-14T10:29:29Z</time>
      </trkpt>
      <trkpt lat="48.68815" lon="6.12995">
        <ele>339</ele>
        <time>2013-07-14T10:29:31Z</time>
      </trkpt>
      <trkpt lat="48.68814" lon="6.12988">
        <ele>340</ele>
        <time>2013-07-14T10:29:33Z</time>
      </trkpt>
      <trkpt lat="48.68814" lon="6.12981">
        <ele>339</ele>
        <time>2013-07-14T10:29:35Z</time>
      </trkpt>
      <trkpt lat="48.68813" lon="6.12973">
        <ele>340</ele>
        <time>2013-07-14T10:29:37Z</time>
      </trkpt>
      <trkpt lat="48.68813" lon="6.12966">
        <ele>343</ele>
        <time>2013-07-14T10:29:39Z</time>
      </trkpt>
      <trkpt lat="48.68812" lon="6.1296">
        <ele>345</ele>
        <time>2013-07-14T10:29:41Z</time>
      </trkpt>
      <trkpt lat="48.68812" lon="6.12953">
        <ele>344</ele>
        <time>2013-07-14T10:29:43Z</time>
      </trkpt>
      <trkpt lat="48.68811" lon="6.12945">
        <ele>342</ele>
        <time>2013-07-14T10:29:45Z</time>
      </trkpt>
      <trkpt lat="48.6881" lon="6.12938">
        <ele>342</ele>
        <time>2013-07-14T10:29:47Z</time>
      </trkpt>
      <trkpt lat="48.6881" lon="6.12931">
        <ele>343</ele>
        <time>2013-07-14T10:29:49Z</time>
      </trkpt>
      <trkpt lat="48.6881" lon="6.12923">
        <ele>343</ele>
        <time>2013-07-14T10:29:51Z</time>
      </trkpt>
      <trkpt lat="48.68809" lon="6.12907">
        <ele>343</ele>
        <time>2013-07-14T10:29:55Z</time>
      </trkpt>
      <trkpt lat="48.68808" lon="6.129">
        <ele>344</ele>
        <time>2013-07-14T10:29:57Z</time>
      </trkpt>
      <trkpt lat="48.68808" lon="6.12892">
        <ele>345</ele>
        <time>2013-07-14T10:29:59Z</time>
      </trkpt>
      <trkpt lat="48.68807" lon="6.12884">
        <ele>345</ele>
        <time>2013-07-14T10:30:01Z</time>
      </trkpt>
      <trkpt lat="48.68807" lon="6.12876">
        <ele>344</ele>
        <time>2013-07-14T10:30:03Z</time>
      </trkpt>
      <trkpt lat="48.68806" lon="6.12868">
        <ele>342</ele>
        <time>2013-07-14T10:30:05Z</time>
      </trkpt>
      <trkpt lat="48.68805" lon="6.1286">
        <ele>342</ele>
        <time>2013-07-14T10:30:07Z</time>
      </trkpt>
      <trkpt lat="48.68804" lon="6.12851">
        <ele>341</ele>
        <time>2013-07-14T10:30:09Z</time>
      </trkpt>
      <trkpt lat="48.68804" lon="6.12843">
        <ele>343</ele>
        <time>2013-07-14T10:30:11Z</time>
      </trkpt>
      <trkpt lat="48.68803" lon="6.12834">
        <ele>344</ele>
        <time>2013-07-14T10:30:13Z</time>
      </trkpt>
      <trkpt lat="48.68802" lon="6.12825">
        <ele>345</ele>
        <time>2013-07-14T10:30:15Z</time>
      </trkpt>
      <trkpt lat="48.68801" lon="6.12817">
        <ele>345</ele>
        <time>2013-07-14T10:30:17Z</time>
      </trkpt>
      <trkpt lat="48.688" lon="6.12809">
        <ele>346</ele>
        <time>2013-07-14T10:30:19Z</time>
      </trkpt>
      <trkpt lat="48.688" lon="6.128">
        <ele>346</ele>
        <time>2013-07-14T10:30:21Z</time>
      </trkpt>
      <trkpt lat="48.688" lon="6.12791">
        <ele>346</ele>
        <time>2013-07-14T10:30:23Z</time>
      </trkpt>
      <trkpt lat="48.688" lon="6.12784">
        <ele>348</ele>
        <time>2013-07-14T10:30:25Z</time>
      </trkpt>
      <trkpt lat="48.688" lon="6.12775">
        <ele>346</ele>
        <time>2013-07-14T10:30:27Z</time>
      </trkpt>
      <trkpt lat="48.68799" lon="6.12767">
        <ele>348</ele>
        <time>2013-07-14T10:30:29Z</time>
      </trkpt>
      <trkpt lat="48.68798" lon="6.12758">
        <ele>349</ele>
        <time>2013-07-14T10:30:31Z</time>
      </trkpt>
      <trkpt lat="48.68797" lon="6.1275">
        <ele>347</ele>
        <time>2013-07-14T10:30:33Z</time>
      </trkpt>
      <trkpt lat="48.68797" lon="6.12743">
        <ele>349</ele>
        <time>2013-07-14T10:30:35Z</time>
      </trkpt>
      <trkpt lat="48.68797" lon="6.12736">
        <ele>349</ele>
        <time>2013-07-14T10:30:37Z</time>
      </trkpt>
      <trkpt lat="48.68798" lon="6.12728">
        <ele>351</ele>
        <time>2013-07-14T10:30:39Z</time>
      </trkpt>
      <trkpt lat="48.68798" lon="6.12722">
        <ele>350</ele>
        <time>2013-07-14T10:30:41Z</time>
      </trkpt>
      <trkpt lat="48.68799" lon="6.12717">
        <ele>351</ele>
        <time>2013-07-14T10:30:43Z</time>
      </trkpt>
      <trkpt lat="48.68798" lon="6.12714">
        <ele>350</ele>
        <time>2013-07-14T10:30:45Z</time>
      </trkpt>
      <trkpt lat="48.68797" lon="6.12713">
        <ele>353</ele>
        <time>2013-07-14T10:30:53Z</time>
      </trkpt>
      <trkpt lat="48.68799" lon="6.12713">
        <ele>349</ele>
        <time>2013-07-14T10:31:21Z</time>
      </trkpt>
      <trkpt lat="48.68798" lon="6.12713">
        <ele>348</ele>
        <time>2013-07-14T10:31:51Z</time>
      </trkpt>
      <trkpt lat="48.68796" lon="6.12715">
        <ele>342</ele>
        <time>2013-07-14T10:32:23Z</time>
      </trkpt>
      <trkpt lat="48.68796" lon="6.12713">
        <ele>346</ele>
        <time>2013-07-14T10:32:27Z</time>
      </trkpt>
      <trkpt lat="48.68798" lon="6.12714">
        <ele>344</ele>
        <time>2013-07-14T10:32:29Z</time>
      </trkpt>
      <trkpt lat="48.68802" lon="6.12715">
        <ele>351</ele>
        <time>2013-07-14T10:32:53Z</time>
      </trkpt>
      <trkpt lat="48.68802" lon="6.12715">
        <ele>346</ele>
        <time>2013-07-14T10:32:55Z</time>
      </trkpt>
      <trkpt lat="48.68801" lon="6.12714">
        <ele>348</ele>
        <time>2013-07-14T10:32:57Z</time>
      </trkpt>
      <trkpt lat="48.688" lon="6.12712">
        <ele>347</ele>
        <time>2013-07-14T10:32:59Z</time>
      </trkpt>
      <trkpt lat="48.688" lon="6.1271">
        <ele>359</ele>
        <time>2013-07-14T10:33:11Z</time>
      </trkpt>
      <trkpt lat="48.68798" lon="6.12712">
        <ele>347</ele>
        <time>2013-07-14T10:33:29Z</time>
      </trkpt>
      <trkpt lat="48.68798" lon="6.12711">
        <ele>347</ele>
        <time>2013-07-14T10:33:31Z</time>
      </trkpt>
      <trkpt lat="48.68798" lon="6.12711">
        <ele>351</ele>
        <time>2013-07-14T10:33:33Z</time>
      </trkpt>
      <trkpt lat="48.68798" lon="6.1271">
        <ele>348</ele>
        <time>2013-07-14T10:33:55Z</time>
      </trkpt>
      <trkpt lat="48.68798" lon="6.12711">
        <ele>346</ele>
        <time>2013-07-14T10:34:03Z</time>
      </trkpt>
      <trkpt lat="48.68798" lon="6.12712">
        <ele>346</ele>
        <time>2013-07-14T10:34:05Z</time>
      </trkpt>
      <trkpt lat="48.68799" lon="6.12712">
        <ele>349</ele>
        <time>2013-07-14T10:34:07Z</time>
      </trkpt>
      <trkpt lat="48.68799" lon="6.12713">
        <ele>347</ele>
        <time>2013-07-14T10:34:15Z</time>
      </trkpt>
      <trkpt lat="48.68798" lon="6.12712">
        <ele>350</ele>
        <time>2013-07-14T10:34:25Z</time>
      </trkpt>
      <trkpt lat="48.68798" lon="6.12713">
        <ele>347</ele>
        <time>2013-07-14T10:34:27Z</time>
      </trkpt>
      <trkpt lat="48.68798" lon="6.12712">
        <ele>347</ele>
        <time>2013-07-14T10:34:29Z</time>
      </trkpt>
      <trkpt lat="48.68797" lon="6.12714">
        <ele>347</ele>
        <time>2013-07-14T10:34:31Z</time>
      </trkpt>
      <trkpt lat="48.68796" lon="6.12714">
        <ele>345</ele>
        <time>2013-07-14T10:34:33Z</time>
      </trkpt>
      <trkpt lat="48.68796" lon="6.12714">
        <ele>341</ele>
        <time>2013-07-14T10:34:37Z</time>
      </trkpt>
      <trkpt lat="48.68794" lon="6.12717">
        <ele>342</ele>
        <time>2013-07-14T10:34:39Z</time>
      </trkpt>
      <trkpt lat="48.68784" lon="6.12725">
        <ele>343</ele>
        <time>2013-07-14T10:34:43Z</time>
      </trkpt>
      <trkpt lat="48.68779" lon="6.12726">
        <ele>343</ele>
        <time>2013-07-14T10:34:45Z</time>
      </trkpt>
      <trkpt lat="48.68774" lon="6.12726">
        <ele>345</ele>
        <time>2013-07-14T10:34:47Z</time>
      </trkpt>
      <trkpt lat="48.68769" lon="6.12728">
        <ele>348</ele>
        <time>2013-07-14T10:34:49Z</time>
      </trkpt>
      <trkpt lat="48.68762" lon="6.12731">
        <ele>352</ele>
        <time>2013-07-14T10:34:51Z</time>
      </trkpt>
      <trkpt lat="48.68754" lon="6.12736">
        <ele>355</ele>
        <time>2013-07-14T10:34:53Z</time>
      </trkpt>
      <trkpt lat="48.68745" lon="6.12745">
        <ele>357</ele>
        <time>2013-07-14T10:34:55Z</time>
      </trkpt>
      <trkpt lat="48.68736" lon="6.12752">
        <ele>359</ele>
        <time>2013-07-14T10:34:57Z</time>
      </trkpt>
      <trkpt lat="48.68726" lon="6.12758">
        <ele>360</ele>
        <time>2013-07-14T10:34:59Z</time>
      </trkpt>
      <trkpt lat="48.68717" lon="6.12761">
        <ele>361</ele>
        <time>2013-07-14T10:35:01Z</time>
      </trkpt>
      <trkpt lat="48.68707" lon="6.12765">
        <ele>362</ele>
        <time>2013-07-14T10:35:03Z</time>
      </trkpt>
      <trkpt lat="48.68696" lon="6.12769">
        <ele>360</ele>
        <time>2013-07-14T10:35:05Z</time>
      </trkpt>
      <trkpt lat="48.68686" lon="6.12772">
        <ele>360</ele>
        <time>2013-07-14T10:35:07Z</time>
      </trkpt>
      <trkpt lat="48.68675" lon="6.12775">
        <ele>362</ele>
        <time>2013-07-14T10:35:09Z</time>
      </trkpt>
      <trkpt lat="48.68665" lon="6.12776">
        <ele>365</ele>
        <time>2013-07-14T10:35:11Z</time>
      </trkpt>
      <trkpt lat="48.68654" lon="6.12777">
        <ele>366</ele>
        <time>2013-07-14T10:35:13Z</time>
      </trkpt>
      <trkpt lat="48.68641" lon="6.12781">
        <ele>364</ele>
        <time>2013-07-14T10:35:15Z</time>
      </trkpt>
      <trkpt lat="48.68629" lon="6.12784">
        <ele>364</ele>
        <time>2013-07-14T10:35:17Z</time>
      </trkpt>
      <trkpt lat="48.68616" lon="6.12787">
        <ele>365</ele>
        <time>2013-07-14T10:35:19Z</time>
      </trkpt>
      <trkpt lat="48.68602" lon="6.12792">
        <ele>364</ele>
        <time>2013-07-14T10:35:21Z</time>
      </trkpt>
      <trkpt lat="48.68589" lon="6.12797">
        <ele>364</ele>
        <time>2013-07-14T10:35:23Z</time>
      </trkpt>
      <trkpt lat="48.68576" lon="6.12805">
        <ele>365</ele>
        <time>2013-07-14T10:35:25Z</time>
      </trkpt>
      <trkpt lat="48.68563" lon="6.12814">
        <ele>363</ele>
        <time>2013-07-14T10:35:27Z</time>
      </trkpt>
      <trkpt lat="48.68545" lon="6.12827">
        <ele>364</ele>
        <time>2013-07-14T10:35:30Z</time>
      </trkpt>
      <trkpt lat="48.68532" lon="6.12834">
        <ele>363</ele>
        <time>2013-07-14T10:35:32Z</time>
      </trkpt>
      <trkpt lat="48.68519" lon="6.12844">
        <ele>362</ele>
        <time>2013-07-14T10:35:34Z</time>
      </trkpt>
      <trkpt lat="48.68507" lon="6.12853">
        <ele>361</ele>
        <time>2013-07-14T10:35:36Z</time>
      </trkpt>
      <trkpt lat="48.68495" lon="6.12861">
        <ele>358</ele>
        <time>2013-07-14T10:35:38Z</time>
      </trkpt>
      <trkpt lat="48.68485" lon="6.12873">
        <ele>357</ele>
        <time>2013-07-14T10:35:40Z</time>
      </trkpt>
      <trkpt lat="48.68477" lon="6.12885">
        <ele>354</ele>
        <time>2013-07-14T10:35:42Z</time>
      </trkpt>
      <trkpt lat="48.68467" lon="6.12888">
        <ele>350</ele>
        <time>2013-07-14T10:35:44Z</time>
      </trkpt>
      <trkpt lat="48.68459" lon="6.12885">
        <ele>350</ele>
        <time>2013-07-14T10:35:46Z</time>
      </trkpt>
      <trkpt lat="48.68455" lon="6.12882">
        <ele>348</ele>
        <time>2013-07-14T10:35:48Z</time>
      </trkpt>
      <trkpt lat="48.68449" lon="6.12876">
        <ele>349</ele>
        <time>2013-07-14T10:35:50Z</time>
      </trkpt>
      <trkpt lat="48.68444" lon="6.1287">
        <ele>350</ele>
        <time>2013-07-14T10:35:52Z</time>
      </trkpt>
      <trkpt lat="48.68439" lon="6.12864">
        <ele>350</ele>
        <time>2013-07-14T10:35:54Z</time>
      </trkpt>
      <trkpt lat="48.68434" lon="6.1286">
        <ele>351</ele>
        <time>2013-07-14T10:35:56Z</time>
      </trkpt>
      <trkpt lat="48.68428" lon="6.12856">
        <ele>355</ele>
        <time>2013-07-14T10:35:58Z</time>
      </trkpt>
      <trkpt lat="48.68424" lon="6.1285">
        <ele>355</ele>
        <time>2013-07-14T10:36:00Z</time>
      </trkpt>
      <trkpt lat="48.68418" lon="6.12844">
        <ele>356</ele>
        <time>2013-07-14T10:36:02Z</time>
      </trkpt>
      <trkpt lat="48.68414" lon="6.12837">
        <ele>357</ele>
        <time>2013-07-14T10:36:04Z</time>
      </trkpt>
      <trkpt lat="48.68409" lon="6.12831">
        <ele>359</ele>
        <time>2013-07-14T10:36:06Z</time>
      </trkpt>
      <trkpt lat="48.68405" lon="6.12823">
        <ele>359</ele>
        <time>2013-07-14T10:36:08Z</time>
      </trkpt>
      <trkpt lat="48.684" lon="6.12818">
        <ele>360</ele>
        <time>2013-07-14T10:36:10Z</time>
      </trkpt>
      <trkpt lat="48.68394" lon="6.12813">
        <ele>361</ele>
        <time>2013-07-14T10:36:12Z</time>
      </trkpt>
      <trkpt lat="48.68388" lon="6.12809">
        <ele>361</ele>
        <time>2013-07-14T10:36:14Z</time>
      </trkpt>
      <trkpt lat="48.68383" lon="6.12802">
        <ele>361</ele>
        <time>2013-07-14T10:36:16Z</time>
      </trkpt>
      <trkpt lat="48.68378" lon="6.12796">
        <ele>361</ele>
        <time>2013-07-14T10:36:18Z</time>
      </trkpt>
      <trkpt lat="48.68373" lon="6.1279">
        <ele>365</ele>
        <time>2013-07-14T10:36:20Z</time>
      </trkpt>
      <trkpt lat="48.68367" lon="6.12786">
        <ele>368</ele>
        <time>2013-07-14T10:36:22Z</time>
      </trkpt>
      <trkpt lat="48.68362" lon="6.12781">
        <ele>367</ele>
        <time>2013-07-14T10:36:24Z</time>
      </trkpt>
      <trkpt lat="48.68355" lon="6.12777">
        <ele>368</ele>
        <time>2013-07-14T10:36:26Z</time>
      </trkpt>
      <trkpt lat="48.68349" lon="6.12774">
        <ele>369</ele>
        <time>2013-07-14T10:36:28Z</time>
      </trkpt>
      <trkpt lat="48.68344" lon="6.1277">
        <ele>372</ele>
        <time>2013-07-14T10:36:30Z</time>
      </trkpt>
      <trkpt lat="48.68338" lon="6.12765">
        <ele>371</ele>
        <time>2013-07-14T10:36:32Z</time>
      </trkpt>
      <trkpt lat="48.68333" lon="6.12759">
        <ele>374</ele>
        <time>2013-07-14T10:36:34Z</time>
      </trkpt>
      <trkpt lat="48.68328" lon="6.12752">
        <ele>372</ele>
        <time>2013-07-14T10:36:36Z</time>
      </trkpt>
      <trkpt lat="48.68323" lon="6.12746">
        <ele>372</ele>
        <time>2013-07-14T10:36:38Z</time>
      </trkpt>
      <trkpt lat="48.68319" lon="6.12738">
        <ele>373</ele>
        <time>2013-07-14T10:36:40Z</time>
      </trkpt>
      <trkpt lat="48.68316" lon="6.1273">
        <ele>374</ele>
        <time>2013-07-14T10:36:42Z</time>
      </trkpt>
      <trkpt lat="48.68312" lon="6.12721">
        <ele>374</ele>
        <time>2013-07-14T10:36:44Z</time>
      </trkpt>
      <trkpt lat="48.68308" lon="6.12712">
        <ele>372</ele>
        <time>2013-07-14T10:36:46Z</time>
      </trkpt>
      <trkpt lat="48.68302" lon="6.12697">
        <ele>371</ele>
        <time>2013-07-14T10:36:50Z</time>
      </trkpt>
      <trkpt lat="48.68299" lon="6.12689">
        <ele>374</ele>
        <time>2013-07-14T10:36:52Z</time>
      </trkpt>
      <trkpt lat="48.68296" lon="6.1268">
        <ele>373</ele>
        <time>2013-07-14T10:36:54Z</time>
      </trkpt>
      <trkpt lat="48.68293" lon="6.12674">
        <ele>375</ele>
        <time>2013-07-14T10:36:56Z</time>
      </trkpt>
      <trkpt lat="48.68285" lon="6.12668">
        <ele>379</ele>
        <time>2013-07-14T10:36:58Z</time>
      </trkpt>
      <trkpt lat="48.68275" lon="6.12667">
        <ele>375</ele>
        <time>2013-07-14T10:37:00Z</time>
      </trkpt>
      <trkpt lat="48.68261" lon="6.12663">
        <ele>370</ele>
        <time>2013-07-14T10:37:02Z</time>
      </trkpt>
      <trkpt lat="48.68251" lon="6.1266">
        <ele>368</ele>
        <time>2013-07-14T10:37:04Z</time>
      </trkpt>
      <trkpt lat="48.68242" lon="6.12654">
        <ele>366</ele>
        <time>2013-07-14T10:37:06Z</time>
      </trkpt>
      <trkpt lat="48.68234" lon="6.12648">
        <ele>366</ele>
        <time>2013-07-14T10:37:08Z</time>
      </trkpt>
      <trkpt lat="48.68227" lon="6.12641">
        <ele>367</ele>
        <time>2013-07-14T10:37:10Z</time>
      </trkpt>
      <trkpt lat="48.68221" lon="6.12633">
        <ele>366</ele>
        <time>2013-07-14T10:37:12Z</time>
      </trkpt>
      <trkpt lat="48.68215" lon="6.12626">
        <ele>366</ele>
        <time>2013-07-14T10:37:14Z</time>
      </trkpt>
      <trkpt lat="48.68209" lon="6.1262">
        <ele>367</ele>
        <time>2013-07-14T10:37:16Z</time>
      </trkpt>
      <trkpt lat="48.68202" lon="6.12613">
        <ele>366</ele>
        <time>2013-07-14T10:37:18Z</time>
      </trkpt>
      <trkpt lat="48.68195" lon="6.12607">
        <ele>367</ele>
        <time>2013-07-14T10:37:20Z</time>
      </trkpt>
      <trkpt lat="48.6819" lon="6.12601">
        <ele>370</ele>
        <time>2013-07-14T10:37:22Z</time>
      </trkpt>
      <trkpt lat="48.68184" lon="6.12596">
        <ele>371</ele>
        <time>2013-07-14T10:37:24Z</time>
      </trkpt>
      <trkpt lat="48.68177" lon="6.12589">
        <ele>374</ele>
        <time>2013-07-14T10:37:26Z</time>
      </trkpt>
      <trkpt lat="48.68171" lon="6.12581">
        <ele>376</ele>
        <time>2013-07-14T10:37:28Z</time>
      </trkpt>
      <trkpt lat="48.68166" lon="6.1257">
        <ele>376</ele>
        <time>2013-07-14T10:37:30Z</time>
      </trkpt>
      <trkpt lat="48.68163" lon="6.12558">
        <ele>377</ele>
        <time>2013-07-14T10:37:32Z</time>
      </trkpt>
      <trkpt lat="48.6816" lon="6.12549">
        <ele>377</ele>
        <time>2013-07-14T10:37:34Z</time>
      </trkpt>
      <trkpt lat="48.68157" lon="6.12541">
        <ele>379</ele>
        <time>2013-07-14T10:37:36Z</time>
      </trkpt>
      <trkpt lat="48.68153" lon="6.1253">
        <ele>382</ele>
        <time>2013-07-14T10:37:38Z</time>
      </trkpt>
      <trkpt lat="48.68151" lon="6.12517">
        <ele>382</ele>
        <time>2013-07-14T10:37:40Z</time>
      </trkpt>
      <trkpt lat="48.68147" lon="6.12502">
        <ele>385</ele>
        <time>2013-07-14T10:37:42Z</time>
      </trkpt>
      <trkpt lat="48.68144" lon="6.12489">
        <ele>384</ele>
        <time>2013-07-14T10:37:44Z</time>
      </trkpt>
      <trkpt lat="48.68139" lon="6.12476">
        <ele>384</ele>
        <time>2013-07-14T10:37:46Z</time>
      </trkpt>
      <trkpt lat="48.68136" lon="6.12463">
        <ele>384</ele>
        <time>2013-07-14T10:37:48Z</time>
      </trkpt>
      <trkpt lat="48.68133" lon="6.12447">
        <ele>379</ele>
        <time>2013-07-14T10:37:50Z</time>
      </trkpt>
      <trkpt lat="48.6813" lon="6.12434">
        <ele>382</ele>
        <time>2013-07-14T10:37:52Z</time>
      </trkpt>
      <trkpt lat="48.68127" lon="6.12419">
        <ele>382</ele>
        <time>2013-07-14T10:37:54Z</time>
      </trkpt>
      <trkpt lat="48.68125" lon="6.12406">
        <ele>388</ele>
        <time>2013-07-14T10:37:56Z</time>
      </trkpt>
      <trkpt lat="48.68122" lon="6.12393">
        <ele>382</ele>
        <time>2013-07-14T10:37:58Z</time>
      </trkpt>
      <trkpt lat="48.68119" lon="6.1238">
        <ele>388</ele>
        <time>2013-07-14T10:38:00Z</time>
      </trkpt>
      <trkpt lat="48.68116" lon="6.12367">
        <ele>386</ele>
        <time>2013-07-14T10:38:02Z</time>
      </trkpt>
      <trkpt lat="48.68111" lon="6.12354">
        <ele>387</ele>
        <time>2013-07-14T10:38:04Z</time>
      </trkpt>
      <trkpt lat="48.68107" lon="6.12343">
        <ele>388</ele>
        <time>2013-07-14T10:38:06Z</time>
      </trkpt>
      <trkpt lat="48.68102" lon="6.1233">
        <ele>387</ele>
        <time>2013-07-14T10:38:08Z</time>
      </trkpt>
      <trkpt lat="48.68096" lon="6.12316">
        <ele>384</ele>
        <time>2013-07-14T10:38:10Z</time>
      </trkpt>
      <trkpt lat="48.68091" lon="6.12302">
        <ele>383</ele>
        <time>2013-07-14T10:38:12Z</time>
      </trkpt>
      <trkpt lat="48.68085" lon="6.12288">
        <ele>381</ele>
        <time>2013-07-14T10:38:14Z</time>
      </trkpt>
      <trkpt lat="48.68082" lon="6.12274">
        <ele>382</ele>
        <time>2013-07-14T10:38:16Z</time>
      </trkpt>
      <trkpt lat="48.68079" lon="6.12261">
        <ele>380</ele>
        <time>2013-07-14T10:38:18Z</time>
      </trkpt>
      <trkpt lat="48.68073" lon="6.12249">
        <ele>382</ele>
        <time>2013-07-14T10:38:20Z</time>
      </trkpt>
      <trkpt lat="48.68067" lon="6.12234">
        <ele>383</ele>
        <time>2013-07-14T10:38:22Z</time>
      </trkpt>
      <trkpt lat="48.68063" lon="6.12219">
        <ele>382</ele>
        <time>2013-07-14T10:38:24Z</time>
      </trkpt>
      <trkpt lat="48.68059" lon="6.12205">
        <ele>381</ele>
        <time>2013-07-14T10:38:26Z</time>
      </trkpt>
      <trkpt lat="48.68055" lon="6.12191">
        <ele>383</ele>
        <time>2013-07-14T10:38:28Z</time>
      </trkpt>
      <trkpt lat="48.68053" lon="6.12178">
        <ele>383</ele>
        <time>2013-07-14T10:38:30Z</time>
      </trkpt>
      <trkpt lat="48.68049" lon="6.12165">
        <ele>386</ele>
        <time>2013-07-14T10:38:32Z</time>
      </trkpt>
      <trkpt lat="48.68045" lon="6.12152">
        <ele>385</ele>
        <time>2013-07-14T10:38:34Z</time>
      </trkpt>
      <trkpt lat="48.68041" lon="6.12138">
        <ele>383</ele>
        <time>2013-07-14T10:38:36Z</time>
      </trkpt>
      <trkpt lat="48.68036" lon="6.12123">
        <ele>381</ele>
        <time>2013-07-14T10:38:38Z</time>
      </trkpt>
      <trkpt lat="48.6803" lon="6.12109">
        <ele>378</ele>
        <time>2013-07-14T10:38:40Z</time>
      </trkpt>
      <trkpt lat="48.68026" lon="6.12096">
        <ele>377</ele>
        <time>2013-07-14T10:38:42Z</time>
      </trkpt>
      <trkpt lat="48.68021" lon="6.12083">
        <ele>374</ele>
        <time>2013-07-14T10:38:44Z</time>
      </trkpt>
      <trkpt lat="48.68016" lon="6.12068">
        <ele>370</ele>
        <time>2013-07-14T10:38:46Z</time>
      </trkpt>
      <trkpt lat="48.6801" lon="6.12052">
        <ele>368</ele>
        <time>2013-07-14T10:38:48Z</time>
      </trkpt>
      <trkpt lat="48.68005" lon="6.12035">
        <ele>367</ele>
        <time>2013-07-14T10:38:50Z</time>
      </trkpt>
      <trkpt lat="48.68001" lon="6.1202">
        <ele>369</ele>
        <time>2013-07-14T10:38:52Z</time>
      </trkpt>
      <trkpt lat="48.67994" lon="6.12005">
        <ele>361</ele>
        <time>2013-07-14T10:38:54Z</time>
      </trkpt>
      <trkpt lat="48.67984" lon="6.12">
        <ele>355</ele>
        <time>2013-07-14T10:38:56Z</time>
      </trkpt>
      <trkpt lat="48.67974" lon="6.12002">
        <ele>353</ele>
        <time>2013-07-14T10:38:58Z</time>
      </trkpt>
      <trkpt lat="48.67964" lon="6.12006">
        <ele>353</ele>
        <time>2013-07-14T10:39:00Z</time>
      </trkpt>
      <trkpt lat="48.67956" lon="6.12008">
        <ele>352</ele>
        <time>2013-07-14T10:39:02Z</time>
      </trkpt>
      <trkpt lat="48.67947" lon="6.12011">
        <ele>351</ele>
        <time>2013-07-14T10:39:04Z</time>
      </trkpt>
      <trkpt lat="48.67939" lon="6.12014">
        <ele>349</ele>
        <time>2013-07-14T10:39:06Z</time>
      </trkpt>
      <trkpt lat="48.6793" lon="6.12017">
        <ele>349</ele>
        <time>2013-07-14T10:39:08Z</time>
      </trkpt>
      <trkpt lat="48.67922" lon="6.1202">
        <ele>348</ele>
        <time>2013-07-14T10:39:10Z</time>
      </trkpt>
      <trkpt lat="48.67912" lon="6.12022">
        <ele>348</ele>
        <time>2013-07-14T10:39:12Z</time>
      </trkpt>
      <trkpt lat="48.67903" lon="6.12025">
        <ele>348</ele>
        <time>2013-07-14T10:39:14Z</time>
      </trkpt>
      <trkpt lat="48.67899" lon="6.12026">
        <ele>348</ele>
        <time>2013-07-14T10:39:15Z</time>
      </trkpt>
      <trkpt lat="48.67894" lon="6.12027">
        <ele>347</ele>
        <time>2013-07-14T10:39:16Z</time>
      </trkpt>
      <trkpt lat="48.6789" lon="6.12028">
        <ele>346</ele>
        <time>2013-07-14T10:39:17Z</time>
      </trkpt>
      <trkpt lat="48.67876" lon="6.12031">
        <ele>348</ele>
        <time>2013-07-14T10:39:20Z</time>
      </trkpt>
      <trkpt lat="48.67866" lon="6.12034">
        <ele>347</ele>
        <time>2013-07-14T10:39:22Z</time>
      </trkpt>
      <trkpt lat="48.67857" lon="6.12037">
        <ele>348</ele>
        <time>2013-07-14T10:39:24Z</time>
      </trkpt>
      <trkpt lat="48.67847" lon="6.12041">
        <ele>345</ele>
        <time>2013-07-14T10:39:26Z</time>
      </trkpt>
      <trkpt lat="48.67839" lon="6.12044">
        <ele>345</ele>
        <time>2013-07-14T10:39:28Z</time>
      </trkpt>
      <trkpt lat="48.6783" lon="6.12047">
        <ele>344</ele>
        <time>2013-07-14T10:39:30Z</time>
      </trkpt>
      <trkpt lat="48.6782" lon="6.12051">
        <ele>343</ele>
        <time>2013-07-14T10:39:32Z</time>
      </trkpt>
      <trkpt lat="48.6781" lon="6.12055">
        <ele>343</ele>
        <time>2013-07-14T10:39:34Z</time>
      </trkpt>
      <trkpt lat="48.67799" lon="6.12057">
        <ele>341</ele>
        <time>2013-07-14T10:39:36Z</time>
      </trkpt>
      <trkpt lat="48.67788" lon="6.1206">
        <ele>341</ele>
        <time>2013-07-14T10:39:38Z</time>
      </trkpt>
      <trkpt lat="48.67777" lon="6.12063">
        <ele>341</ele>
        <time>2013-07-14T10:39:40Z</time>
      </trkpt>
      <trkpt lat="48.67767" lon="6.12066">
        <ele>342</ele>
        <time>2013-07-14T10:39:42Z</time>
      </trkpt>
      <trkpt lat="48.67755" lon="6.12069">
        <ele>344</ele>
        <time>2013-07-14T10:39:44Z</time>
      </trkpt>
      <trkpt lat="48.67743" lon="6.12073">
        <ele>344</ele>
        <time>2013-07-14T10:39:46Z</time>
      </trkpt>
      <trkpt lat="48.67728" lon="6.12078">
        <ele>342</ele>
        <time>2013-07-14T10:39:48Z</time>
      </trkpt>
      <trkpt lat="48.67717" lon="6.12081">
        <ele>340</ele>
        <time>2013-07-14T10:39:50Z</time>
      </trkpt>
      <trkpt lat="48.67706" lon="6.12084">
        <ele>341</ele>
        <time>2013-07-14T10:39:52Z</time>
      </trkpt>
      <trkpt lat="48.67698" lon="6.12087">
        <ele>344</ele>
        <time>2013-07-14T10:39:54Z</time>
      </trkpt>
      <trkpt lat="48.6769" lon="6.12091">
        <ele>344</ele>
        <time>2013-07-14T10:39:56Z</time>
      </trkpt>
      <trkpt lat="48.67683" lon="6.12094">
        <ele>344</ele>
        <time>2013-07-14T10:39:58Z</time>
      </trkpt>
      <trkpt lat="48.67676" lon="6.12098">
        <ele>343</ele>
        <time>2013-07-14T10:40:00Z</time>
      </trkpt>
      <trkpt lat="48.67669" lon="6.12102">
        <ele>343</ele>
        <time>2013-07-14T10:40:02Z</time>
      </trkpt>
      <trkpt lat="48.67664" lon="6.12106">
        <ele>345</ele>
        <time>2013-07-14T10:40:04Z</time>
      </trkpt>
      <trkpt lat="48.67658" lon="6.12106">
        <ele>349</ele>
        <time>2013-07-14T10:40:06Z</time>
      </trkpt>
      <trkpt lat="48.67653" lon="6.12106">
        <ele>349</ele>
        <time>2013-07-14T10:40:08Z</time>
      </trkpt>
      <trkpt lat="48.67646" lon="6.12108">
        <ele>350</ele>
        <time>2013-07-14T10:40:10Z</time>
      </trkpt>
      <trkpt lat="48.67642" lon="6.12111">
        <ele>351</ele>
        <time>2013-07-14T10:40:12Z</time>
      </trkpt>
      <trkpt lat="48.67636" lon="6.12112">
        <ele>354</ele>
        <time>2013-07-14T10:40:14Z</time>
      </trkpt>
      <trkpt lat="48.6763" lon="6.12114">
        <ele>355</ele>
        <time>2013-07-14T10:40:16Z</time>
      </trkpt>
      <trkpt lat="48.67625" lon="6.12114">
        <ele>356</ele>
        <time>2013-07-14T10:40:18Z</time>
      </trkpt>
      <trkpt lat="48.67619" lon="6.12116">
        <ele>356</ele>
        <time>2013-07-14T10:40:20Z</time>
      </trkpt>
      <trkpt lat="48.67605" lon="6.1212">
        <ele>353</ele>
        <time>2013-07-14T10:40:24Z</time>
      </trkpt>
      <trkpt lat="48.67593" lon="6.12124">
        <ele>354</ele>
        <time>2013-07-14T10:40:26Z</time>
      </trkpt>
      <trkpt lat="48.67581" lon="6.12127">
        <ele>352</ele>
        <time>2013-07-14T10:40:28Z</time>
      </trkpt>
      <trkpt lat="48.6757" lon="6.1213">
        <ele>350</ele>
        <time>2013-07-14T10:40:30Z</time>
      </trkpt>
      <trkpt lat="48.67561" lon="6.12132">
        <ele>349</ele>
        <time>2013-07-14T10:40:32Z</time>
      </trkpt>
      <trkpt lat="48.67553" lon="6.12135">
        <ele>349</ele>
        <time>2013-07-14T10:40:34Z</time>
      </trkpt>
      <trkpt lat="48.67546" lon="6.12137">
        <ele>350</ele>
        <time>2013-07-14T10:40:36Z</time>
      </trkpt>
      <trkpt lat="48.67539" lon="6.12139">
        <ele>350</ele>
        <time>2013-07-14T10:40:38Z</time>
      </trkpt>
      <trkpt lat="48.67531" lon="6.12141">
        <ele>350</ele>
        <time>2013-07-14T10:40:40Z</time>
      </trkpt>
      <trkpt lat="48.67524" lon="6.12143">
        <ele>350</ele>
        <time>2013-07-14T10:40:42Z</time>
      </trkpt>
      <trkpt lat="48.67518" lon="6.12145">
        <ele>349</ele>
        <time>2013-07-14T10:40:44Z</time>
      </trkpt>
      <trkpt lat="48.67511" lon="6.12146">
        <ele>349</ele>
        <time>2013-07-14T10:40:46Z</time>
      </trkpt>
      <trkpt lat="48.67505" lon="6.12148">
        <ele>350</ele>
        <time>2013-07-14T10:40:48Z</time>
      </trkpt>
      <trkpt lat="48.67499" lon="6.1215">
        <ele>351</ele>
        <time>2013-07-14T10:40:50Z</time>
      </trkpt>
      <trkpt lat="48.67493" lon="6.12152">
        <ele>353</ele>
        <time>2013-07-14T10:40:52Z</time>
      </trkpt>
      <trkpt lat="48.67486" lon="6.12154">
        <ele>352</ele>
        <time>2013-07-14T10:40:54Z</time>
      </trkpt>
      <trkpt lat="48.6748" lon="6.12155">
        <ele>352</ele>
        <time>2013-07-14T10:40:56Z</time>
      </trkpt>
      <trkpt lat="48.67474" lon="6.12158">
        <ele>351</ele>
        <time>2013-07-14T10:40:58Z</time>
      </trkpt>
      <trkpt lat="48.67468" lon="6.1216">
        <ele>353</ele>
        <time>2013-07-14T10:41:00Z</time>
      </trkpt>
      <trkpt lat="48.67461" lon="6.12162">
        <ele>353</ele>
        <time>2013-07-14T10:41:02Z</time>
      </trkpt>
      <trkpt lat="48.67454" lon="6.12164">
        <ele>353</ele>
        <time>2013-07-14T10:41:04Z</time>
      </trkpt>
      <trkpt lat="48.67447" lon="6.12167">
        <ele>352</ele>
        <time>2013-07-14T10:41:06Z</time>
      </trkpt>
      <trkpt lat="48.6744" lon="6.1217">
        <ele>351</ele>
        <time>2013-07-14T10:41:08Z</time>
      </trkpt>
      <trkpt lat="48.67432" lon="6.12173">
        <ele>351</ele>
        <time>2013-07-14T10:41:10Z</time>
      </trkpt>
      <trkpt lat="48.67426" lon="6.12175">
        <ele>353</ele>
        <time>2013-07-14T10:41:12Z</time>
      </trkpt>
      <trkpt lat="48.67419" lon="6.12178">
        <ele>353</ele>
        <time>2013-07-14T10:41:14Z</time>
      </trkpt>
      <trkpt lat="48.67413" lon="6.12179">
        <ele>354</ele>
        <time>2013-07-14T10:41:16Z</time>
      </trkpt>
      <trkpt lat="48.67407" lon="6.12175">
        <ele>353</ele>
        <time>2013-07-14T10:41:18Z</time>
      </trkpt>
      <trkpt lat="48.67402" lon="6.12167">
        <ele>352</ele>
        <time>2013-07-14T10:41:20Z</time>
      </trkpt>
      <trkpt lat="48.67399" lon="6.12158">
        <ele>353</ele>
        <time>2013-07-14T10:41:22Z</time>
      </trkpt>
      <trkpt lat="48.67396" lon="6.12148">
        <ele>351</ele>
        <time>2013-07-14T10:41:24Z</time>
      </trkpt>
      <trkpt lat="48.67395" lon="6.12139">
        <ele>354</ele>
        <time>2013-07-14T10:41:26Z</time>
      </trkpt>
      <trkpt lat="48.67394" lon="6.12128">
        <ele>353</ele>
        <time>2013-07-14T10:41:28Z</time>
      </trkpt>
      <trkpt lat="48.67393" lon="6.12118">
        <ele>352</ele>
        <time>2013-07-14T10:41:30Z</time>
      </trkpt>
      <trkpt lat="48.67391" lon="6.12105">
        <ele>350</ele>
        <time>2013-07-14T10:41:32Z</time>
      </trkpt>
      <trkpt lat="48.67389" lon="6.12092">
        <ele>350</ele>
        <time>2013-07-14T10:41:34Z</time>
      </trkpt>
      <trkpt lat="48.67389" lon="6.12082">
        <ele>349</ele>
        <time>2013-07-14T10:41:36Z</time>
      </trkpt>
      <trkpt lat="48.6739" lon="6.12067">
        <ele>348</ele>
        <time>2013-07-14T10:41:38Z</time>
      </trkpt>
      <trkpt lat="48.67392" lon="6.12051">
        <ele>350</ele>
        <time>2013-07-14T10:41:40Z</time>
      </trkpt>
      <trkpt lat="48.67392" lon="6.12036">
        <ele>348</ele>
        <time>2013-07-14T10:41:42Z</time>
      </trkpt>
      <trkpt lat="48.67394" lon="6.12024">
        <ele>354</ele>
        <time>2013-07-14T10:41:44Z</time>
      </trkpt>
      <trkpt lat="48.67394" lon="6.12012">
        <ele>353</ele>
        <time>2013-07-14T10:41:46Z</time>
      </trkpt>
      <trkpt lat="48.67393" lon="6.12006">
        <ele>352</ele>
        <time>2013-07-14T10:41:48Z</time>
      </trkpt>
      <trkpt lat="48.6739" lon="6.12001">
        <ele>355</ele>
        <time>2013-07-14T10:41:50Z</time>
      </trkpt>
      <trkpt lat="48.67389" lon="6.11997">
        <ele>354</ele>
        <time>2013-07-14T10:41:52Z</time>
      </trkpt>
      <trkpt lat="48.6739" lon="6.11989">
        <ele>358</ele>
        <time>2013-07-14T10:41:54Z</time>
      </trkpt>
      <trkpt lat="48.67391" lon="6.11978">
        <ele>359</ele>
        <time>2013-07-14T10:41:56Z</time>
      </trkpt>
      <trkpt lat="48.67393" lon="6.11971">
        <ele>358</ele>
        <time>2013-07-14T10:41:58Z</time>
      </trkpt>
      <trkpt lat="48.67396" lon="6.11966">
        <ele>356</ele>
        <time>2013-07-14T10:42:00Z</time>
      </trkpt>
      <trkpt lat="48.674" lon="6.11958">
        <ele>354</ele>
        <time>2013-07-14T10:42:06Z</time>
      </trkpt>
      <trkpt lat="48.67405" lon="6.11928">
        <ele>360</ele>
        <time>2013-07-14T10:42:22Z</time>
      </trkpt>
      <trkpt lat="48.67404" lon="6.11913">
        <ele>363</ele>
        <time>2013-07-14T10:42:26Z</time>
      </trkpt>
      <trkpt lat="48.67404" lon="6.11905">
        <ele>359</ele>
        <time>2013-07-14T10:42:28Z</time>
      </trkpt>
      <trkpt lat="48.67405" lon="6.11895">
        <ele>362</ele>
        <time>2013-07-14T10:42:30Z</time>
      </trkpt>
      <trkpt lat="48.67405" lon="6.11883">
        <ele>364</ele>
        <time>2013-07-14T10:42:32Z</time>
      </trkpt>
      <trkpt lat="48.67405" lon="6.11875">
        <ele>359</ele>
        <time>2013-07-14T10:42:34Z</time>
      </trkpt>
      <trkpt lat="48.67407" lon="6.11863">
        <ele>358</ele>
        <time>2013-07-14T10:42:36Z</time>
      </trkpt>
      <trkpt lat="48.67407" lon="6.11852">
        <ele>358</ele>
        <time>2013-07-14T10:42:38Z</time>
      </trkpt>
      <trkpt lat="48.67408" lon="6.11839">
        <ele>359</ele>
        <time>2013-07-14T10:42:40Z</time>
      </trkpt>
      <trkpt lat="48.67408" lon="6.11823">
        <ele>360</ele>
        <time>2013-07-14T10:42:42Z</time>
      </trkpt>
      <trkpt lat="48.6741" lon="6.11808">
        <ele>363</ele>
        <time>2013-07-14T10:42:44Z</time>
      </trkpt>
      <trkpt lat="48.67412" lon="6.11792">
        <ele>361</ele>
        <time>2013-07-14T10:42:46Z</time>
      </trkpt>
      <trkpt lat="48.67415" lon="6.11775">
        <ele>361</ele>
        <time>2013-07-14T10:42:48Z</time>
      </trkpt>
      <trkpt lat="48.67417" lon="6.11762">
        <ele>357</ele>
        <time>2013-07-14T10:42:50Z</time>
      </trkpt>
      <trkpt lat="48.67418" lon="6.11745">
        <ele>358</ele>
        <time>2013-07-14T10:42:52Z</time>
      </trkpt>
      <trkpt lat="48.67418" lon="6.11728">
        <ele>359</ele>
        <time>2013-07-14T10:42:54Z</time>
      </trkpt>
      <trkpt lat="48.67419" lon="6.11712">
        <ele>360</ele>
        <time>2013-07-14T10:42:56Z</time>
      </trkpt>
      <trkpt lat="48.67422" lon="6.11694">
        <ele>358</ele>
        <time>2013-07-14T10:42:58Z</time>
      </trkpt>
      <trkpt lat="48.67424" lon="6.11677">
        <ele>360</ele>
        <time>2013-07-14T10:43:00Z</time>
      </trkpt>
      <trkpt lat="48.67423" lon="6.11663">
        <ele>360</ele>
        <time>2013-07-14T10:43:02Z</time>
      </trkpt>
      <trkpt lat="48.67423" lon="6.1165">
        <ele>359</ele>
        <time>2013-07-14T10:43:04Z</time>
      </trkpt>
      <trkpt lat="48.6742" lon="6.11638">
        <ele>359</ele>
        <time>2013-07-14T10:43:06Z</time>
      </trkpt>
      <trkpt lat="48.67416" lon="6.1163">
        <ele>359</ele>
        <time>2013-07-14T10:43:08Z</time>
      </trkpt>
      <trkpt lat="48.67412" lon="6.11619">
        <ele>360</ele>
        <time>2013-07-14T10:43:10Z</time>
      </trkpt>
      <trkpt lat="48.6741" lon="6.11608">
        <ele>359</ele>
        <time>2013-07-14T10:43:12Z</time>
      </trkpt>
      <trkpt lat="48.67408" lon="6.11599">
        <ele>354</ele>
        <time>2013-07-14T10:43:14Z</time>
      </trkpt>
      <trkpt lat="48.67407" lon="6.11591">
        <ele>359</ele>
        <time>2013-07-14T10:43:16Z</time>
      </trkpt>
      <trkpt lat="48.67404" lon="6.11584">
        <ele>359</ele>
        <time>2013-07-14T10:43:18Z</time>
      </trkpt>
      <trkpt lat="48.67399" lon="6.11579">
        <ele>357</ele>
        <time>2013-07-14T10:43:20Z</time>
      </trkpt>
      <trkpt lat="48.67394" lon="6.11573">
        <ele>351</ele>
        <time>2013-07-14T10:43:22Z</time>
      </trkpt>
      <trkpt lat="48.67391" lon="6.11566">
        <ele>352</ele>
        <time>2013-07-14T10:43:24Z</time>
      </trkpt>
      <trkpt lat="48.67388" lon="6.1156">
        <ele>350</ele>
        <time>2013-07-14T10:43:26Z</time>
      </trkpt>
      <trkpt lat="48.67386" lon="6.11551">
        <ele>349</ele>
        <time>2013-07-14T10:43:28Z</time>
      </trkpt>
      <trkpt lat="48.67385" lon="6.11542">
        <ele>352</ele>
        <time>2013-07-14T10:43:30Z</time>
      </trkpt>
      <trkpt lat="48.67381" lon="6.11522">
        <ele>341</ele>
        <time>2013-07-14T10:43:36Z</time>
      </trkpt>
      <trkpt lat="48.67379" lon="6.11516">
        <ele>336</ele>
        <time>2013-07-14T10:43:38Z</time>
      </trkpt>
      <trkpt lat="48.67378" lon="6.11512">
        <ele>335</ele>
        <time>2013-07-14T10:43:40Z</time>
      </trkpt>
      <trkpt lat="48.67376" lon="6.11503">
        <ele>333</ele>
        <time>2013-07-14T10:43:42Z</time>
      </trkpt>
      <trkpt lat="48.67373" lon="6.11496">
        <ele>331</ele>
        <time>2013-07-14T10:43:44Z</time>
      </trkpt>
      <trkpt lat="48.67371" lon="6.11489">
        <ele>330</ele>
        <time>2013-07-14T10:43:46Z</time>
      </trkpt>
      <trkpt lat="48.67371" lon="6.1148">
        <ele>330</ele>
        <time>2013-07-14T10:43:48Z</time>
      </trkpt>
      <trkpt lat="48.67372" lon="6.11472">
        <ele>330</ele>
        <time>2013-07-14T10:43:50Z</time>
      </trkpt>
      <trkpt lat="48.67372" lon="6.11468">
        <ele>322</ele>
        <time>2013-07-14T10:43:52Z</time>
      </trkpt>
      <trkpt lat="48.67372" lon="6.11464">
        <ele>318</ele>
        <time>2013-07-14T10:43:56Z</time>
      </trkpt>
      <trkpt lat="48.67375" lon="6.11461">
        <ele>321</ele>
        <time>2013-07-14T10:43:58Z</time>
      </trkpt>
      <trkpt lat="48.67379" lon="6.11457">
        <ele>320</ele>
        <time>2013-07-14T10:44:00Z</time>
      </trkpt>
      <trkpt lat="48.67384" lon="6.11454">
        <ele>322</ele>
        <time>2013-07-14T10:44:02Z</time>
      </trkpt>
      <trkpt lat="48.67392" lon="6.1145">
        <ele>322</ele>
        <time>2013-07-14T10:44:04Z</time>
      </trkpt>
      <trkpt lat="48.67402" lon="6.11446">
        <ele>327</ele>
        <time>2013-07-14T10:44:06Z</time>
      </trkpt>
      <trkpt lat="48.6741" lon="6.1144">
        <ele>330</ele>
        <time>2013-07-14T10:44:08Z</time>
      </trkpt>
      <trkpt lat="48.67419" lon="6.11438">
        <ele>328</ele>
        <time>2013-07-14T10:44:10Z</time>
      </trkpt>
      <trkpt lat="48.67428" lon="6.11435">
        <ele>331</ele>
        <time>2013-07-14T10:44:12Z</time>
      </trkpt>
      <trkpt lat="48.67438" lon="6.11434">
        <ele>333</ele>
        <time>2013-07-14T10:44:14Z</time>
      </trkpt>
      <trkpt lat="48.67447" lon="6.11431">
        <ele>336</ele>
        <time>2013-07-14T10:44:16Z</time>
      </trkpt>
      <trkpt lat="48.67457" lon="6.11428">
        <ele>337</ele>
        <time>2013-07-14T10:44:18Z</time>
      </trkpt>
      <trkpt lat="48.67468" lon="6.11427">
        <ele>337</ele>
        <time>2013-07-14T10:44:20Z</time>
      </trkpt>
      <trkpt lat="48.67478" lon="6.11425">
        <ele>338</ele>
        <time>2013-07-14T10:44:22Z</time>
      </trkpt>
      <trkpt lat="48.67487" lon="6.11423">
        <ele>338</ele>
        <time>2013-07-14T10:44:24Z</time>
      </trkpt>
      <trkpt lat="48.67495" lon="6.11421">
        <ele>350</ele>
        <time>2013-07-14T10:44:26Z</time>
      </trkpt>
      <trkpt lat="48.67503" lon="6.11419">
        <ele>350</ele>
        <time>2013-07-14T10:44:28Z</time>
      </trkpt>
      <trkpt lat="48.67513" lon="6.11417">
        <ele>347</ele>
        <time>2013-07-14T10:44:30Z</time>
      </trkpt>
      <trkpt lat="48.67522" lon="6.11413">
        <ele>348</ele>
        <time>2013-07-14T10:44:32Z</time>
      </trkpt>
      <trkpt lat="48.67532" lon="6.11411">
        <ele>349</ele>
        <time>2013-07-14T10:44:34Z</time>
      </trkpt>
      <trkpt lat="48.67543" lon="6.11409">
        <ele>349</ele>
        <time>2013-07-14T10:44:36Z</time>
      </trkpt>
      <trkpt lat="48.67553" lon="6.11407">
        <ele>349</ele>
        <time>2013-07-14T10:44:38Z</time>
      </trkpt>
      <trkpt lat="48.67564" lon="6.11404">
        <ele>350</ele>
        <time>2013-07-14T10:44:40Z</time>
      </trkpt>
      <trkpt lat="48.67574" lon="6.11404">
        <ele>353</ele>
        <time>2013-07-14T10:44:42Z</time>
      </trkpt>
      <trkpt lat="48.67585" lon="6.11403">
        <ele>352</ele>
        <time>2013-07-14T10:44:44Z</time>
      </trkpt>
      <trkpt lat="48.67595" lon="6.11401">
        <ele>353</ele>
        <time>2013-07-14T10:44:46Z</time>
      </trkpt>
      <trkpt lat="48.67606" lon="6.114">
        <ele>352</ele>
        <time>2013-07-14T10:44:48Z</time>
      </trkpt>
      <trkpt lat="48.67616" lon="6.11398">
        <ele>353</ele>
        <time>2013-07-14T10:44:50Z</time>
      </trkpt>
      <trkpt lat="48.67627" lon="6.11397">
        <ele>353</ele>
        <time>2013-07-14T10:44:52Z</time>
      </trkpt>
      <trkpt lat="48.67638" lon="6.11398">
        <ele>352</ele>
        <time>2013-07-14T10:44:54Z</time>
      </trkpt>
      <trkpt lat="48.67648" lon="6.11398">
        <ele>348</ele>
        <time>2013-07-14T10:44:56Z</time>
      </trkpt>
      <trkpt lat="48.67655" lon="6.11401">
        <ele>356</ele>
        <time>2013-07-14T10:44:58Z</time>
      </trkpt>
      <trkpt lat="48.67664" lon="6.11404">
        <ele>356</ele>
        <time>2013-07-14T10:45:00Z</time>
      </trkpt>
      <trkpt lat="48.6767" lon="6.1141">
        <ele>356</ele>
        <time>2013-07-14T10:45:02Z</time>
      </trkpt>
      <trkpt lat="48.67674" lon="6.11421">
        <ele>351</ele>
        <time>2013-07-14T10:45:04Z</time>
      </trkpt>
      <trkpt lat="48.6768" lon="6.11427">
        <ele>345</ele>
        <time>2013-07-14T10:45:06Z</time>
      </trkpt>
      <trkpt lat="48.67687" lon="6.11432">
        <ele>347</ele>
        <time>2013-07-14T10:45:08Z</time>
      </trkpt>
      <trkpt lat="48.67692" lon="6.11435">
        <ele>341</ele>
        <time>2013-07-14T10:45:10Z</time>
      </trkpt>
      <trkpt lat="48.677" lon="6.11437">
        <ele>349</ele>
        <time>2013-07-14T10:45:12Z</time>
      </trkpt>
      <trkpt lat="48.67708" lon="6.11437">
        <ele>349</ele>
        <time>2013-07-14T10:45:14Z</time>
      </trkpt>
      <trkpt lat="48.67716" lon="6.11439">
        <ele>352</ele>
        <time>2013-07-14T10:45:16Z</time>
      </trkpt>
      <trkpt lat="48.67722" lon="6.11441">
        <ele>350</ele>
        <time>2013-07-14T10:45:18Z</time>
      </trkpt>
      <trkpt lat="48.6773" lon="6.11442">
        <ele>354</ele>
        <time>2013-07-14T10:45:20Z</time>
      </trkpt>
      <trkpt lat="48.67735" lon="6.1144">
        <ele>357</ele>
        <time>2013-07-14T10:45:22Z</time>
      </trkpt>
      <trkpt lat="48.6774" lon="6.1144">
        <ele>352</ele>
        <time>2013-07-14T10:45:24Z</time>
      </trkpt>
      <trkpt lat="48.67743" lon="6.11442">
        <ele>360</ele>
        <time>2013-07-14T10:45:26Z</time>
      </trkpt>
      <trkpt lat="48.67748" lon="6.11443">
        <ele>359</ele>
        <time>2013-07-14T10:45:28Z</time>
      </trkpt>
      <trkpt lat="48.67751" lon="6.11445">
        <ele>361</ele>
        <time>2013-07-14T10:45:30Z</time>
      </trkpt>
      <trkpt lat="48.67755" lon="6.11444">
        <ele>355</ele>
        <time>2013-07-14T10:45:32Z</time>
      </trkpt>
      <trkpt lat="48.67759" lon="6.11444">
        <ele>362</ele>
        <time>2013-07-14T10:45:34Z</time>
      </trkpt>
      <trkpt lat="48.67764" lon="6.11445">
        <ele>366</ele>
        <time>2013-07-14T10:45:36Z</time>
      </trkpt>
      <trkpt lat="48.6777" lon="6.11445">
        <ele>373</ele>
        <time>2013-07-14T10:45:38Z</time>
      </trkpt>
      <trkpt lat="48.67777" lon="6.11444">
        <ele>373</ele>
        <time>2013-07-14T10:45:40Z</time>
      </trkpt>
      <trkpt lat="48.67784" lon="6.11444">
        <ele>369</ele>
        <time>2013-07-14T10:45:42Z</time>
      </trkpt>
      <trkpt lat="48.6779" lon="6.11441">
        <ele>372</ele>
        <time>2013-07-14T10:45:44Z</time>
      </trkpt>
      <trkpt lat="48.67797" lon="6.11438">
        <ele>369</ele>
        <time>2013-07-14T10:45:46Z</time>
      </trkpt>
      <trkpt lat="48.67804" lon="6.11437">
        <ele>373</ele>
        <time>2013-07-14T10:45:48Z</time>
      </trkpt>
      <trkpt lat="48.6781" lon="6.11436">
        <ele>373</ele>
        <time>2013-07-14T10:45:50Z</time>
      </trkpt>
      <trkpt lat="48.67817" lon="6.11434">
        <ele>370</ele>
        <time>2013-07-14T10:45:52Z</time>
      </trkpt>
      <trkpt lat="48.67823" lon="6.11434">
        <ele>373</ele>
        <time>2013-07-14T10:45:54Z</time>
      </trkpt>
      <trkpt lat="48.67828" lon="6.11429">
        <ele>372</ele>
        <time>2013-07-14T10:45:56Z</time>
      </trkpt>
      <trkpt lat="48.67832" lon="6.11428">
        <ele>379</ele>
        <time>2013-07-14T10:45:58Z</time>
      </trkpt>
      <trkpt lat="48.67838" lon="6.11427">
        <ele>373</ele>
        <time>2013-07-14T10:46:00Z</time>
      </trkpt>
      <trkpt lat="48.67845" lon="6.11424">
        <ele>369</ele>
        <time>2013-07-14T10:46:02Z</time>
      </trkpt>
      <trkpt lat="48.67852" lon="6.1142">
        <ele>362</ele>
        <time>2013-07-14T10:46:04Z</time>
      </trkpt>
      <trkpt lat="48.6786" lon="6.11416">
        <ele>345</ele>
        <time>2013-07-14T10:46:06Z</time>
      </trkpt>
      <trkpt lat="48.67866" lon="6.11411">
        <ele>341</ele>
        <time>2013-07-14T10:46:08Z</time>
      </trkpt>
      <trkpt lat="48.67871" lon="6.11406">
        <ele>341</ele>
        <time>2013-07-14T10:46:10Z</time>
      </trkpt>
      <trkpt lat="48.67876" lon="6.11399">
        <ele>340</ele>
        <time>2013-07-14T10:46:12Z</time>
      </trkpt>
      <trkpt lat="48.6788" lon="6.11394">
        <ele>339</ele>
        <time>2013-07-14T10:46:14Z</time>
      </trkpt>
      <trkpt lat="48.67883" lon="6.11387">
        <ele>336</ele>
        <time>2013-07-14T10:46:16Z</time>
      </trkpt>
      <trkpt lat="48.67884" lon="6.1138">
        <ele>336</ele>
        <time>2013-07-14T10:46:18Z</time>
      </trkpt>
      <trkpt lat="48.67886" lon="6.11372">
        <ele>334</ele>
        <time>2013-07-14T10:46:20Z</time>
      </trkpt>
      <trkpt lat="48.67886" lon="6.11363">
        <ele>330</ele>
        <time>2013-07-14T10:46:22Z</time>
      </trkpt>
      <trkpt lat="48.67884" lon="6.11353">
        <ele>327</ele>
        <time>2013-07-14T10:46:24Z</time>
      </trkpt>
      <trkpt lat="48.67883" lon="6.11343">
        <ele>328</ele>
        <time>2013-07-14T10:46:26Z</time>
      </trkpt>
      <trkpt lat="48.67883" lon="6.11334">
        <ele>328</ele>
        <time>2013-07-14T10:46:28Z</time>
      </trkpt>
      <trkpt lat="48.67883" lon="6.11327">
        <ele>326</ele>
        <time>2013-07-14T10:46:30Z</time>
      </trkpt>
      <trkpt lat="48.67884" lon="6.11319">
        <ele>328</ele>
        <time>2013-07-14T10:46:32Z</time>
      </trkpt>
      <trkpt lat="48.67884" lon="6.11311">
        <ele>326</ele>
        <time>2013-07-14T10:46:34Z</time>
      </trkpt>
      <trkpt lat="48.67885" lon="6.11303">
        <ele>326</ele>
        <time>2013-07-14T10:46:36Z</time>
      </trkpt>
      <trkpt lat="48.67886" lon="6.11296">
        <ele>326</ele>
        <time>2013-07-14T10:46:38Z</time>
      </trkpt>
      <trkpt lat="48.67885" lon="6.1129">
        <ele>327</ele>
        <time>2013-07-14T10:46:40Z</time>
      </trkpt>
      <trkpt lat="48.67884" lon="6.11283">
        <ele>329</ele>
        <time>2013-07-14T10:46:42Z</time>
      </trkpt>
      <trkpt lat="48.67884" lon="6.11278">
        <ele>331</ele>
        <time>2013-07-14T10:46:44Z</time>
      </trkpt>
      <trkpt lat="48.67883" lon="6.11273">
        <ele>334</ele>
        <time>2013-07-14T10:46:46Z</time>
      </trkpt>
      <trkpt lat="48.67881" lon="6.11269">
        <ele>331</ele>
        <time>2013-07-14T10:46:48Z</time>
      </trkpt>
      <trkpt lat="48.6788" lon="6.11263">
        <ele>333</ele>
        <time>2013-07-14T10:46:50Z</time>
      </trkpt>
      <trkpt lat="48.6788" lon="6.11255">
        <ele>334</ele>
        <time>2013-07-14T10:46:52Z</time>
      </trkpt>
      <trkpt lat="48.67881" lon="6.11248">
        <ele>336</ele>
        <time>2013-07-14T10:46:54Z</time>
      </trkpt>
      <trkpt lat="48.67882" lon="6.11241">
        <ele>339</ele>
        <time>2013-07-14T10:46:56Z</time>
      </trkpt>
      <trkpt lat="48.67882" lon="6.11233">
        <ele>340</ele>
        <time>2013-07-14T10:46:58Z</time>
      </trkpt>
      <trkpt lat="48.67881" lon="6.11227">
        <ele>341</ele>
        <time>2013-07-14T10:47:00Z</time>
      </trkpt>
      <trkpt lat="48.6788" lon="6.11219">
        <ele>340</ele>
        <time>2013-07-14T10:47:02Z</time>
      </trkpt>
      <trkpt lat="48.67879" lon="6.11211">
        <ele>339</ele>
        <time>2013-07-14T10:47:04Z</time>
      </trkpt>
      <trkpt lat="48.67879" lon="6.11203">
        <ele>340</ele>
        <time>2013-07-14T10:47:06Z</time>
      </trkpt>
      <trkpt lat="48.67878" lon="6.11195">
        <ele>342</ele>
        <time>2013-07-14T10:47:08Z</time>
      </trkpt>
      <trkpt lat="48.67878" lon="6.11188">
        <ele>343</ele>
        <time>2013-07-14T10:47:10Z</time>
      </trkpt>
      <trkpt lat="48.67877" lon="6.1118">
        <ele>345</ele>
        <time>2013-07-14T10:47:12Z</time>
      </trkpt>
      <trkpt lat="48.67876" lon="6.1117">
        <ele>345</ele>
        <time>2013-07-14T10:47:14Z</time>
      </trkpt>
      <trkpt lat="48.67876" lon="6.11163">
        <ele>342</ele>
        <time>2013-07-14T10:47:16Z</time>
      </trkpt>
      <trkpt lat="48.67875" lon="6.11156">
        <ele>341</ele>
        <time>2013-07-14T10:47:18Z</time>
      </trkpt>
      <trkpt lat="48.67874" lon="6.11148">
        <ele>343</ele>
        <time>2013-07-14T10:47:20Z</time>
      </trkpt>
      <trkpt lat="48.67874" lon="6.1114">
        <ele>343</ele>
        <time>2013-07-14T10:47:22Z</time>
      </trkpt>
      <trkpt lat="48.67873" lon="6.11134">
        <ele>349</ele>
        <time>2013-07-14T10:47:24Z</time>
      </trkpt>
      <trkpt lat="48.67872" lon="6.11128">
        <ele>345</ele>
        <time>2013-07-14T10:47:26Z</time>
      </trkpt>
      <trkpt lat="48.67872" lon="6.11122">
        <ele>346</ele>
        <time>2013-07-14T10:47:28Z</time>
      </trkpt>
      <trkpt lat="48.67871" lon="6.11116">
        <ele>348</ele>
        <time>2013-07-14T10:47:30Z</time>
      </trkpt>
      <trkpt lat="48.6787" lon="6.1111">
        <ele>347</ele>
        <time>2013-07-14T10:47:32Z</time>
      </trkpt>
      <trkpt lat="48.67869" lon="6.11105">
        <ele>346</ele>
        <time>2013-07-14T10:47:34Z</time>
      </trkpt>
      <trkpt lat="48.67867" lon="6.111">
        <ele>349</ele>
        <time>2013-07-14T10:47:36Z</time>
      </trkpt>
      <trkpt lat="48.67866" lon="6.11093">
        <ele>355</ele>
        <time>2013-07-14T10:47:38Z</time>
      </trkpt>
      <trkpt lat="48.67866" lon="6.11085">
        <ele>359</ele>
        <time>2013-07-14T10:47:40Z</time>
      </trkpt>
      <trkpt lat="48.67865" lon="6.11077">
        <ele>357</ele>
        <time>2013-07-14T10:47:42Z</time>
      </trkpt>
      <trkpt lat="48.67865" lon="6.11069">
        <ele>354</ele>
        <time>2013-07-14T10:47:44Z</time>
      </trkpt>
      <trkpt lat="48.67865" lon="6.11062">
        <ele>353</ele>
        <time>2013-07-14T10:47:46Z</time>
      </trkpt>
      <trkpt lat="48.67864" lon="6.11056">
        <ele>352</ele>
        <time>2013-07-14T10:47:48Z</time>
      </trkpt>
      <trkpt lat="48.67864" lon="6.1105">
        <ele>356</ele>
        <time>2013-07-14T10:47:50Z</time>
      </trkpt>
      <trkpt lat="48.67864" lon="6.11042">
        <ele>358</ele>
        <time>2013-07-14T10:47:52Z</time>
      </trkpt>
      <trkpt lat="48.67864" lon="6.11035">
        <ele>357</ele>
        <time>2013-07-14T10:47:54Z</time>
      </trkpt>
      <trkpt lat="48.67864" lon="6.11027">
        <ele>359</ele>
        <time>2013-07-14T10:47:56Z</time>
      </trkpt>
      <trkpt lat="48.67863" lon="6.11019">
        <ele>360</ele>
        <time>2013-07-14T10:47:58Z</time>
      </trkpt>
      <trkpt lat="48.67862" lon="6.11012">
        <ele>360</ele>
        <time>2013-07-14T10:48:00Z</time>
      </trkpt>
      <trkpt lat="48.6786" lon="6.11005">
        <ele>358</ele>
        <time>2013-07-14T10:48:02Z</time>
      </trkpt>
      <trkpt lat="48.67859" lon="6.10996">
        <ele>356</ele>
        <time>2013-07-14T10:48:04Z</time>
      </trkpt>
      <trkpt lat="48.67857" lon="6.10989">
        <ele>359</ele>
        <time>2013-07-14T10:48:06Z</time>
      </trkpt>
      <trkpt lat="48.67856" lon="6.1098">
        <ele>359</ele>
        <time>2013-07-14T10:48:08Z</time>
      </trkpt>
      <trkpt lat="48.67855" lon="6.1097">
        <ele>362</ele>
        <time>2013-07-14T10:48:10Z</time>
      </trkpt>
      <trkpt lat="48.67855" lon="6.10959">
        <ele>360</ele>
        <time>2013-07-14T10:48:12Z</time>
      </trkpt>
      <trkpt lat="48.67854" lon="6.10947">
        <ele>354</ele>
        <time>2013-07-14T10:48:14Z</time>
      </trkpt>
      <trkpt lat="48.67851" lon="6.10935">
        <ele>354</ele>
        <time>2013-07-14T10:48:16Z</time>
      </trkpt>
      <trkpt lat="48.67847" lon="6.10922">
        <ele>354</ele>
        <time>2013-07-14T10:48:18Z</time>
      </trkpt>
      <trkpt lat="48.67845" lon="6.10909">
        <ele>353</ele>
        <time>2013-07-14T10:48:20Z</time>
      </trkpt>
      <trkpt lat="48.67843" lon="6.10896">
        <ele>352</ele>
        <time>2013-07-14T10:48:22Z</time>
      </trkpt>
      <trkpt lat="48.67844" lon="6.10885">
        <ele>350</ele>
        <time>2013-07-14T10:48:24Z</time>
      </trkpt>
      <trkpt lat="48.67843" lon="6.10872">
        <ele>347</ele>
        <time>2013-07-14T10:48:26Z</time>
      </trkpt>
      <trkpt lat="48.67841" lon="6.10861">
        <ele>346</ele>
        <time>2013-07-14T10:48:28Z</time>
      </trkpt>
      <trkpt lat="48.67838" lon="6.10849">
        <ele>344</ele>
        <time>2013-07-14T10:48:30Z</time>
      </trkpt>
      <trkpt lat="48.67837" lon="6.10837">
        <ele>343</ele>
        <time>2013-07-14T10:48:32Z</time>
      </trkpt>
      <trkpt lat="48.67836" lon="6.10825">
        <ele>343</ele>
        <time>2013-07-14T10:48:34Z</time>
      </trkpt>
      <trkpt lat="48.67835" lon="6.10813">
        <ele>343</ele>
        <time>2013-07-14T10:48:36Z</time>
      </trkpt>
      <trkpt lat="48.67834" lon="6.10799">
        <ele>342</ele>
        <time>2013-07-14T10:48:38Z</time>
      </trkpt>
      <trkpt lat="48.67833" lon="6.10787">
        <ele>342</ele>
        <time>2013-07-14T10:48:40Z</time>
      </trkpt>
      <trkpt lat="48.67833" lon="6.10775">
        <ele>342</ele>
        <time>2013-07-14T10:48:42Z</time>
      </trkpt>
      <trkpt lat="48.6783" lon="6.10762">
        <ele>341</ele>
        <time>2013-07-14T10:48:44Z</time>
      </trkpt>
      <trkpt lat="48.67828" lon="6.10749">
        <ele>339</ele>
        <time>2013-07-14T10:48:46Z</time>
      </trkpt>
      <trkpt lat="48.67826" lon="6.10737">
        <ele>338</ele>
        <time>2013-07-14T10:48:48Z</time>
      </trkpt>
      <trkpt lat="48.67826" lon="6.10724">
        <ele>339</ele>
        <time>2013-07-14T10:48:50Z</time>
      </trkpt>
      <trkpt lat="48.67823" lon="6.10712">
        <ele>340</ele>
        <time>2013-07-14T10:48:52Z</time>
      </trkpt>
      <trkpt lat="48.67821" lon="6.107">
        <ele>339</ele>
        <time>2013-07-14T10:48:54Z</time>
      </trkpt>
      <trkpt lat="48.67819" lon="6.10686">
        <ele>337</ele>
        <time>2013-07-14T10:48:56Z</time>
      </trkpt>
      <trkpt lat="48.67816" lon="6.10672">
        <ele>339</ele>
        <time>2013-07-14T10:48:58Z</time>
      </trkpt>
      <trkpt lat="48.67814" lon="6.1066">
        <ele>340</ele>
        <time>2013-07-14T10:49:00Z</time>
      </trkpt>
      <trkpt lat="48.67813" lon="6.10646">
        <ele>339</ele>
        <time>2013-07-14T10:49:02Z</time>
      </trkpt>
      <trkpt lat="48.67811" lon="6.10631">
        <ele>340</ele>
        <time>2013-07-14T10:49:04Z</time>
      </trkpt>
      <trkpt lat="48.67809" lon="6.10616">
        <ele>340</ele>
        <time>2013-07-14T10:49:06Z</time>
      </trkpt>
      <trkpt lat="48.67806" lon="6.10601">
        <ele>339</ele>
        <time>2013-07-14T10:49:08Z</time>
      </trkpt>
      <trkpt lat="48.67803" lon="6.10585">
        <ele>339</ele>
        <time>2013-07-14T10:49:10Z</time>
      </trkpt>
      <trkpt lat="48.67801" lon="6.10569">
        <ele>339</ele>
        <time>2013-07-14T10:49:12Z</time>
      </trkpt>
      <trkpt lat="48.67798" lon="6.10552">
        <ele>338</ele>
        <time>2013-07-14T10:49:14Z</time>
      </trkpt>
      <trkpt lat="48.67795" lon="6.10538">
        <ele>336</ele>
        <time>2013-07-14T10:49:16Z</time>
      </trkpt>
      <trkpt lat="48.67793" lon="6.10522">
        <ele>335</ele>
        <time>2013-07-14T10:49:18Z</time>
      </trkpt>
      <trkpt lat="48.6779" lon="6.10507">
        <ele>336</ele>
        <time>2013-07-14T10:49:20Z</time>
      </trkpt>
      <trkpt lat="48.67787" lon="6.10492">
        <ele>338</ele>
        <time>2013-07-14T10:49:22Z</time>
      </trkpt>
      <trkpt lat="48.67785" lon="6.10477">
        <ele>338</ele>
        <time>2013-07-14T10:49:24Z</time>
      </trkpt>
      <trkpt lat="48.67782" lon="6.1046">
        <ele>338</ele>
        <time>2013-07-14T10:49:26Z</time>
      </trkpt>
      <trkpt lat="48.6778" lon="6.10443">
        <ele>335</ele>
        <time>2013-07-14T10:49:28Z</time>
      </trkpt>
      <trkpt lat="48.67777" lon="6.10427">
        <ele>333</ele>
        <time>2013-07-14T10:49:30Z</time>
      </trkpt>
      <trkpt lat="48.67774" lon="6.10408">
        <ele>333</ele>
        <time>2013-07-14T10:49:32Z</time>
      </trkpt>
      <trkpt lat="48.67771" lon="6.10387">
        <ele>334</ele>
        <time>2013-07-14T10:49:34Z</time>
      </trkpt>
      <trkpt lat="48.67769" lon="6.10369">
        <ele>333</ele>
        <time>2013-07-14T10:49:36Z</time>
      </trkpt>
      <trkpt lat="48.67767" lon="6.1035">
        <ele>335</ele>
        <time>2013-07-14T10:49:38Z</time>
      </trkpt>
      <trkpt lat="48.67766" lon="6.1033">
        <ele>337</ele>
        <time>2013-07-14T10:49:40Z</time>
      </trkpt>
      <trkpt lat="48.67765" lon="6.10309">
        <ele>336</ele>
        <time>2013-07-14T10:49:42Z</time>
      </trkpt>
      <trkpt lat="48.67762" lon="6.1029">
        <ele>338</ele>
        <time>2013-07-14T10:49:44Z</time>
      </trkpt>
      <trkpt lat="48.67759" lon="6.10275">
        <ele>340</ele>
        <time>2013-07-14T10:49:46Z</time>
      </trkpt>
      <trkpt lat="48.67756" lon="6.10265">
        <ele>343</ele>
        <time>2013-07-14T10:49:50Z</time>
      </trkpt>
      <trkpt lat="48.67749" lon="6.10248">
        <ele>346</ele>
        <time>2013-07-14T10:49:54Z</time>
      </trkpt>
      <trkpt lat="48.67743" lon="6.1023">
        <ele>349</ele>
        <time>2013-07-14T10:49:58Z</time>
      </trkpt>
      <trkpt lat="48.6774" lon="6.10222">
        <ele>351</ele>
        <time>2013-07-14T10:50:00Z</time>
      </trkpt>
      <trkpt lat="48.67738" lon="6.10214">
        <ele>350</ele>
        <time>2013-07-14T10:50:02Z</time>
      </trkpt>
      <trkpt lat="48.67737" lon="6.10206">
        <ele>352</ele>
        <time>2013-07-14T10:50:04Z</time>
      </trkpt>
      <trkpt lat="48.67736" lon="6.10198">
        <ele>346</ele>
        <time>2013-07-14T10:50:06Z</time>
      </trkpt>
      <trkpt lat="48.67735" lon="6.1019">
        <ele>347</ele>
        <time>2013-07-14T10:50:08Z</time>
      </trkpt>
      <trkpt lat="48.67735" lon="6.1018">
        <ele>346</ele>
        <time>2013-07-14T10:50:10Z</time>
      </trkpt>
      <trkpt lat="48.67734" lon="6.1017">
        <ele>346</ele>
        <time>2013-07-14T10:50:12Z</time>
      </trkpt>
      <trkpt lat="48.67733" lon="6.1016">
        <ele>346</ele>
        <time>2013-07-14T10:50:14Z</time>
      </trkpt>
      <trkpt lat="48.67733" lon="6.10151">
        <ele>344</ele>
        <time>2013-07-14T10:50:16Z</time>
      </trkpt>
      <trkpt lat="48.67732" lon="6.10142">
        <ele>345</ele>
        <time>2013-07-14T10:50:18Z</time>
      </trkpt>
      <trkpt lat="48.67735" lon="6.10135">
        <ele>345</ele>
        <time>2013-07-14T10:50:20Z</time>
      </trkpt>
      <trkpt lat="48.67736" lon="6.10128">
        <ele>349</ele>
        <time>2013-07-14T10:50:22Z</time>
      </trkpt>
      <trkpt lat="48.67738" lon="6.10119">
        <ele>351</ele>
        <time>2013-07-14T10:50:24Z</time>
      </trkpt>
      <trkpt lat="48.67741" lon="6.10109">
        <ele>353</ele>
        <time>2013-07-14T10:50:26Z</time>
      </trkpt>
      <trkpt lat="48.67742" lon="6.10099">
        <ele>355</ele>
        <time>2013-07-14T10:50:28Z</time>
      </trkpt>
      <trkpt lat="48.67743" lon="6.10089">
        <ele>356</ele>
        <time>2013-07-14T10:50:30Z</time>
      </trkpt>
      <trkpt lat="48.67743" lon="6.10078">
        <ele>354</ele>
        <time>2013-07-14T10:50:32Z</time>
      </trkpt>
      <trkpt lat="48.67743" lon="6.10067">
        <ele>355</ele>
        <time>2013-07-14T10:50:34Z</time>
      </trkpt>
      <trkpt lat="48.67741" lon="6.10057">
        <ele>352</ele>
        <time>2013-07-14T10:50:36Z</time>
      </trkpt>
      <trkpt lat="48.67739" lon="6.10046">
        <ele>346</ele>
        <time>2013-07-14T10:50:38Z</time>
      </trkpt>
      <trkpt lat="48.67735" lon="6.10034">
        <ele>344</ele>
        <time>2013-07-14T10:50:40Z</time>
      </trkpt>
      <trkpt lat="48.67732" lon="6.10022">
        <ele>345</ele>
        <time>2013-07-14T10:50:42Z</time>
      </trkpt>
      <trkpt lat="48.67728" lon="6.10012">
        <ele>346</ele>
        <time>2013-07-14T10:50:44Z</time>
      </trkpt>
      <trkpt lat="48.67725" lon="6.10001">
        <ele>347</ele>
        <time>2013-07-14T10:50:46Z</time>
      </trkpt>
      <trkpt lat="48.67722" lon="6.0999">
        <ele>349</ele>
        <time>2013-07-14T10:50:48Z</time>
      </trkpt>
      <trkpt lat="48.67721" lon="6.09978">
        <ele>350</ele>
        <time>2013-07-14T10:50:50Z</time>
      </trkpt>
      <trkpt lat="48.6772" lon="6.09965">
        <ele>352</ele>
        <time>2013-07-14T10:50:52Z</time>
      </trkpt>
      <trkpt lat="48.67719" lon="6.09952">
        <ele>351</ele>
        <time>2013-07-14T10:50:54Z</time>
      </trkpt>
      <trkpt lat="48.67719" lon="6.0994">
        <ele>351</ele>
        <time>2013-07-14T10:50:56Z</time>
      </trkpt>
      <trkpt lat="48.67717" lon="6.09931">
        <ele>351</ele>
        <time>2013-07-14T10:50:58Z</time>
      </trkpt>
      <trkpt lat="48.67715" lon="6.09922">
        <ele>351</ele>
        <time>2013-07-14T10:51:00Z</time>
      </trkpt>
      <trkpt lat="48.67714" lon="6.09912">
        <ele>349</ele>
        <time>2013-07-14T10:51:02Z</time>
      </trkpt>
      <trkpt lat="48.67708" lon="6.09898">
        <ele>347</ele>
        <time>2013-07-14T10:51:04Z</time>
      </trkpt>
      <trkpt lat="48.67705" lon="6.09887">
        <ele>347</ele>
        <time>2013-07-14T10:51:06Z</time>
      </trkpt>
      <trkpt lat="48.67703" lon="6.09876">
        <ele>347</ele>
        <time>2013-07-14T10:51:08Z</time>
      </trkpt>
      <trkpt lat="48.67702" lon="6.09866">
        <ele>350</ele>
        <time>2013-07-14T10:51:10Z</time>
      </trkpt>
      <trkpt lat="48.67701" lon="6.09857">
        <ele>353</ele>
        <time>2013-07-14T10:51:12Z</time>
      </trkpt>
      <trkpt lat="48.67701" lon="6.09848">
        <ele>354</ele>
        <time>2013-07-14T10:51:14Z</time>
      </trkpt>
      <trkpt lat="48.67699" lon="6.09839">
        <ele>354</ele>
        <time>2013-07-14T10:51:16Z</time>
      </trkpt>
      <trkpt lat="48.67698" lon="6.09829">
        <ele>356</ele>
        <time>2013-07-14T10:51:18Z</time>
      </trkpt>
      <trkpt lat="48.67698" lon="6.0982">
        <ele>355</ele>
        <time>2013-07-14T10:51:20Z</time>
      </trkpt>
      <trkpt lat="48.67698" lon="6.09808">
        <ele>356</ele>
        <time>2013-07-14T10:51:22Z</time>
      </trkpt>
      <trkpt lat="48.67698" lon="6.09797">
        <ele>354</ele>
        <time>2013-07-14T10:51:24Z</time>
      </trkpt>
      <trkpt lat="48.67699" lon="6.09785">
        <ele>354</ele>
        <time>2013-07-14T10:51:26Z</time>
      </trkpt>
      <trkpt lat="48.67699" lon="6.09774">
        <ele>353</ele>
        <time>2013-07-14T10:51:28Z</time>
      </trkpt>
      <trkpt lat="48.67699" lon="6.09761">
        <ele>350</ele>
        <time>2013-07-14T10:51:30Z</time>
      </trkpt>
      <trkpt lat="48.677" lon="6.09749">
        <ele>351</ele>
        <time>2013-07-14T10:51:32Z</time>
      </trkpt>
      <trkpt lat="48.677" lon="6.09737">
        <ele>351</ele>
        <time>2013-07-14T10:51:34Z</time>
      </trkpt>
      <trkpt lat="48.677" lon="6.09726">
        <ele>352</ele>
        <time>2013-07-14T10:51:36Z</time>
      </trkpt>
      <trkpt lat="48.677" lon="6.09714">
        <ele>352</ele>
        <time>2013-07-14T10:51:38Z</time>
      </trkpt>
      <trkpt lat="48.67701" lon="6.09704">
        <ele>353</ele>
        <time>2013-07-14T10:51:40Z</time>
      </trkpt>
      <trkpt lat="48.67702" lon="6.09693">
        <ele>353</ele>
        <time>2013-07-14T10:51:42Z</time>
      </trkpt>
      <trkpt lat="48.67703" lon="6.09681">
        <ele>353</ele>
        <time>2013-07-14T10:51:44Z</time>
      </trkpt>
      <trkpt lat="48.67703" lon="6.09671">
        <ele>353</ele>
        <time>2013-07-14T10:51:46Z</time>
      </trkpt>
      <trkpt lat="48.67704" lon="6.09661">
        <ele>349</ele>
        <time>2013-07-14T10:51:48Z</time>
      </trkpt>
      <trkpt lat="48.67705" lon="6.09649">
        <ele>347</ele>
        <time>2013-07-14T10:51:50Z</time>
      </trkpt>
      <trkpt lat="48.67705" lon="6.09635">
        <ele>345</ele>
        <time>2013-07-14T10:51:52Z</time>
      </trkpt>
      <trkpt lat="48.67706" lon="6.09622">
        <ele>346</ele>
        <time>2013-07-14T10:51:54Z</time>
      </trkpt>
      <trkpt lat="48.67707" lon="6.09611">
        <ele>345</ele>
        <time>2013-07-14T10:51:56Z</time>
      </trkpt>
      <trkpt lat="48.67708" lon="6.096">
        <ele>345</ele>
        <time>2013-07-14T10:51:58Z</time>
      </trkpt>
      <trkpt lat="48.67709" lon="6.0959">
        <ele>345</ele>
        <time>2013-07-14T10:52:00Z</time>
      </trkpt>
      <trkpt lat="48.6771" lon="6.09579">
        <ele>345</ele>
        <time>2013-07-14T10:52:02Z</time>
      </trkpt>
      <trkpt lat="48.67712" lon="6.09569">
        <ele>345</ele>
        <time>2013-07-14T10:52:04Z</time>
      </trkpt>
      <trkpt lat="48.67712" lon="6.09559">
        <ele>344</ele>
        <time>2013-07-14T10:52:06Z</time>
      </trkpt>
      <trkpt lat="48.67712" lon="6.09549">
        <ele>344</ele>
        <time>2013-07-14T10:52:08Z</time>
      </trkpt>
      <trkpt lat="48.67713" lon="6.09539">
        <ele>345</ele>
        <time>2013-07-14T10:52:10Z</time>
      </trkpt>
      <trkpt lat="48.67715" lon="6.09528">
        <ele>345</ele>
        <time>2013-07-14T10:52:12Z</time>
      </trkpt>
      <trkpt lat="48.67716" lon="6.09518">
        <ele>345</ele>
        <time>2013-07-14T10:52:14Z</time>
      </trkpt>
      <trkpt lat="48.67717" lon="6.09507">
        <ele>344</ele>
        <time>2013-07-14T10:52:16Z</time>
      </trkpt>
      <trkpt lat="48.67719" lon="6.09495">
        <ele>343</ele>
        <time>2013-07-14T10:52:18Z</time>
      </trkpt>
      <trkpt lat="48.6772" lon="6.09485">
        <ele>344</ele>
        <time>2013-07-14T10:52:20Z</time>
      </trkpt>
      <trkpt lat="48.67721" lon="6.09475">
        <ele>345</ele>
        <time>2013-07-14T10:52:22Z</time>
      </trkpt>
      <trkpt lat="48.67722" lon="6.09464">
        <ele>344</ele>
        <time>2013-07-14T10:52:24Z</time>
      </trkpt>
      <trkpt lat="48.67723" lon="6.09454">
        <ele>343</ele>
        <time>2013-07-14T10:52:26Z</time>
      </trkpt>
      <trkpt lat="48.67724" lon="6.09443">
        <ele>345</ele>
        <time>2013-07-14T10:52:28Z</time>
      </trkpt>
      <trkpt lat="48.67725" lon="6.09434">
        <ele>347</ele>
        <time>2013-07-14T10:52:30Z</time>
      </trkpt>
      <trkpt lat="48.67727" lon="6.09425">
        <ele>348</ele>
        <time>2013-07-14T10:52:32Z</time>
      </trkpt>
      <trkpt lat="48.67728" lon="6.09416">
        <ele>349</ele>
        <time>2013-07-14T10:52:34Z</time>
      </trkpt>
      <trkpt lat="48.67728" lon="6.09405">
        <ele>349</ele>
        <time>2013-07-14T10:52:36Z</time>
      </trkpt>
      <trkpt lat="48.6773" lon="6.09394">
        <ele>348</ele>
        <time>2013-07-14T10:52:38Z</time>
      </trkpt>
      <trkpt lat="48.6773" lon="6.09383">
        <ele>348</ele>
        <time>2013-07-14T10:52:40Z</time>
      </trkpt>
      <trkpt lat="48.67732" lon="6.09371">
        <ele>349</ele>
        <time>2013-07-14T10:52:42Z</time>
      </trkpt>
      <trkpt lat="48.67733" lon="6.09359">
        <ele>348</ele>
        <time>2013-07-14T10:52:44Z</time>
      </trkpt>
      <trkpt lat="48.67735" lon="6.09346">
        <ele>348</ele>
        <time>2013-07-14T10:52:46Z</time>
      </trkpt>
      <trkpt lat="48.67736" lon="6.09334">
        <ele>349</ele>
        <time>2013-07-14T10:52:48Z</time>
      </trkpt>
      <trkpt lat="48.67738" lon="6.09321">
        <ele>348</ele>
        <time>2013-07-14T10:52:50Z</time>
      </trkpt>
      <trkpt lat="48.67739" lon="6.09308">
        <ele>347</ele>
        <time>2013-07-14T10:52:52Z</time>
      </trkpt>
      <trkpt lat="48.6774" lon="6.09296">
        <ele>348</ele>
        <time>2013-07-14T10:52:54Z</time>
      </trkpt>
      <trkpt lat="48.67741" lon="6.09282">
        <ele>347</ele>
        <time>2013-07-14T10:52:56Z</time>
      </trkpt>
      <trkpt lat="48.67741" lon="6.09266">
        <ele>346</ele>
        <time>2013-07-14T10:52:58Z</time>
      </trkpt>
      <trkpt lat="48.67742" lon="6.09252">
        <ele>347</ele>
        <time>2013-07-14T10:53:00Z</time>
      </trkpt>
      <trkpt lat="48.67744" lon="6.09237">
        <ele>347</ele>
        <time>2013-07-14T10:53:02Z</time>
      </trkpt>
      <trkpt lat="48.67745" lon="6.09221">
        <ele>346</ele>
        <time>2013-07-14T10:53:04Z</time>
      </trkpt>
      <trkpt lat="48.67746" lon="6.09205">
        <ele>346</ele>
        <time>2013-07-14T10:53:06Z</time>
      </trkpt>
      <trkpt lat="48.67747" lon="6.09191">
        <ele>346</ele>
        <time>2013-07-14T10:53:08Z</time>
      </trkpt>
      <trkpt lat="48.67748" lon="6.09174">
        <ele>344</ele>
        <time>2013-07-14T10:53:10Z</time>
      </trkpt>
      <trkpt lat="48.67749" lon="6.09158">
        <ele>342</ele>
        <time>2013-07-14T10:53:12Z</time>
      </trkpt>
      <trkpt lat="48.6775" lon="6.09151">
        <ele>343</ele>
        <time>2013-07-14T10:53:13Z</time>
      </trkpt>
      <trkpt lat="48.67751" lon="6.09143">
        <ele>343</ele>
        <time>2013-07-14T10:53:14Z</time>
      </trkpt>
      <trkpt lat="48.67754" lon="6.09107">
        <ele>343</ele>
        <time>2013-07-14T10:53:18Z</time>
      </trkpt>
      <trkpt lat="48.67755" lon="6.0909">
        <ele>344</ele>
        <time>2013-07-14T10:53:20Z</time>
      </trkpt>
      <trkpt lat="48.67756" lon="6.09072">
        <ele>344</ele>
        <time>2013-07-14T10:53:22Z</time>
      </trkpt>
      <trkpt lat="48.67757" lon="6.09056">
        <ele>343</ele>
        <time>2013-07-14T10:53:24Z</time>
      </trkpt>
      <trkpt lat="48.67759" lon="6.09039">
        <ele>346</ele>
        <time>2013-07-14T10:53:26Z</time>
      </trkpt>
      <trkpt lat="48.67761" lon="6.0902">
        <ele>345</ele>
        <time>2013-07-14T10:53:28Z</time>
      </trkpt>
      <trkpt lat="48.67762" lon="6.09001">
        <ele>344</ele>
        <time>2013-07-14T10:53:30Z</time>
      </trkpt>
      <trkpt lat="48.6776" lon="6.08986">
        <ele>345</ele>
        <time>2013-07-14T10:53:32Z</time>
      </trkpt>
      <trkpt lat="48.67753" lon="6.08976">
        <ele>346</ele>
        <time>2013-07-14T10:53:34Z</time>
      </trkpt>
      <trkpt lat="48.67744" lon="6.08968">
        <ele>346</ele>
        <time>2013-07-14T10:53:36Z</time>
      </trkpt>
      <trkpt lat="48.67736" lon="6.0896">
        <ele>346</ele>
        <time>2013-07-14T10:53:38Z</time>
      </trkpt>
      <trkpt lat="48.67728" lon="6.08952">
        <ele>346</ele>
        <time>2013-07-14T10:53:40Z</time>
      </trkpt>
      <trkpt lat="48.6772" lon="6.08945">
        <ele>349</ele>
        <time>2013-07-14T10:53:42Z</time>
      </trkpt>
      <trkpt lat="48.67714" lon="6.08939">
        <ele>350</ele>
        <time>2013-07-14T10:53:44Z</time>
      </trkpt>
      <trkpt lat="48.67707" lon="6.08935">
        <ele>350</ele>
        <time>2013-07-14T10:53:46Z</time>
      </trkpt>
      <trkpt lat="48.67702" lon="6.08928">
        <ele>350</ele>
        <time>2013-07-14T10:53:48Z</time>
      </trkpt>
      <trkpt lat="48.67698" lon="6.08922">
        <ele>352</ele>
        <time>2013-07-14T10:53:50Z</time>
      </trkpt>
      <trkpt lat="48.67693" lon="6.08918">
        <ele>352</ele>
        <time>2013-07-14T10:53:52Z</time>
      </trkpt>
      <trkpt lat="48.67689" lon="6.08915">
        <ele>351</ele>
        <time>2013-07-14T10:53:54Z</time>
      </trkpt>
      <trkpt lat="48.67684" lon="6.08912">
        <ele>353</ele>
        <time>2013-07-14T10:53:56Z</time>
      </trkpt>
      <trkpt lat="48.67679" lon="6.08909">
        <ele>354</ele>
        <time>2013-07-14T10:53:58Z</time>
      </trkpt>
      <trkpt lat="48.67675" lon="6.08904">
        <ele>355</ele>
        <time>2013-07-14T10:54:00Z</time>
      </trkpt>
      <trkpt lat="48.67669" lon="6.089">
        <ele>355</ele>
        <time>2013-07-14T10:54:02Z</time>
      </trkpt>
      <trkpt lat="48.67658" lon="6.08888">
        <ele>356</ele>
        <time>2013-07-14T10:54:06Z</time>
      </trkpt>
      <trkpt lat="48.6765" lon="6.0888">
        <ele>356</ele>
        <time>2013-07-14T10:54:08Z</time>
      </trkpt>
      <trkpt lat="48.67643" lon="6.08873">
        <ele>354</ele>
        <time>2013-07-14T10:54:10Z</time>
      </trkpt>
      <trkpt lat="48.67595" lon="6.08869">
        <ele>353</ele>
        <time>2013-07-14T10:54:17Z</time>
      </trkpt>
      <trkpt lat="48.67577" lon="6.0887">
        <ele>352</ele>
        <time>2013-07-14T10:54:19Z</time>
      </trkpt>
      <trkpt lat="48.67558" lon="6.08865">
        <ele>355</ele>
        <time>2013-07-14T10:54:21Z</time>
      </trkpt>
      <trkpt lat="48.67539" lon="6.08857">
        <ele>360</ele>
        <time>2013-07-14T10:54:23Z</time>
      </trkpt>
      <trkpt lat="48.67522" lon="6.08848">
        <ele>361</ele>
        <time>2013-07-14T10:54:25Z</time>
      </trkpt>
      <trkpt lat="48.67501" lon="6.08845">
        <ele>358</ele>
        <time>2013-07-14T10:54:27Z</time>
      </trkpt>
      <trkpt lat="48.67481" lon="6.08843">
        <ele>357</ele>
        <time>2013-07-14T10:54:29Z</time>
      </trkpt>
      <trkpt lat="48.67458" lon="6.08843">
        <ele>352</ele>
        <time>2013-07-14T10:54:31Z</time>
      </trkpt>
      <trkpt lat="48.6743" lon="6.08846">
        <ele>351</ele>
        <time>2013-07-14T10:54:33Z</time>
      </trkpt>
      <trkpt lat="48.67406" lon="6.08849">
        <ele>349</ele>
        <time>2013-07-14T10:54:35Z</time>
      </trkpt>
      <trkpt lat="48.67387" lon="6.08851">
        <ele>348</ele>
        <time>2013-07-14T10:54:37Z</time>
      </trkpt>
      <trkpt lat="48.67368" lon="6.08838">
        <ele>347</ele>
        <time>2013-07-14T10:54:39Z</time>
      </trkpt>
      <trkpt lat="48.67362" lon="6.08812">
        <ele>342</ele>
        <time>2013-07-14T10:54:41Z</time>
      </trkpt>
      <trkpt lat="48.67364" lon="6.08789">
        <ele>337</ele>
        <time>2013-07-14T10:54:43Z</time>
      </trkpt>
      <trkpt lat="48.67367" lon="6.0877">
        <ele>338</ele>
        <time>2013-07-14T10:54:45Z</time>
      </trkpt>
      <trkpt lat="48.67367" lon="6.08756">
        <ele>341</ele>
        <time>2013-07-14T10:54:47Z</time>
      </trkpt>
      <trkpt lat="48.67365" lon="6.0874">
        <ele>335</ele>
        <time>2013-07-14T10:54:49Z</time>
      </trkpt>
      <trkpt lat="48.67349" lon="6.08698">
        <ele>343</ele>
        <time>2013-07-14T10:54:59Z</time>
      </trkpt>
      <trkpt lat="48.67336" lon="6.08678">
        <ele>350</ele>
        <time>2013-07-14T10:55:09Z</time>
      </trkpt>
      <trkpt lat="48.67319" lon="6.08651">
        <ele>347</ele>
        <time>2013-07-14T10:55:19Z</time>
      </trkpt>
      <trkpt lat="48.67315" lon="6.08643">
        <ele>351</ele>
        <time>2013-07-14T10:55:21Z</time>
      </trkpt>
      <trkpt lat="48.67308" lon="6.08632">
        <ele>356</ele>
        <time>2013-07-14T10:55:25Z</time>
      </trkpt>
      <trkpt lat="48.67304" lon="6.08627">
        <ele>356</ele>
        <time>2013-07-14T10:55:27Z</time>
      </trkpt>
      <trkpt lat="48.673" lon="6.08622">
        <ele>359</ele>
        <time>2013-07-14T10:55:29Z</time>
      </trkpt>
      <trkpt lat="48.67297" lon="6.08615">
        <ele>358</ele>
        <time>2013-07-14T10:55:31Z</time>
      </trkpt>
      <trkpt lat="48.67294" lon="6.08609">
        <ele>361</ele>
        <time>2013-07-14T10:55:33Z</time>
      </trkpt>
      <trkpt lat="48.6729" lon="6.08603">
        <ele>362</ele>
        <time>2013-07-14T10:55:35Z</time>
      </trkpt>
      <trkpt lat="48.67287" lon="6.08597">
        <ele>362</ele>
        <time>2013-07-14T10:55:37Z</time>
      </trkpt>
      <trkpt lat="48.67284" lon="6.08592">
        <ele>363</ele>
        <time>2013-07-14T10:55:39Z</time>
      </trkpt>
      <trkpt lat="48.67281" lon="6.08587">
        <ele>364</ele>
        <time>2013-07-14T10:55:41Z</time>
      </trkpt>
      <trkpt lat="48.67278" lon="6.08583">
        <ele>365</ele>
        <time>2013-07-14T10:55:43Z</time>
      </trkpt>
      <trkpt lat="48.67274" lon="6.08578">
        <ele>367</ele>
        <time>2013-07-14T10:55:45Z</time>
      </trkpt>
      <trkpt lat="48.6727" lon="6.08573">
        <ele>367</ele>
        <time>2013-07-14T10:55:47Z</time>
      </trkpt>
      <trkpt lat="48.67266" lon="6.08569">
        <ele>367</ele>
        <time>2013-07-14T10:55:49Z</time>
      </trkpt>
      <trkpt lat="48.67262" lon="6.08565">
        <ele>368</ele>
        <time>2013-07-14T10:55:51Z</time>
      </trkpt>
      <trkpt lat="48.67258" lon="6.08561">
        <ele>370</ele>
        <time>2013-07-14T10:55:53Z</time>
      </trkpt>
      <trkpt lat="48.6725" lon="6.08554">
        <ele>372</ele>
        <time>2013-07-14T10:55:57Z</time>
      </trkpt>
      <trkpt lat="48.67246" lon="6.0855">
        <ele>372</ele>
        <time>2013-07-14T10:55:59Z</time>
      </trkpt>
      <trkpt lat="48.67242" lon="6.08547">
        <ele>374</ele>
        <time>2013-07-14T10:56:01Z</time>
      </trkpt>
      <trkpt lat="48.67238" lon="6.08543">
        <ele>373</ele>
        <time>2013-07-14T10:56:03Z</time>
      </trkpt>
      <trkpt lat="48.67234" lon="6.0854">
        <ele>373</ele>
        <time>2013-07-14T10:56:05Z</time>
      </trkpt>
      <trkpt lat="48.67231" lon="6.08533">
        <ele>371</ele>
        <time>2013-07-14T10:56:07Z</time>
      </trkpt>
      <trkpt lat="48.67228" lon="6.08526">
        <ele>370</ele>
        <time>2013-07-14T10:56:09Z</time>
      </trkpt>
      <trkpt lat="48.67225" lon="6.0852">
        <ele>371</ele>
        <time>2013-07-14T10:56:11Z</time>
      </trkpt>
      <trkpt lat="48.67221" lon="6.08513">
        <ele>369</ele>
        <time>2013-07-14T10:56:13Z</time>
      </trkpt>
      <trkpt lat="48.67217" lon="6.08507">
        <ele>368</ele>
        <time>2013-07-14T10:56:15Z</time>
      </trkpt>
      <trkpt lat="48.67212" lon="6.08502">
        <ele>366</ele>
        <time>2013-07-14T10:56:17Z</time>
      </trkpt>
      <trkpt lat="48.67209" lon="6.08496">
        <ele>366</ele>
        <time>2013-07-14T10:56:19Z</time>
      </trkpt>
      <trkpt lat="48.67205" lon="6.08489">
        <ele>366</ele>
        <time>2013-07-14T10:56:21Z</time>
      </trkpt>
      <trkpt lat="48.67202" lon="6.08483">
        <ele>365</ele>
        <time>2013-07-14T10:56:23Z</time>
      </trkpt>
      <trkpt lat="48.67199" lon="6.08478">
        <ele>363</ele>
        <time>2013-07-14T10:56:25Z</time>
      </trkpt>
      <trkpt lat="48.67195" lon="6.08472">
        <ele>362</ele>
        <time>2013-07-14T10:56:27Z</time>
      </trkpt>
      <trkpt lat="48.67191" lon="6.08466">
        <ele>358</ele>
        <time>2013-07-14T10:56:29Z</time>
      </trkpt>
      <trkpt lat="48.67188" lon="6.08461">
        <ele>359</ele>
        <time>2013-07-14T10:56:31Z</time>
      </trkpt>
      <trkpt lat="48.67185" lon="6.08456">
        <ele>362</ele>
        <time>2013-07-14T10:56:33Z</time>
      </trkpt>
      <trkpt lat="48.67182" lon="6.08451">
        <ele>362</ele>
        <time>2013-07-14T10:56:35Z</time>
      </trkpt>
      <trkpt lat="48.6718" lon="6.08446">
        <ele>364</ele>
        <time>2013-07-14T10:56:37Z</time>
      </trkpt>
      <trkpt lat="48.67177" lon="6.08442">
        <ele>366</ele>
        <time>2013-07-14T10:56:39Z</time>
      </trkpt>
      <trkpt lat="48.67173" lon="6.08438">
        <ele>364</ele>
        <time>2013-07-14T10:56:41Z</time>
      </trkpt>
      <trkpt lat="48.67169" lon="6.08434">
        <ele>364</ele>
        <time>2013-07-14T10:56:43Z</time>
      </trkpt>
      <trkpt lat="48.67166" lon="6.0843">
        <ele>363</ele>
        <time>2013-07-14T10:56:45Z</time>
      </trkpt>
      <trkpt lat="48.67163" lon="6.08426">
        <ele>364</ele>
        <time>2013-07-14T10:56:47Z</time>
      </trkpt>
      <trkpt lat="48.67159" lon="6.08423">
        <ele>364</ele>
        <time>2013-07-14T10:56:49Z</time>
      </trkpt>
      <trkpt lat="48.67156" lon="6.08419">
        <ele>364</ele>
        <time>2013-07-14T10:56:51Z</time>
      </trkpt>
      <trkpt lat="48.67154" lon="6.08416">
        <ele>366</ele>
        <time>2013-07-14T10:56:53Z</time>
      </trkpt>
      <trkpt lat="48.67151" lon="6.08413">
        <ele>366</ele>
        <time>2013-07-14T10:56:55Z</time>
      </trkpt>
      <trkpt lat="48.67147" lon="6.0841">
        <ele>367</ele>
        <time>2013-07-14T10:56:57Z</time>
      </trkpt>
      <trkpt lat="48.67143" lon="6.08408">
        <ele>368</ele>
        <time>2013-07-14T10:56:59Z</time>
      </trkpt>
      <trkpt lat="48.67139" lon="6.08406">
        <ele>368</ele>
        <time>2013-07-14T10:57:01Z</time>
      </trkpt>
      <trkpt lat="48.67135" lon="6.08402">
        <ele>367</ele>
        <time>2013-07-14T10:57:03Z</time>
      </trkpt>
      <trkpt lat="48.67131" lon="6.08398">
        <ele>365</ele>
        <time>2013-07-14T10:57:05Z</time>
      </trkpt>
      <trkpt lat="48.67127" lon="6.08394">
        <ele>365</ele>
        <time>2013-07-14T10:57:07Z</time>
      </trkpt>
      <trkpt lat="48.67122" lon="6.0839">
        <ele>364</ele>
        <time>2013-07-14T10:57:09Z</time>
      </trkpt>
      <trkpt lat="48.67119" lon="6.08388">
        <ele>367</ele>
        <time>2013-07-14T10:57:11Z</time>
      </trkpt>
      <trkpt lat="48.67115" lon="6.08385">
        <ele>369</ele>
        <time>2013-07-14T10:57:13Z</time>
      </trkpt>
      <trkpt lat="48.67112" lon="6.08382">
        <ele>370</ele>
        <time>2013-07-14T10:57:15Z</time>
      </trkpt>
      <trkpt lat="48.67107" lon="6.0838">
        <ele>370</ele>
        <time>2013-07-14T10:57:17Z</time>
      </trkpt>
      <trkpt lat="48.67103" lon="6.08378">
        <ele>372</ele>
        <time>2013-07-14T10:57:19Z</time>
      </trkpt>
      <trkpt lat="48.671" lon="6.08375">
        <ele>373</ele>
        <time>2013-07-14T10:57:21Z</time>
      </trkpt>
      <trkpt lat="48.67097" lon="6.08372">
        <ele>374</ele>
        <time>2013-07-14T10:57:23Z</time>
      </trkpt>
      <trkpt lat="48.67094" lon="6.08368">
        <ele>374</ele>
        <time>2013-07-14T10:57:25Z</time>
      </trkpt>
      <trkpt lat="48.67091" lon="6.08364">
        <ele>375</ele>
        <time>2013-07-14T10:57:27Z</time>
      </trkpt>
      <trkpt lat="48.67088" lon="6.08361">
        <ele>377</ele>
        <time>2013-07-14T10:57:29Z</time>
      </trkpt>
      <trkpt lat="48.67085" lon="6.08358">
        <ele>378</ele>
        <time>2013-07-14T10:57:31Z</time>
      </trkpt>
      <trkpt lat="48.67082" lon="6.08355">
        <ele>378</ele>
        <time>2013-07-14T10:57:33Z</time>
      </trkpt>
      <trkpt lat="48.67078" lon="6.08352">
        <ele>378</ele>
        <time>2013-07-14T10:57:35Z</time>
      </trkpt>
      <trkpt lat="48.67074" lon="6.08349">
        <ele>376</ele>
        <time>2013-07-14T10:57:37Z</time>
      </trkpt>
      <trkpt lat="48.6707" lon="6.08346">
        <ele>377</ele>
        <time>2013-07-14T10:57:39Z</time>
      </trkpt>
      <trkpt lat="48.67065" lon="6.08343">
        <ele>378</ele>
        <time>2013-07-14T10:57:41Z</time>
      </trkpt>
      <trkpt lat="48.67061" lon="6.08341">
        <ele>379</ele>
        <time>2013-07-14T10:57:43Z</time>
      </trkpt>
      <trkpt lat="48.67058" lon="6.08338">
        <ele>381</ele>
        <time>2013-07-14T10:57:45Z</time>
      </trkpt>
      <trkpt lat="48.67054" lon="6.08334">
        <ele>380</ele>
        <time>2013-07-14T10:57:47Z</time>
      </trkpt>
      <trkpt lat="48.67051" lon="6.08329">
        <ele>379</ele>
        <time>2013-07-14T10:57:49Z</time>
      </trkpt>
      <trkpt lat="48.67048" lon="6.08325">
        <ele>381</ele>
        <time>2013-07-14T10:57:51Z</time>
      </trkpt>
      <trkpt lat="48.67043" lon="6.0832">
        <ele>380</ele>
        <time>2013-07-14T10:57:53Z</time>
      </trkpt>
      <trkpt lat="48.67039" lon="6.08315">
        <ele>378</ele>
        <time>2013-07-14T10:57:55Z</time>
      </trkpt>
      <trkpt lat="48.67035" lon="6.08311">
        <ele>378</ele>
        <time>2013-07-14T10:57:57Z</time>
      </trkpt>
      <trkpt lat="48.67031" lon="6.08307">
        <ele>378</ele>
        <time>2013-07-14T10:57:59Z</time>
      </trkpt>
      <trkpt lat="48.67028" lon="6.08303">
        <ele>380</ele>
        <time>2013-07-14T10:58:01Z</time>
      </trkpt>
      <trkpt lat="48.67024" lon="6.083">
        <ele>381</ele>
        <time>2013-07-14T10:58:03Z</time>
      </trkpt>
      <trkpt lat="48.67019" lon="6.08297">
        <ele>381</ele>
        <time>2013-07-14T10:58:05Z</time>
      </trkpt>
      <trkpt lat="48.67015" lon="6.08295">
        <ele>383</ele>
        <time>2013-07-14T10:58:07Z</time>
      </trkpt>
      <trkpt lat="48.67011" lon="6.08292">
        <ele>384</ele>
        <time>2013-07-14T10:58:09Z</time>
      </trkpt>
      <trkpt lat="48.67007" lon="6.08288">
        <ele>384</ele>
        <time>2013-07-14T10:58:11Z</time>
      </trkpt>
      <trkpt lat="48.67004" lon="6.08284">
        <ele>383</ele>
        <time>2013-07-14T10:58:13Z</time>
      </trkpt>
      <trkpt lat="48.67001" lon="6.0828">
        <ele>384</ele>
        <time>2013-07-14T10:58:15Z</time>
      </trkpt>
      <trkpt lat="48.66997" lon="6.08277">
        <ele>385</ele>
        <time>2013-07-14T10:58:17Z</time>
      </trkpt>
      <trkpt lat="48.66993" lon="6.08273">
        <ele>385</ele>
        <time>2013-07-14T10:58:19Z</time>
      </trkpt>
      <trkpt lat="48.66989" lon="6.08268">
        <ele>386</ele>
        <time>2013-07-14T10:58:21Z</time>
      </trkpt>
      <trkpt lat="48.66985" lon="6.08264">
        <ele>385</ele>
        <time>2013-07-14T10:58:23Z</time>
      </trkpt>
      <trkpt lat="48.66981" lon="6.08259">
        <ele>388</ele>
        <time>2013-07-14T10:58:25Z</time>
      </trkpt>
      <trkpt lat="48.66976" lon="6.08256">
        <ele>388</ele>
        <time>2013-07-14T10:58:27Z</time>
      </trkpt>
      <trkpt lat="48.66971" lon="6.08253">
        <ele>387</ele>
        <time>2013-07-14T10:58:29Z</time>
      </trkpt>
      <trkpt lat="48.66964" lon="6.08248">
        <ele>383</ele>
        <time>2013-07-14T10:58:31Z</time>
      </trkpt>
      <trkpt lat="48.66959" lon="6.08244">
        <ele>382</ele>
        <time>2013-07-14T10:58:33Z</time>
      </trkpt>
      <trkpt lat="48.66955" lon="6.08239">
        <ele>382</ele>
        <time>2013-07-14T10:58:35Z</time>
      </trkpt>
      <trkpt lat="48.66951" lon="6.08235">
        <ele>383</ele>
        <time>2013-07-14T10:58:37Z</time>
      </trkpt>
      <trkpt lat="48.66947" lon="6.08231">
        <ele>384</ele>
        <time>2013-07-14T10:58:39Z</time>
      </trkpt>
      <trkpt lat="48.66943" lon="6.08228">
        <ele>385</ele>
        <time>2013-07-14T10:58:41Z</time>
      </trkpt>
      <trkpt lat="48.66938" lon="6.08224">
        <ele>386</ele>
        <time>2013-07-14T10:58:43Z</time>
      </trkpt>
      <trkpt lat="48.66934" lon="6.0822">
        <ele>385</ele>
        <time>2013-07-14T10:58:45Z</time>
      </trkpt>
      <trkpt lat="48.66929" lon="6.08215">
        <ele>385</ele>
        <time>2013-07-14T10:58:47Z</time>
      </trkpt>
      <trkpt lat="48.66921" lon="6.0821">
        <ele>382</ele>
        <time>2013-07-14T10:58:49Z</time>
      </trkpt>
      <trkpt lat="48.66915" lon="6.08203">
        <ele>381</ele>
        <time>2013-07-14T10:58:51Z</time>
      </trkpt>
      <trkpt lat="48.66911" lon="6.08198">
        <ele>382</ele>
        <time>2013-07-14T10:58:53Z</time>
      </trkpt>
      <trkpt lat="48.66907" lon="6.08194">
        <ele>384</ele>
        <time>2013-07-14T10:58:55Z</time>
      </trkpt>
      <trkpt lat="48.66903" lon="6.0819">
        <ele>385</ele>
        <time>2013-07-14T10:58:57Z</time>
      </trkpt>
      <trkpt lat="48.66899" lon="6.08186">
        <ele>387</ele>
        <time>2013-07-14T10:58:59Z</time>
      </trkpt>
      <trkpt lat="48.66894" lon="6.08183">
        <ele>391</ele>
        <time>2013-07-14T10:59:01Z</time>
      </trkpt>
      <trkpt lat="48.6689" lon="6.08179">
        <ele>393</ele>
        <time>2013-07-14T10:59:03Z</time>
      </trkpt>
      <trkpt lat="48.66887" lon="6.08175">
        <ele>396</ele>
        <time>2013-07-14T10:59:05Z</time>
      </trkpt>
      <trkpt lat="48.66884" lon="6.08171">
        <ele>400</ele>
        <time>2013-07-14T10:59:07Z</time>
      </trkpt>
      <trkpt lat="48.6688" lon="6.08167">
        <ele>402</ele>
        <time>2013-07-14T10:59:09Z</time>
      </trkpt>
      <trkpt lat="48.66877" lon="6.08162">
        <ele>399</ele>
        <time>2013-07-14T10:59:11Z</time>
      </trkpt>
      <trkpt lat="48.66873" lon="6.08157">
        <ele>399</ele>
        <time>2013-07-14T10:59:13Z</time>
      </trkpt>
      <trkpt lat="48.66868" lon="6.08152">
        <ele>399</ele>
        <time>2013-07-14T10:59:15Z</time>
      </trkpt>
      <trkpt lat="48.66863" lon="6.08147">
        <ele>402</ele>
        <time>2013-07-14T10:59:17Z</time>
      </trkpt>
      <trkpt lat="48.66857" lon="6.08142">
        <ele>398</ele>
        <time>2013-07-14T10:59:19Z</time>
      </trkpt>
      <trkpt lat="48.66853" lon="6.08136">
        <ele>400</ele>
        <time>2013-07-14T10:59:21Z</time>
      </trkpt>
      <trkpt lat="48.66849" lon="6.0813">
        <ele>400</ele>
        <time>2013-07-14T10:59:23Z</time>
      </trkpt>
      <trkpt lat="48.66843" lon="6.08126">
        <ele>402</ele>
        <time>2013-07-14T10:59:25Z</time>
      </trkpt>
      <trkpt lat="48.66838" lon="6.08122">
        <ele>404</ele>
        <time>2013-07-14T10:59:27Z</time>
      </trkpt>
      <trkpt lat="48.66832" lon="6.08117">
        <ele>405</ele>
        <time>2013-07-14T10:59:29Z</time>
      </trkpt>
      <trkpt lat="48.66827" lon="6.08114">
        <ele>403</ele>
        <time>2013-07-14T10:59:31Z</time>
      </trkpt>
      <trkpt lat="48.66822" lon="6.08111">
        <ele>401</ele>
        <time>2013-07-14T10:59:33Z</time>
      </trkpt>
      <trkpt lat="48.66819" lon="6.08106">
        <ele>398</ele>
        <time>2013-07-14T10:59:35Z</time>
      </trkpt>
      <trkpt lat="48.66815" lon="6.081">
        <ele>400</ele>
        <time>2013-07-14T10:59:37Z</time>
      </trkpt>
      <trkpt lat="48.6681" lon="6.08096">
        <ele>401</ele>
        <time>2013-07-14T10:59:39Z</time>
      </trkpt>
      <trkpt lat="48.66805" lon="6.08091">
        <ele>401</ele>
        <time>2013-07-14T10:59:41Z</time>
      </trkpt>
      <trkpt lat="48.66801" lon="6.08086">
        <ele>400</ele>
        <time>2013-07-14T10:59:43Z</time>
      </trkpt>
      <trkpt lat="48.66795" lon="6.08075">
        <ele>394</ele>
        <time>2013-07-14T10:59:45Z</time>
      </trkpt>
      <trkpt lat="48.66787" lon="6.08064">
        <ele>390</ele>
        <time>2013-07-14T10:59:47Z</time>
      </trkpt>
      <trkpt lat="48.6678" lon="6.08054">
        <ele>391</ele>
        <time>2013-07-14T10:59:49Z</time>
      </trkpt>
      <trkpt lat="48.66773" lon="6.08047">
        <ele>389</ele>
        <time>2013-07-14T10:59:51Z</time>
      </trkpt>
      <trkpt lat="48.66766" lon="6.0804">
        <ele>384</ele>
        <time>2013-07-14T10:59:53Z</time>
      </trkpt>
      <trkpt lat="48.66756" lon="6.08037">
        <ele>382</ele>
        <time>2013-07-14T10:59:55Z</time>
      </trkpt>
      <trkpt lat="48.66745" lon="6.08043">
        <ele>378</ele>
        <time>2013-07-14T10:59:57Z</time>
      </trkpt>
      <trkpt lat="48.6674" lon="6.0805">
        <ele>374</ele>
        <time>2013-07-14T10:59:59Z</time>
      </trkpt>
      <trkpt lat="48.66738" lon="6.08056">
        <ele>372</ele>
        <time>2013-07-14T11:00:01Z</time>
      </trkpt>
      <trkpt lat="48.66737" lon="6.08064">
        <ele>372</ele>
        <time>2013-07-14T11:00:03Z</time>
      </trkpt>
      <trkpt lat="48.66736" lon="6.08077">
        <ele>371</ele>
        <time>2013-07-14T11:00:05Z</time>
      </trkpt>
      <trkpt lat="48.66736" lon="6.08091">
        <ele>371</ele>
        <time>2013-07-14T11:00:07Z</time>
      </trkpt>
      <trkpt lat="48.66735" lon="6.08107">
        <ele>369</ele>
        <time>2013-07-14T11:00:09Z</time>
      </trkpt>
      <trkpt lat="48.66736" lon="6.08123">
        <ele>370</ele>
        <time>2013-07-14T11:00:11Z</time>
      </trkpt>
      <trkpt lat="48.66736" lon="6.08138">
        <ele>371</ele>
        <time>2013-07-14T11:00:13Z</time>
      </trkpt>
      <trkpt lat="48.66738" lon="6.08151">
        <ele>370</ele>
        <time>2013-07-14T11:00:15Z</time>
      </trkpt>
      <trkpt lat="48.66739" lon="6.08161">
        <ele>369</ele>
        <time>2013-07-14T11:00:17Z</time>
      </trkpt>
      <trkpt lat="48.66738" lon="6.08172">
        <ele>370</ele>
        <time>2013-07-14T11:00:19Z</time>
      </trkpt>
      <trkpt lat="48.66738" lon="6.08183">
        <ele>370</ele>
        <time>2013-07-14T11:00:21Z</time>
      </trkpt>
      <trkpt lat="48.66737" lon="6.08195">
        <ele>370</ele>
        <time>2013-07-14T11:00:23Z</time>
      </trkpt>
      <trkpt lat="48.66738" lon="6.08208">
        <ele>369</ele>
        <time>2013-07-14T11:00:25Z</time>
      </trkpt>
      <trkpt lat="48.66739" lon="6.08223">
        <ele>368</ele>
        <time>2013-07-14T11:00:27Z</time>
      </trkpt>
      <trkpt lat="48.6674" lon="6.08237">
        <ele>368</ele>
        <time>2013-07-14T11:00:29Z</time>
      </trkpt>
      <trkpt lat="48.66741" lon="6.08249">
        <ele>366</ele>
        <time>2013-07-14T11:00:31Z</time>
      </trkpt>
      <trkpt lat="48.66742" lon="6.08264">
        <ele>363</ele>
        <time>2013-07-14T11:00:33Z</time>
      </trkpt>
      <trkpt lat="48.66742" lon="6.0828">
        <ele>363</ele>
        <time>2013-07-14T11:00:35Z</time>
      </trkpt>
      <trkpt lat="48.66744" lon="6.08298">
        <ele>363</ele>
        <time>2013-07-14T11:00:37Z</time>
      </trkpt>
      <trkpt lat="48.66743" lon="6.08319">
        <ele>363</ele>
        <time>2013-07-14T11:00:39Z</time>
      </trkpt>
      <trkpt lat="48.66743" lon="6.08342">
        <ele>363</ele>
        <time>2013-07-14T11:00:41Z</time>
      </trkpt>
      <trkpt lat="48.66744" lon="6.08368">
        <ele>363</ele>
        <time>2013-07-14T11:00:43Z</time>
      </trkpt>
      <trkpt lat="48.66744" lon="6.08393">
        <ele>364</ele>
        <time>2013-07-14T11:00:45Z</time>
      </trkpt>
      <trkpt lat="48.66745" lon="6.08417">
        <ele>365</ele>
        <time>2013-07-14T11:00:47Z</time>
      </trkpt>
      <trkpt lat="48.66747" lon="6.08441">
        <ele>366</ele>
        <time>2013-07-14T11:00:49Z</time>
      </trkpt>
      <trkpt lat="48.66747" lon="6.08468">
        <ele>367</ele>
        <time>2013-07-14T11:00:51Z</time>
      </trkpt>
      <trkpt lat="48.66747" lon="6.08494">
        <ele>367</ele>
        <time>2013-07-14T11:00:53Z</time>
      </trkpt>
      <trkpt lat="48.66749" lon="6.08521">
        <ele>368</ele>
        <time>2013-07-14T11:00:55Z</time>
      </trkpt>
      <trkpt lat="48.6675" lon="6.08548">
        <ele>366</ele>
        <time>2013-07-14T11:00:57Z</time>
      </trkpt>
      <trkpt lat="48.66752" lon="6.0857">
        <ele>369</ele>
        <time>2013-07-14T11:00:59Z</time>
      </trkpt>
      <trkpt lat="48.66754" lon="6.0859">
        <ele>365</ele>
        <time>2013-07-14T11:01:01Z</time>
      </trkpt>
      <trkpt lat="48.66755" lon="6.08605">
        <ele>362</ele>
        <time>2013-07-14T11:01:03Z</time>
      </trkpt>
      <trkpt lat="48.66755" lon="6.08617">
        <ele>361</ele>
        <time>2013-07-14T11:01:05Z</time>
      </trkpt>
      <trkpt lat="48.66756" lon="6.08628">
        <ele>361</ele>
        <time>2013-07-14T11:01:07Z</time>
      </trkpt>
      <trkpt lat="48.66756" lon="6.08638">
        <ele>360</ele>
        <time>2013-07-14T11:01:09Z</time>
      </trkpt>
      <trkpt lat="48.66756" lon="6.08648">
        <ele>363</ele>
        <time>2013-07-14T11:01:11Z</time>
      </trkpt>
      <trkpt lat="48.66756" lon="6.08658">
        <ele>364</ele>
        <time>2013-07-14T11:01:13Z</time>
      </trkpt>
      <trkpt lat="48.66756" lon="6.08668">
        <ele>364</ele>
        <time>2013-07-14T11:01:15Z</time>
      </trkpt>
      <trkpt lat="48.66755" lon="6.08676">
        <ele>365</ele>
        <time>2013-07-14T11:01:17Z</time>
      </trkpt>
      <trkpt lat="48.66755" lon="6.08684">
        <ele>365</ele>
        <time>2013-07-14T11:01:19Z</time>
      </trkpt>
      <trkpt lat="48.66755" lon="6.08692">
        <ele>367</ele>
        <time>2013-07-14T11:01:21Z</time>
      </trkpt>
      <trkpt lat="48.66756" lon="6.08699">
        <ele>368</ele>
        <time>2013-07-14T11:01:23Z</time>
      </trkpt>
      <trkpt lat="48.66756" lon="6.08708">
        <ele>370</ele>
        <time>2013-07-14T11:01:25Z</time>
      </trkpt>
      <trkpt lat="48.66757" lon="6.08718">
        <ele>369</ele>
        <time>2013-07-14T11:01:27Z</time>
      </trkpt>
      <trkpt lat="48.66758" lon="6.08729">
        <ele>369</ele>
        <time>2013-07-14T11:01:29Z</time>
      </trkpt>
      <trkpt lat="48.66757" lon="6.08741">
        <ele>366</ele>
        <time>2013-07-14T11:01:31Z</time>
      </trkpt>
      <trkpt lat="48.66756" lon="6.08755">
        <ele>366</ele>
        <time>2013-07-14T11:01:33Z</time>
      </trkpt>
      <trkpt lat="48.66755" lon="6.08767">
        <ele>362</ele>
        <time>2013-07-14T11:01:35Z</time>
      </trkpt>
      <trkpt lat="48.66755" lon="6.08779">
        <ele>359</ele>
        <time>2013-07-14T11:01:37Z</time>
      </trkpt>
      <trkpt lat="48.66756" lon="6.08792">
        <ele>357</ele>
        <time>2013-07-14T11:01:39Z</time>
      </trkpt>
      <trkpt lat="48.66757" lon="6.08805">
        <ele>357</ele>
        <time>2013-07-14T11:01:41Z</time>
      </trkpt>
      <trkpt lat="48.66757" lon="6.08816">
        <ele>357</ele>
        <time>2013-07-14T11:01:43Z</time>
      </trkpt>
      <trkpt lat="48.66758" lon="6.08827">
        <ele>356</ele>
        <time>2013-07-14T11:01:45Z</time>
      </trkpt>
      <trkpt lat="48.66759" lon="6.08836">
        <ele>356</ele>
        <time>2013-07-14T11:01:47Z</time>
      </trkpt>
      <trkpt lat="48.66759" lon="6.08844">
        <ele>357</ele>
        <time>2013-07-14T11:01:49Z</time>
      </trkpt>
      <trkpt lat="48.6676" lon="6.08853">
        <ele>359</ele>
        <time>2013-07-14T11:01:51Z</time>
      </trkpt>
      <trkpt lat="48.66761" lon="6.0886">
        <ele>360</ele>
        <time>2013-07-14T11:01:53Z</time>
      </trkpt>
      <trkpt lat="48.66761" lon="6.08869">
        <ele>362</ele>
        <time>2013-07-14T11:01:55Z</time>
      </trkpt>
      <trkpt lat="48.66763" lon="6.08879">
        <ele>364</ele>
        <time>2013-07-14T11:01:57Z</time>
      </trkpt>
      <trkpt lat="48.66764" lon="6.0889">
        <ele>364</ele>
        <time>2013-07-14T11:01:59Z</time>
      </trkpt>
      <trkpt lat="48.66765" lon="6.08902">
        <ele>363</ele>
        <time>2013-07-14T11:02:01Z</time>
      </trkpt>
      <trkpt lat="48.66763" lon="6.08915">
        <ele>368</ele>
        <time>2013-07-14T11:02:03Z</time>
      </trkpt>
      <trkpt lat="48.66756" lon="6.08926">
        <ele>368</ele>
        <time>2013-07-14T11:02:05Z</time>
      </trkpt>
      <trkpt lat="48.66748" lon="6.08935">
        <ele>375</ele>
        <time>2013-07-14T11:02:07Z</time>
      </trkpt>
      <trkpt lat="48.66739" lon="6.08946">
        <ele>376</ele>
        <time>2013-07-14T11:02:09Z</time>
      </trkpt>
      <trkpt lat="48.66729" lon="6.08958">
        <ele>378</ele>
        <time>2013-07-14T11:02:11Z</time>
      </trkpt>
      <trkpt lat="48.66718" lon="6.08971">
        <ele>376</ele>
        <time>2013-07-14T11:02:13Z</time>
      </trkpt>
      <trkpt lat="48.66704" lon="6.08985">
        <ele>374</ele>
        <time>2013-07-14T11:02:15Z</time>
      </trkpt>
      <trkpt lat="48.6669" lon="6.09001">
        <ele>373</ele>
        <time>2013-07-14T11:02:17Z</time>
      </trkpt>
      <trkpt lat="48.66678" lon="6.0902">
        <ele>370</ele>
        <time>2013-07-14T11:02:19Z</time>
      </trkpt>
      <trkpt lat="48.66673" lon="6.09043">
        <ele>373</ele>
        <time>2013-07-14T11:02:21Z</time>
      </trkpt>
      <trkpt lat="48.66675" lon="6.09067">
        <ele>368</ele>
        <time>2013-07-14T11:02:23Z</time>
      </trkpt>
      <trkpt lat="48.66679" lon="6.09091">
        <ele>364</ele>
        <time>2013-07-14T11:02:25Z</time>
      </trkpt>
      <trkpt lat="48.66686" lon="6.09109">
        <ele>363</ele>
        <time>2013-07-14T11:02:27Z</time>
      </trkpt>
      <trkpt lat="48.66695" lon="6.09116">
        <ele>359</ele>
        <time>2013-07-14T11:02:29Z</time>
      </trkpt>
      <trkpt lat="48.66707" lon="6.09118">
        <ele>364</ele>
        <time>2013-07-14T11:02:35Z</time>
      </trkpt>
      <trkpt lat="48.6671" lon="6.0912">
        <ele>366</ele>
        <time>2013-07-14T11:02:37Z</time>
      </trkpt>
      <trkpt lat="48.6671" lon="6.09122">
        <ele>367</ele>
        <time>2013-07-14T11:02:39Z</time>
      </trkpt>
      <trkpt lat="48.66712" lon="6.09123">
        <ele>369</ele>
        <time>2013-07-14T11:02:41Z</time>
      </trkpt>
      <trkpt lat="48.66715" lon="6.09125">
        <ele>370</ele>
        <time>2013-07-14T11:02:43Z</time>
      </trkpt>
      <trkpt lat="48.66718" lon="6.09126">
        <ele>372</ele>
        <time>2013-07-14T11:02:45Z</time>
      </trkpt>
      <trkpt lat="48.66721" lon="6.09126">
        <ele>370</ele>
        <time>2013-07-14T11:02:47Z</time>
      </trkpt>
      <trkpt lat="48.66726" lon="6.09125">
        <ele>368</ele>
        <time>2013-07-14T11:02:49Z</time>
      </trkpt>
      <trkpt lat="48.66732" lon="6.09123">
        <ele>365</ele>
        <time>2013-07-14T11:02:51Z</time>
      </trkpt>
      <trkpt lat="48.66739" lon="6.09122">
        <ele>364</ele>
        <time>2013-07-14T11:02:53Z</time>
      </trkpt>
      <trkpt lat="48.66745" lon="6.0912">
        <ele>364</ele>
        <time>2013-07-14T11:02:55Z</time>
      </trkpt>
      <trkpt lat="48.6675" lon="6.09118">
        <ele>365</ele>
        <time>2013-07-14T11:02:57Z</time>
      </trkpt>
      <trkpt lat="48.66756" lon="6.09118">
        <ele>365</ele>
        <time>2013-07-14T11:02:59Z</time>
      </trkpt>
      <trkpt lat="48.66762" lon="6.09118">
        <ele>362</ele>
        <time>2013-07-14T11:03:01Z</time>
      </trkpt>
      <trkpt lat="48.66777" lon="6.09117">
        <ele>361</ele>
        <time>2013-07-14T11:03:06Z</time>
      </trkpt>
      <trkpt lat="48.66783" lon="6.09117">
        <ele>364</ele>
        <time>2013-07-14T11:03:08Z</time>
      </trkpt>
      <trkpt lat="48.66788" lon="6.09119">
        <ele>364</ele>
        <time>2013-07-14T11:03:10Z</time>
      </trkpt>
      <trkpt lat="48.66792" lon="6.0912">
        <ele>365</ele>
        <time>2013-07-14T11:03:12Z</time>
      </trkpt>
      <trkpt lat="48.66797" lon="6.09122">
        <ele>365</ele>
        <time>2013-07-14T11:03:14Z</time>
      </trkpt>
      <trkpt lat="48.668" lon="6.09123">
        <ele>364</ele>
        <time>2013-07-14T11:03:16Z</time>
      </trkpt>
      <trkpt lat="48.66802" lon="6.09124">
        <ele>367</ele>
        <time>2013-07-14T11:03:18Z</time>
      </trkpt>
      <trkpt lat="48.66805" lon="6.09125">
        <ele>367</ele>
        <time>2013-07-14T11:03:20Z</time>
      </trkpt>
      <trkpt lat="48.66808" lon="6.09126">
        <ele>368</ele>
        <time>2013-07-14T11:03:22Z</time>
      </trkpt>
      <trkpt lat="48.66811" lon="6.09129">
        <ele>370</ele>
        <time>2013-07-14T11:03:24Z</time>
      </trkpt>
      <trkpt lat="48.66814" lon="6.09133">
        <ele>371</ele>
        <time>2013-07-14T11:03:26Z</time>
      </trkpt>
      <trkpt lat="48.66816" lon="6.09139">
        <ele>371</ele>
        <time>2013-07-14T11:03:28Z</time>
      </trkpt>
      <trkpt lat="48.6682" lon="6.09144">
        <ele>370</ele>
        <time>2013-07-14T11:03:30Z</time>
      </trkpt>
      <trkpt lat="48.66822" lon="6.0915">
        <ele>370</ele>
        <time>2013-07-14T11:03:32Z</time>
      </trkpt>
      <trkpt lat="48.66823" lon="6.09155">
        <ele>369</ele>
        <time>2013-07-14T11:03:34Z</time>
      </trkpt>
      <trkpt lat="48.66825" lon="6.0916">
        <ele>369</ele>
        <time>2013-07-14T11:03:36Z</time>
      </trkpt>
      <trkpt lat="48.66826" lon="6.09165">
        <ele>369</ele>
        <time>2013-07-14T11:03:38Z</time>
      </trkpt>
      <trkpt lat="48.66827" lon="6.09171">
        <ele>368</ele>
        <time>2013-07-14T11:03:40Z</time>
      </trkpt>
      <trkpt lat="48.66828" lon="6.09176">
        <ele>369</ele>
        <time>2013-07-14T11:03:42Z</time>
      </trkpt>
      <trkpt lat="48.66828" lon="6.0918">
        <ele>368</ele>
        <time>2013-07-14T11:03:44Z</time>
      </trkpt>
      <trkpt lat="48.66828" lon="6.09184">
        <ele>368</ele>
        <time>2013-07-14T11:03:46Z</time>
      </trkpt>
      <trkpt lat="48.66827" lon="6.09188">
        <ele>368</ele>
        <time>2013-07-14T11:03:48Z</time>
      </trkpt>
      <trkpt lat="48.66826" lon="6.09193">
        <ele>370</ele>
        <time>2013-07-14T11:03:50Z</time>
      </trkpt>
      <trkpt lat="48.66825" lon="6.09197">
        <ele>371</ele>
        <time>2013-07-14T11:03:52Z</time>
      </trkpt>
      <trkpt lat="48.66823" lon="6.09202">
        <ele>371</ele>
        <time>2013-07-14T11:03:54Z</time>
      </trkpt>
      <trkpt lat="48.6682" lon="6.09206">
        <ele>372</ele>
        <time>2013-07-14T11:03:56Z</time>
      </trkpt>
      <trkpt lat="48.66817" lon="6.0921">
        <ele>372</ele>
        <time>2013-07-14T11:03:58Z</time>
      </trkpt>
      <trkpt lat="48.66814" lon="6.09215">
        <ele>371</ele>
        <time>2013-07-14T11:04:00Z</time>
      </trkpt>
      <trkpt lat="48.66812" lon="6.09221">
        <ele>370</ele>
        <time>2013-07-14T11:04:02Z</time>
      </trkpt>
      <trkpt lat="48.66808" lon="6.09225">
        <ele>370</ele>
        <time>2013-07-14T11:04:04Z</time>
      </trkpt>
      <trkpt lat="48.66804" lon="6.09229">
        <ele>369</ele>
        <time>2013-07-14T11:04:06Z</time>
      </trkpt>
      <trkpt lat="48.66799" lon="6.09232">
        <ele>369</ele>
        <time>2013-07-14T11:04:10Z</time>
      </trkpt>
      <trkpt lat="48.66797" lon="6.09235">
        <ele>373</ele>
        <time>2013-07-14T11:04:12Z</time>
      </trkpt>
      <trkpt lat="48.66793" lon="6.09239">
        <ele>373</ele>
        <time>2013-07-14T11:04:14Z</time>
      </trkpt>
      <trkpt lat="48.66789" lon="6.09244">
        <ele>372</ele>
        <time>2013-07-14T11:04:16Z</time>
      </trkpt>
      <trkpt lat="48.66786" lon="6.09248">
        <ele>370</ele>
        <time>2013-07-14T11:04:18Z</time>
      </trkpt>
      <trkpt lat="48.66782" lon="6.09252">
        <ele>370</ele>
        <time>2013-07-14T11:04:20Z</time>
      </trkpt>
      <trkpt lat="48.66779" lon="6.09255">
        <ele>370</ele>
        <time>2013-07-14T11:04:22Z</time>
      </trkpt>
      <trkpt lat="48.66776" lon="6.09258">
        <ele>371</ele>
        <time>2013-07-14T11:04:24Z</time>
      </trkpt>
      <trkpt lat="48.66772" lon="6.09261">
        <ele>370</ele>
        <time>2013-07-14T11:04:26Z</time>
      </trkpt>
      <trkpt lat="48.66769" lon="6.09265">
        <ele>370</ele>
        <time>2013-07-14T11:04:28Z</time>
      </trkpt>
      <trkpt lat="48.66767" lon="6.0927">
        <ele>370</ele>
        <time>2013-07-14T11:04:30Z</time>
      </trkpt>
      <trkpt lat="48.66766" lon="6.09275">
        <ele>372</ele>
        <time>2013-07-14T11:04:32Z</time>
      </trkpt>
      <trkpt lat="48.66763" lon="6.09279">
        <ele>372</ele>
        <time>2013-07-14T11:04:34Z</time>
      </trkpt>
      <trkpt lat="48.66762" lon="6.09284">
        <ele>373</ele>
        <time>2013-07-14T11:04:36Z</time>
      </trkpt>
      <trkpt lat="48.66761" lon="6.09288">
        <ele>375</ele>
        <time>2013-07-14T11:04:38Z</time>
      </trkpt>
      <trkpt lat="48.6676" lon="6.09292">
        <ele>375</ele>
        <time>2013-07-14T11:04:40Z</time>
      </trkpt>
      <trkpt lat="48.66759" lon="6.09296">
        <ele>373</ele>
        <time>2013-07-14T11:04:42Z</time>
      </trkpt>
      <trkpt lat="48.66759" lon="6.09299">
        <ele>373</ele>
        <time>2013-07-14T11:04:43Z</time>
      </trkpt>
      <trkpt lat="48.66758" lon="6.09305">
        <ele>374</ele>
        <time>2013-07-14T11:04:45Z</time>
      </trkpt>
      <trkpt lat="48.66758" lon="6.09312">
        <ele>373</ele>
        <time>2013-07-14T11:04:47Z</time>
      </trkpt>
      <trkpt lat="48.66758" lon="6.09318">
        <ele>372</ele>
        <time>2013-07-14T11:04:49Z</time>
      </trkpt>
      <trkpt lat="48.66759" lon="6.09324">
        <ele>373</ele>
        <time>2013-07-14T11:04:51Z</time>
      </trkpt>
      <trkpt lat="48.6676" lon="6.09339">
        <ele>375</ele>
        <time>2013-07-14T11:04:56Z</time>
      </trkpt>
      <trkpt lat="48.6676" lon="6.09346">
        <ele>376</ele>
        <time>2013-07-14T11:04:58Z</time>
      </trkpt>
      <trkpt lat="48.66759" lon="6.09352">
        <ele>377</ele>
        <time>2013-07-14T11:05:00Z</time>
      </trkpt>
      <trkpt lat="48.66758" lon="6.09359">
        <ele>378</ele>
        <time>2013-07-14T11:05:02Z</time>
      </trkpt>
      <trkpt lat="48.66758" lon="6.09365">
        <ele>379</ele>
        <time>2013-07-14T11:05:04Z</time>
      </trkpt>
      <trkpt lat="48.66758" lon="6.09371">
        <ele>379</ele>
        <time>2013-07-14T11:05:06Z</time>
      </trkpt>
      <trkpt lat="48.66758" lon="6.09378">
        <ele>381</ele>
        <time>2013-07-14T11:05:08Z</time>
      </trkpt>
      <trkpt lat="48.66759" lon="6.09384">
        <ele>382</ele>
        <time>2013-07-14T11:05:10Z</time>
      </trkpt>
      <trkpt lat="48.6676" lon="6.0939">
        <ele>384</ele>
        <time>2013-07-14T11:05:12Z</time>
      </trkpt>
      <trkpt lat="48.6676" lon="6.09399">
        <ele>384</ele>
        <time>2013-07-14T11:05:14Z</time>
      </trkpt>
      <trkpt lat="48.66761" lon="6.09406">
        <ele>384</ele>
        <time>2013-07-14T11:05:16Z</time>
      </trkpt>
      <trkpt lat="48.66761" lon="6.09414">
        <ele>386</ele>
        <time>2013-07-14T11:05:18Z</time>
      </trkpt>
      <trkpt lat="48.66761" lon="6.0942">
        <ele>387</ele>
        <time>2013-07-14T11:05:20Z</time>
      </trkpt>
      <trkpt lat="48.66762" lon="6.09426">
        <ele>389</ele>
        <time>2013-07-14T11:05:22Z</time>
      </trkpt>
      <trkpt lat="48.66763" lon="6.09434">
        <ele>389</ele>
        <time>2013-07-14T11:05:24Z</time>
      </trkpt>
      <trkpt lat="48.66763" lon="6.09441">
        <ele>391</ele>
        <time>2013-07-14T11:05:26Z</time>
      </trkpt>
      <trkpt lat="48.66763" lon="6.0945">
        <ele>391</ele>
        <time>2013-07-14T11:05:28Z</time>
      </trkpt>
      <trkpt lat="48.66763" lon="6.09461">
        <ele>388</ele>
        <time>2013-07-14T11:05:30Z</time>
      </trkpt>
      <trkpt lat="48.66763" lon="6.09472">
        <ele>386</ele>
        <time>2013-07-14T11:05:32Z</time>
      </trkpt>
      <trkpt lat="48.66762" lon="6.09481">
        <ele>388</ele>
        <time>2013-07-14T11:05:34Z</time>
      </trkpt>
      <trkpt lat="48.66762" lon="6.09489">
        <ele>388</ele>
        <time>2013-07-14T11:05:36Z</time>
      </trkpt>
      <trkpt lat="48.66761" lon="6.09498">
        <ele>388</ele>
        <time>2013-07-14T11:05:38Z</time>
      </trkpt>
      <trkpt lat="48.6676" lon="6.09507">
        <ele>389</ele>
        <time>2013-07-14T11:05:40Z</time>
      </trkpt>
      <trkpt lat="48.66761" lon="6.09514">
        <ele>388</ele>
        <time>2013-07-14T11:05:42Z</time>
      </trkpt>
      <trkpt lat="48.66761" lon="6.09523">
        <ele>386</ele>
        <time>2013-07-14T11:05:44Z</time>
      </trkpt>
      <trkpt lat="48.66761" lon="6.09532">
        <ele>388</ele>
        <time>2013-07-14T11:05:46Z</time>
      </trkpt>
      <trkpt lat="48.66761" lon="6.09539">
        <ele>388</ele>
        <time>2013-07-14T11:05:48Z</time>
      </trkpt>
      <trkpt lat="48.66761" lon="6.09548">
        <ele>390</ele>
        <time>2013-07-14T11:05:50Z</time>
      </trkpt>
      <trkpt lat="48.66761" lon="6.09558">
        <ele>391</ele>
        <time>2013-07-14T11:05:52Z</time>
      </trkpt>
      <trkpt lat="48.66761" lon="6.09569">
        <ele>392</ele>
        <time>2013-07-14T11:05:54Z</time>
      </trkpt>
      <trkpt lat="48.66762" lon="6.0958">
        <ele>392</ele>
        <time>2013-07-14T11:05:56Z</time>
      </trkpt>
      <trkpt lat="48.66762" lon="6.09592">
        <ele>392</ele>
        <time>2013-07-14T11:05:58Z</time>
      </trkpt>
      <trkpt lat="48.6676" lon="6.09606">
        <ele>390</ele>
        <time>2013-07-14T11:06:00Z</time>
      </trkpt>
      <trkpt lat="48.6676" lon="6.09617">
        <ele>388</ele>
        <time>2013-07-14T11:06:02Z</time>
      </trkpt>
      <trkpt lat="48.66758" lon="6.09631">
        <ele>388</ele>
        <time>2013-07-14T11:06:04Z</time>
      </trkpt>
      <trkpt lat="48.66758" lon="6.09642">
        <ele>387</ele>
        <time>2013-07-14T11:06:06Z</time>
      </trkpt>
      <trkpt lat="48.66756" lon="6.09654">
        <ele>387</ele>
        <time>2013-07-14T11:06:08Z</time>
      </trkpt>
      <trkpt lat="48.66756" lon="6.09664">
        <ele>385</ele>
        <time>2013-07-14T11:06:10Z</time>
      </trkpt>
      <trkpt lat="48.66755" lon="6.09672">
        <ele>388</ele>
        <time>2013-07-14T11:06:12Z</time>
      </trkpt>
      <trkpt lat="48.66753" lon="6.0968">
        <ele>392</ele>
        <time>2013-07-14T11:06:14Z</time>
      </trkpt>
      <trkpt lat="48.66753" lon="6.09692">
        <ele>391</ele>
        <time>2013-07-14T11:06:16Z</time>
      </trkpt>
      <trkpt lat="48.66753" lon="6.09703">
        <ele>391</ele>
        <time>2013-07-14T11:06:18Z</time>
      </trkpt>
      <trkpt lat="48.66753" lon="6.09716">
        <ele>389</ele>
        <time>2013-07-14T11:06:20Z</time>
      </trkpt>
      <trkpt lat="48.66753" lon="6.09728">
        <ele>391</ele>
        <time>2013-07-14T11:06:22Z</time>
      </trkpt>
      <trkpt lat="48.66753" lon="6.0974">
        <ele>396</ele>
        <time>2013-07-14T11:06:24Z</time>
      </trkpt>
      <trkpt lat="48.66753" lon="6.09752">
        <ele>395</ele>
        <time>2013-07-14T11:06:26Z</time>
      </trkpt>
      <trkpt lat="48.66752" lon="6.09763">
        <ele>395</ele>
        <time>2013-07-14T11:06:28Z</time>
      </trkpt>
      <trkpt lat="48.66751" lon="6.09772">
        <ele>394</ele>
        <time>2013-07-14T11:06:30Z</time>
      </trkpt>
      <trkpt lat="48.66751" lon="6.09782">
        <ele>393</ele>
        <time>2013-07-14T11:06:32Z</time>
      </trkpt>
      <trkpt lat="48.66752" lon="6.09794">
        <ele>391</ele>
        <time>2013-07-14T11:06:34Z</time>
      </trkpt>
      <trkpt lat="48.66752" lon="6.09805">
        <ele>391</ele>
        <time>2013-07-14T11:06:36Z</time>
      </trkpt>
      <trkpt lat="48.66752" lon="6.09817">
        <ele>392</ele>
        <time>2013-07-14T11:06:38Z</time>
      </trkpt>
      <trkpt lat="48.66752" lon="6.09828">
        <ele>393</ele>
        <time>2013-07-14T11:06:40Z</time>
      </trkpt>
      <trkpt lat="48.66752" lon="6.09839">
        <ele>395</ele>
        <time>2013-07-14T11:06:42Z</time>
      </trkpt>
      <trkpt lat="48.66752" lon="6.09852">
        <ele>393</ele>
        <time>2013-07-14T11:06:44Z</time>
      </trkpt>
      <trkpt lat="48.66753" lon="6.09866">
        <ele>390</ele>
        <time>2013-07-14T11:06:46Z</time>
      </trkpt>
      <trkpt lat="48.66753" lon="6.09881">
        <ele>387</ele>
        <time>2013-07-14T11:06:48Z</time>
      </trkpt>
      <trkpt lat="48.66755" lon="6.09895">
        <ele>387</ele>
        <time>2013-07-14T11:06:50Z</time>
      </trkpt>
      <trkpt lat="48.66757" lon="6.09905">
        <ele>387</ele>
        <time>2013-07-14T11:06:52Z</time>
      </trkpt>
      <trkpt lat="48.66759" lon="6.09916">
        <ele>389</ele>
        <time>2013-07-14T11:06:54Z</time>
      </trkpt>
      <trkpt lat="48.6676" lon="6.09931">
        <ele>386</ele>
        <time>2013-07-14T11:06:56Z</time>
      </trkpt>
      <trkpt lat="48.6676" lon="6.09948">
        <ele>386</ele>
        <time>2013-07-14T11:06:58Z</time>
      </trkpt>
      <trkpt lat="48.66758" lon="6.09965">
        <ele>385</ele>
        <time>2013-07-14T11:07:00Z</time>
      </trkpt>
      <trkpt lat="48.66758" lon="6.0998">
        <ele>384</ele>
        <time>2013-07-14T11:07:02Z</time>
      </trkpt>
      <trkpt lat="48.66758" lon="6.09993">
        <ele>386</ele>
        <time>2013-07-14T11:07:04Z</time>
      </trkpt>
      <trkpt lat="48.66758" lon="6.10007">
        <ele>389</ele>
        <time>2013-07-14T11:07:06Z</time>
      </trkpt>
      <trkpt lat="48.66759" lon="6.10022">
        <ele>391</ele>
        <time>2013-07-14T11:07:08Z</time>
      </trkpt>
      <trkpt lat="48.66761" lon="6.10034">
        <ele>391</ele>
        <time>2013-07-14T11:07:10Z</time>
      </trkpt>
      <trkpt lat="48.66761" lon="6.10049">
        <ele>393</ele>
        <time>2013-07-14T11:07:12Z</time>
      </trkpt>
      <trkpt lat="48.66761" lon="6.10067">
        <ele>395</ele>
        <time>2013-07-14T11:07:14Z</time>
      </trkpt>
      <trkpt lat="48.6676" lon="6.10087">
        <ele>395</ele>
        <time>2013-07-14T11:07:16Z</time>
      </trkpt>
      <trkpt lat="48.66758" lon="6.10108">
        <ele>392</ele>
        <time>2013-07-14T11:07:18Z</time>
      </trkpt>
      <trkpt lat="48.66758" lon="6.10128">
        <ele>390</ele>
        <time>2013-07-14T11:07:20Z</time>
      </trkpt>
      <trkpt lat="48.66758" lon="6.10148">
        <ele>387</ele>
        <time>2013-07-14T11:07:22Z</time>
      </trkpt>
      <trkpt lat="48.66759" lon="6.10167">
        <ele>387</ele>
        <time>2013-07-14T11:07:24Z</time>
      </trkpt>
      <trkpt lat="48.66758" lon="6.10186">
        <ele>387</ele>
        <time>2013-07-14T11:07:26Z</time>
      </trkpt>
      <trkpt lat="48.66758" lon="6.10206">
        <ele>390</ele>
        <time>2013-07-14T11:07:28Z</time>
      </trkpt>
      <trkpt lat="48.66757" lon="6.10227">
        <ele>390</ele>
        <time>2013-07-14T11:07:30Z</time>
      </trkpt>
      <trkpt lat="48.66756" lon="6.10251">
        <ele>388</ele>
        <time>2013-07-14T11:07:32Z</time>
      </trkpt>
      <trkpt lat="48.66755" lon="6.10275">
        <ele>387</ele>
        <time>2013-07-14T11:07:34Z</time>
      </trkpt>
      <trkpt lat="48.66756" lon="6.10296">
        <ele>390</ele>
        <time>2013-07-14T11:07:36Z</time>
      </trkpt>
      <trkpt lat="48.66755" lon="6.10321">
        <ele>388</ele>
        <time>2013-07-14T11:07:38Z</time>
      </trkpt>
      <trkpt lat="48.66755" lon="6.10344">
        <ele>392</ele>
        <time>2013-07-14T11:07:40Z</time>
      </trkpt>
      <trkpt lat="48.66755" lon="6.10368">
        <ele>390</ele>
        <time>2013-07-14T11:07:42Z</time>
      </trkpt>
      <trkpt lat="48.66754" lon="6.10393">
        <ele>389</ele>
        <time>2013-07-14T11:07:44Z</time>
      </trkpt>
      <trkpt lat="48.66755" lon="6.1042">
        <ele>387</ele>
        <time>2013-07-14T11:07:46Z</time>
      </trkpt>
      <trkpt lat="48.66756" lon="6.10446">
        <ele>389</ele>
        <time>2013-07-14T11:07:48Z</time>
      </trkpt>
      <trkpt lat="48.66758" lon="6.10474">
        <ele>389</ele>
        <time>2013-07-14T11:07:50Z</time>
      </trkpt>
      <trkpt lat="48.66758" lon="6.105">
        <ele>392</ele>
        <time>2013-07-14T11:07:52Z</time>
      </trkpt>
      <trkpt lat="48.66759" lon="6.10524">
        <ele>393</ele>
        <time>2013-07-14T11:07:54Z</time>
      </trkpt>
      <trkpt lat="48.6676" lon="6.1055">
        <ele>396</ele>
        <time>2013-07-14T11:07:56Z</time>
      </trkpt>
      <trkpt lat="48.6676" lon="6.10575">
        <ele>396</ele>
        <time>2013-07-14T11:07:58Z</time>
      </trkpt>
      <trkpt lat="48.6676" lon="6.10603">
        <ele>396</ele>
        <time>2013-07-14T11:08:00Z</time>
      </trkpt>
      <trkpt lat="48.66759" lon="6.10631">
        <ele>393</ele>
        <time>2013-07-14T11:08:02Z</time>
      </trkpt>
      <trkpt lat="48.6676" lon="6.10656">
        <ele>391</ele>
        <time>2013-07-14T11:08:04Z</time>
      </trkpt>
      <trkpt lat="48.66763" lon="6.10676">
        <ele>393</ele>
        <time>2013-07-14T11:08:06Z</time>
      </trkpt>
      <trkpt lat="48.66762" lon="6.10698">
        <ele>392</ele>
        <time>2013-07-14T11:08:08Z</time>
      </trkpt>
      <trkpt lat="48.66761" lon="6.10723">
        <ele>395</ele>
        <time>2013-07-14T11:08:10Z</time>
      </trkpt>
      <trkpt lat="48.66759" lon="6.10748">
        <ele>393</ele>
        <time>2013-07-14T11:08:12Z</time>
      </trkpt>
      <trkpt lat="48.66758" lon="6.10773">
        <ele>392</ele>
        <time>2013-07-14T11:08:14Z</time>
      </trkpt>
      <trkpt lat="48.66752" lon="6.108">
        <ele>388</ele>
        <time>2013-07-14T11:08:16Z</time>
      </trkpt>
      <trkpt lat="48.66746" lon="6.10827">
        <ele>385</ele>
        <time>2013-07-14T11:08:18Z</time>
      </trkpt>
      <trkpt lat="48.66743" lon="6.1085">
        <ele>384</ele>
        <time>2013-07-14T11:08:20Z</time>
      </trkpt>
      <trkpt lat="48.66742" lon="6.1087">
        <ele>381</ele>
        <time>2013-07-14T11:08:22Z</time>
      </trkpt>
      <trkpt lat="48.66744" lon="6.10888">
        <ele>379</ele>
        <time>2013-07-14T11:08:24Z</time>
      </trkpt>
      <trkpt lat="48.66747" lon="6.10909">
        <ele>374</ele>
        <time>2013-07-14T11:08:26Z</time>
      </trkpt>
      <trkpt lat="48.6675" lon="6.10928">
        <ele>374</ele>
        <time>2013-07-14T11:08:28Z</time>
      </trkpt>
      <trkpt lat="48.66752" lon="6.10946">
        <ele>374</ele>
        <time>2013-07-14T11:08:30Z</time>
      </trkpt>
      <trkpt lat="48.66754" lon="6.10965">
        <ele>377</ele>
        <time>2013-07-14T11:08:32Z</time>
      </trkpt>
      <trkpt lat="48.66754" lon="6.10986">
        <ele>375</ele>
        <time>2013-07-14T11:08:34Z</time>
      </trkpt>
      <trkpt lat="48.66753" lon="6.11008">
        <ele>373</ele>
        <time>2013-07-14T11:08:36Z</time>
      </trkpt>
      <trkpt lat="48.66752" lon="6.11026">
        <ele>373</ele>
        <time>2013-07-14T11:08:38Z</time>
      </trkpt>
      <trkpt lat="48.66753" lon="6.11041">
        <ele>375</ele>
        <time>2013-07-14T11:08:40Z</time>
      </trkpt>
      <trkpt lat="48.66753" lon="6.11058">
        <ele>376</ele>
        <time>2013-07-14T11:08:42Z</time>
      </trkpt>
      <trkpt lat="48.66753" lon="6.11078">
        <ele>375</ele>
        <time>2013-07-14T11:08:44Z</time>
      </trkpt>
      <trkpt lat="48.66752" lon="6.11095">
        <ele>375</ele>
        <time>2013-07-14T11:08:46Z</time>
      </trkpt>
      <trkpt lat="48.66749" lon="6.11111">
        <ele>374</ele>
        <time>2013-07-14T11:08:48Z</time>
      </trkpt>
      <trkpt lat="48.6674" lon="6.11121">
        <ele>375</ele>
        <time>2013-07-14T11:08:50Z</time>
      </trkpt>
      <trkpt lat="48.66733" lon="6.11127">
        <ele>376</ele>
        <time>2013-07-14T11:08:52Z</time>
      </trkpt>
      <trkpt lat="48.66723" lon="6.11131">
        <ele>375</ele>
        <time>2013-07-14T11:08:54Z</time>
      </trkpt>
      <trkpt lat="48.66713" lon="6.11136">
        <ele>372</ele>
        <time>2013-07-14T11:08:56Z</time>
      </trkpt>
      <trkpt lat="48.66703" lon="6.1114">
        <ele>370</ele>
        <time>2013-07-14T11:08:58Z</time>
      </trkpt>
      <trkpt lat="48.66695" lon="6.11143">
        <ele>366</ele>
        <time>2013-07-14T11:09:00Z</time>
      </trkpt>
      <trkpt lat="48.66683" lon="6.11146">
        <ele>364</ele>
        <time>2013-07-14T11:09:02Z</time>
      </trkpt>
      <trkpt lat="48.66671" lon="6.1115">
        <ele>364</ele>
        <time>2013-07-14T11:09:04Z</time>
      </trkpt>
      <trkpt lat="48.6666" lon="6.11153">
        <ele>361</ele>
        <time>2013-07-14T11:09:06Z</time>
      </trkpt>
      <trkpt lat="48.66649" lon="6.11156">
        <ele>358</ele>
        <time>2013-07-14T11:09:08Z</time>
      </trkpt>
      <trkpt lat="48.66637" lon="6.1116">
        <ele>352</ele>
        <time>2013-07-14T11:09:10Z</time>
      </trkpt>
      <trkpt lat="48.66626" lon="6.11164">
        <ele>353</ele>
        <time>2013-07-14T11:09:12Z</time>
      </trkpt>
      <trkpt lat="48.66615" lon="6.11166">
        <ele>356</ele>
        <time>2013-07-14T11:09:14Z</time>
      </trkpt>
      <trkpt lat="48.66605" lon="6.11168">
        <ele>359</ele>
        <time>2013-07-14T11:09:16Z</time>
      </trkpt>
      <trkpt lat="48.66595" lon="6.11169">
        <ele>359</ele>
        <time>2013-07-14T11:09:18Z</time>
      </trkpt>
      <trkpt lat="48.66585" lon="6.11171">
        <ele>358</ele>
        <time>2013-07-14T11:09:20Z</time>
      </trkpt>
      <trkpt lat="48.66574" lon="6.11174">
        <ele>358</ele>
        <time>2013-07-14T11:09:22Z</time>
      </trkpt>
      <trkpt lat="48.66563" lon="6.11177">
        <ele>357</ele>
        <time>2013-07-14T11:09:24Z</time>
      </trkpt>
      <trkpt lat="48.66551" lon="6.1118">
        <ele>357</ele>
        <time>2013-07-14T11:09:26Z</time>
      </trkpt>
      <trkpt lat="48.66538" lon="6.11183">
        <ele>358</ele>
        <time>2013-07-14T11:09:28Z</time>
      </trkpt>
      <trkpt lat="48.66525" lon="6.11184">
        <ele>356</ele>
        <time>2013-07-14T11:09:30Z</time>
      </trkpt>
      <trkpt lat="48.66514" lon="6.11187">
        <ele>357</ele>
        <time>2013-07-14T11:09:32Z</time>
      </trkpt>
      <trkpt lat="48.66504" lon="6.1119">
        <ele>359</ele>
        <time>2013-07-14T11:09:34Z</time>
      </trkpt>
      <trkpt lat="48.66494" lon="6.11194">
        <ele>359</ele>
        <time>2013-07-14T11:09:36Z</time>
      </trkpt>
      <trkpt lat="48.66485" lon="6.11199">
        <ele>360</ele>
        <time>2013-07-14T11:09:38Z</time>
      </trkpt>
      <trkpt lat="48.66475" lon="6.11202">
        <ele>360</ele>
        <time>2013-07-14T11:09:40Z</time>
      </trkpt>
      <trkpt lat="48.66464" lon="6.11204">
        <ele>358</ele>
        <time>2013-07-14T11:09:42Z</time>
      </trkpt>
      <trkpt lat="48.66454" lon="6.11205">
        <ele>357</ele>
        <time>2013-07-14T11:09:44Z</time>
      </trkpt>
      <trkpt lat="48.66444" lon="6.11208">
        <ele>355</ele>
        <time>2013-07-14T11:09:46Z</time>
      </trkpt>
      <trkpt lat="48.66435" lon="6.11211">
        <ele>353</ele>
        <time>2013-07-14T11:09:48Z</time>
      </trkpt>
      <trkpt lat="48.66426" lon="6.11213">
        <ele>352</ele>
        <time>2013-07-14T11:09:50Z</time>
      </trkpt>
      <trkpt lat="48.66417" lon="6.11216">
        <ele>354</ele>
        <time>2013-07-14T11:09:52Z</time>
      </trkpt>
      <trkpt lat="48.66407" lon="6.1122">
        <ele>355</ele>
        <time>2013-07-14T11:09:54Z</time>
      </trkpt>
      <trkpt lat="48.66397" lon="6.11223">
        <ele>353</ele>
        <time>2013-07-14T11:09:56Z</time>
      </trkpt>
      <trkpt lat="48.66386" lon="6.11225">
        <ele>353</ele>
        <time>2013-07-14T11:09:58Z</time>
      </trkpt>
      <trkpt lat="48.66377" lon="6.11228">
        <ele>354</ele>
        <time>2013-07-14T11:10:00Z</time>
      </trkpt>
      <trkpt lat="48.66368" lon="6.1123">
        <ele>353</ele>
        <time>2013-07-14T11:10:02Z</time>
      </trkpt>
      <trkpt lat="48.66361" lon="6.11232">
        <ele>351</ele>
        <time>2013-07-14T11:10:04Z</time>
      </trkpt>
      <trkpt lat="48.66354" lon="6.11235">
        <ele>352</ele>
        <time>2013-07-14T11:10:06Z</time>
      </trkpt>
      <trkpt lat="48.66347" lon="6.11238">
        <ele>355</ele>
        <time>2013-07-14T11:10:08Z</time>
      </trkpt>
      <trkpt lat="48.66337" lon="6.11238">
        <ele>358</ele>
        <time>2013-07-14T11:10:10Z</time>
      </trkpt>
      <trkpt lat="48.66324" lon="6.11239">
        <ele>360</ele>
        <time>2013-07-14T11:10:12Z</time>
      </trkpt>
      <trkpt lat="48.66314" lon="6.11241">
        <ele>362</ele>
        <time>2013-07-14T11:10:14Z</time>
      </trkpt>
      <trkpt lat="48.66305" lon="6.11244">
        <ele>361</ele>
        <time>2013-07-14T11:10:16Z</time>
      </trkpt>
      <trkpt lat="48.66296" lon="6.11248">
        <ele>362</ele>
        <time>2013-07-14T11:10:18Z</time>
      </trkpt>
      <trkpt lat="48.66289" lon="6.11251">
        <ele>362</ele>
        <time>2013-07-14T11:10:20Z</time>
      </trkpt>
      <trkpt lat="48.66282" lon="6.11254">
        <ele>363</ele>
        <time>2013-07-14T11:10:22Z</time>
      </trkpt>
      <trkpt lat="48.66274" lon="6.11253">
        <ele>363</ele>
        <time>2013-07-14T11:10:24Z</time>
      </trkpt>
      <trkpt lat="48.66261" lon="6.11252">
        <ele>366</ele>
        <time>2013-07-14T11:10:26Z</time>
      </trkpt>
      <trkpt lat="48.6625" lon="6.1125">
        <ele>366</ele>
        <time>2013-07-14T11:10:28Z</time>
      </trkpt>
      <trkpt lat="48.66241" lon="6.11246">
        <ele>364</ele>
        <time>2013-07-14T11:10:30Z</time>
      </trkpt>
      <trkpt lat="48.66232" lon="6.1124">
        <ele>361</ele>
        <time>2013-07-14T11:10:32Z</time>
      </trkpt>
      <trkpt lat="48.66222" lon="6.11229">
        <ele>354</ele>
        <time>2013-07-14T11:10:34Z</time>
      </trkpt>
      <trkpt lat="48.66213" lon="6.11218">
        <ele>351</ele>
        <time>2013-07-14T11:10:36Z</time>
      </trkpt>
      <trkpt lat="48.66204" lon="6.1121">
        <ele>351</ele>
        <time>2013-07-14T11:10:38Z</time>
      </trkpt>
      <trkpt lat="48.66197" lon="6.11203">
        <ele>352</ele>
        <time>2013-07-14T11:10:40Z</time>
      </trkpt>
      <trkpt lat="48.66188" lon="6.11197">
        <ele>346</ele>
        <time>2013-07-14T11:10:42Z</time>
      </trkpt>
      <trkpt lat="48.66181" lon="6.11195">
        <ele>349</ele>
        <time>2013-07-14T11:10:44Z</time>
      </trkpt>
      <trkpt lat="48.66173" lon="6.11199">
        <ele>351</ele>
        <time>2013-07-14T11:10:46Z</time>
      </trkpt>
      <trkpt lat="48.66167" lon="6.11208">
        <ele>353</ele>
        <time>2013-07-14T11:10:48Z</time>
      </trkpt>
      <trkpt lat="48.66163" lon="6.11218">
        <ele>350</ele>
        <time>2013-07-14T11:10:50Z</time>
      </trkpt>
      <trkpt lat="48.6616" lon="6.11228">
        <ele>349</ele>
        <time>2013-07-14T11:10:52Z</time>
      </trkpt>
      <trkpt lat="48.66156" lon="6.11238">
        <ele>350</ele>
        <time>2013-07-14T11:10:54Z</time>
      </trkpt>
      <trkpt lat="48.66152" lon="6.11248">
        <ele>350</ele>
        <time>2013-07-14T11:10:56Z</time>
      </trkpt>
      <trkpt lat="48.66148" lon="6.11256">
        <ele>351</ele>
        <time>2013-07-14T11:10:58Z</time>
      </trkpt>
      <trkpt lat="48.66145" lon="6.11263">
        <ele>352</ele>
        <time>2013-07-14T11:11:00Z</time>
      </trkpt>
      <trkpt lat="48.6614" lon="6.11271">
        <ele>352</ele>
        <time>2013-07-14T11:11:02Z</time>
      </trkpt>
      <trkpt lat="48.66137" lon="6.1128">
        <ele>355</ele>
        <time>2013-07-14T11:11:04Z</time>
      </trkpt>
      <trkpt lat="48.66133" lon="6.11287">
        <ele>358</ele>
        <time>2013-07-14T11:11:06Z</time>
      </trkpt>
      <trkpt lat="48.66128" lon="6.11295">
        <ele>357</ele>
        <time>2013-07-14T11:11:08Z</time>
      </trkpt>
      <trkpt lat="48.66122" lon="6.11303">
        <ele>358</ele>
        <time>2013-07-14T11:11:10Z</time>
      </trkpt>
      <trkpt lat="48.66116" lon="6.11312">
        <ele>358</ele>
        <time>2013-07-14T11:11:12Z</time>
      </trkpt>
      <trkpt lat="48.66109" lon="6.11321">
        <ele>356</ele>
        <time>2013-07-14T11:11:14Z</time>
      </trkpt>
      <trkpt lat="48.66102" lon="6.11326">
        <ele>356</ele>
        <time>2013-07-14T11:11:16Z</time>
      </trkpt>
      <trkpt lat="48.66094" lon="6.11331">
        <ele>355</ele>
        <time>2013-07-14T11:11:18Z</time>
      </trkpt>
      <trkpt lat="48.66087" lon="6.11337">
        <ele>352</ele>
        <time>2013-07-14T11:11:20Z</time>
      </trkpt>
      <trkpt lat="48.66079" lon="6.11342">
        <ele>350</ele>
        <time>2013-07-14T11:11:22Z</time>
      </trkpt>
      <trkpt lat="48.66072" lon="6.11346">
        <ele>349</ele>
        <time>2013-07-14T11:11:24Z</time>
      </trkpt>
      <trkpt lat="48.66066" lon="6.11349">
        <ele>351</ele>
        <time>2013-07-14T11:11:26Z</time>
      </trkpt>
      <trkpt lat="48.6606" lon="6.11352">
        <ele>351</ele>
        <time>2013-07-14T11:11:28Z</time>
      </trkpt>
      <trkpt lat="48.66052" lon="6.11355">
        <ele>351</ele>
        <time>2013-07-14T11:11:30Z</time>
      </trkpt>
      <trkpt lat="48.66045" lon="6.11359">
        <ele>351</ele>
        <time>2013-07-14T11:11:32Z</time>
      </trkpt>
      <trkpt lat="48.66037" lon="6.11362">
        <ele>352</ele>
        <time>2013-07-14T11:11:34Z</time>
      </trkpt>
      <trkpt lat="48.6603" lon="6.11366">
        <ele>353</ele>
        <time>2013-07-14T11:11:36Z</time>
      </trkpt>
      <trkpt lat="48.66023" lon="6.11371">
        <ele>352</ele>
        <time>2013-07-14T11:11:38Z</time>
      </trkpt>
      <trkpt lat="48.66016" lon="6.11376">
        <ele>351</ele>
        <time>2013-07-14T11:11:40Z</time>
      </trkpt>
      <trkpt lat="48.66008" lon="6.11381">
        <ele>350</ele>
        <time>2013-07-14T11:11:42Z</time>
      </trkpt>
      <trkpt lat="48.66" lon="6.11384">
        <ele>349</ele>
        <time>2013-07-14T11:11:44Z</time>
      </trkpt>
      <trkpt lat="48.65993" lon="6.11388">
        <ele>351</ele>
        <time>2013-07-14T11:11:46Z</time>
      </trkpt>
      <trkpt lat="48.65986" lon="6.11393">
        <ele>352</ele>
        <time>2013-07-14T11:11:48Z</time>
      </trkpt>
      <trkpt lat="48.65977" lon="6.114">
        <ele>352</ele>
        <time>2013-07-14T11:11:50Z</time>
      </trkpt>
      <trkpt lat="48.65966" lon="6.11411">
        <ele>352</ele>
        <time>2013-07-14T11:11:52Z</time>
      </trkpt>
      <trkpt lat="48.65957" lon="6.11423">
        <ele>350</ele>
        <time>2013-07-14T11:11:54Z</time>
      </trkpt>
      <trkpt lat="48.65948" lon="6.11436">
        <ele>348</ele>
        <time>2013-07-14T11:11:56Z</time>
      </trkpt>
      <trkpt lat="48.65938" lon="6.1145">
        <ele>349</ele>
        <time>2013-07-14T11:11:58Z</time>
      </trkpt>
      <trkpt lat="48.65928" lon="6.11465">
        <ele>351</ele>
        <time>2013-07-14T11:12:00Z</time>
      </trkpt>
      <trkpt lat="48.65917" lon="6.11477">
        <ele>348</ele>
        <time>2013-07-14T11:12:02Z</time>
      </trkpt>
      <trkpt lat="48.65906" lon="6.11483">
        <ele>348</ele>
        <time>2013-07-14T11:12:04Z</time>
      </trkpt>
      <trkpt lat="48.65895" lon="6.11483">
        <ele>348</ele>
        <time>2013-07-14T11:12:06Z</time>
      </trkpt>
      <trkpt lat="48.65887" lon="6.11482">
        <ele>346</ele>
        <time>2013-07-14T11:12:08Z</time>
      </trkpt>
      <trkpt lat="48.65881" lon="6.11481">
        <ele>346</ele>
        <time>2013-07-14T11:12:10Z</time>
      </trkpt>
      <trkpt lat="48.65875" lon="6.1148">
        <ele>347</ele>
        <time>2013-07-14T11:12:12Z</time>
      </trkpt>
      <trkpt lat="48.65871" lon="6.11479">
        <ele>349</ele>
        <time>2013-07-14T11:12:14Z</time>
      </trkpt>
      <trkpt lat="48.6587" lon="6.11482">
        <ele>353</ele>
        <time>2013-07-14T11:12:16Z</time>
      </trkpt>
      <trkpt lat="48.65873" lon="6.11495">
        <ele>349</ele>
        <time>2013-07-14T11:12:20Z</time>
      </trkpt>
      <trkpt lat="48.65874" lon="6.11507">
        <ele>350</ele>
        <time>2013-07-14T11:12:22Z</time>
      </trkpt>
      <trkpt lat="48.65873" lon="6.11522">
        <ele>352</ele>
        <time>2013-07-14T11:12:24Z</time>
      </trkpt>
      <trkpt lat="48.65871" lon="6.1154">
        <ele>352</ele>
        <time>2013-07-14T11:12:26Z</time>
      </trkpt>
      <trkpt lat="48.65869" lon="6.11558">
        <ele>349</ele>
        <time>2013-07-14T11:12:28Z</time>
      </trkpt>
      <trkpt lat="48.65872" lon="6.11576">
        <ele>343</ele>
        <time>2013-07-14T11:12:30Z</time>
      </trkpt>
      <trkpt lat="48.65875" lon="6.11595">
        <ele>341</ele>
        <time>2013-07-14T11:12:32Z</time>
      </trkpt>
      <trkpt lat="48.65877" lon="6.11615">
        <ele>340</ele>
        <time>2013-07-14T11:12:34Z</time>
      </trkpt>
      <trkpt lat="48.65879" lon="6.11635">
        <ele>342</ele>
        <time>2013-07-14T11:12:36Z</time>
      </trkpt>
      <trkpt lat="48.65881" lon="6.11655">
        <ele>342</ele>
        <time>2013-07-14T11:12:38Z</time>
      </trkpt>
      <trkpt lat="48.65883" lon="6.11676">
        <ele>342</ele>
        <time>2013-07-14T11:12:40Z</time>
      </trkpt>
      <trkpt lat="48.65884" lon="6.11696">
        <ele>342</ele>
        <time>2013-07-14T11:12:42Z</time>
      </trkpt>
      <trkpt lat="48.65885" lon="6.11717">
        <ele>340</ele>
        <time>2013-07-14T11:12:44Z</time>
      </trkpt>
      <trkpt lat="48.65887" lon="6.11736">
        <ele>339</ele>
        <time>2013-07-14T11:12:46Z</time>
      </trkpt>
      <trkpt lat="48.65889" lon="6.11755">
        <ele>340</ele>
        <time>2013-07-14T11:12:48Z</time>
      </trkpt>
      <trkpt lat="48.65889" lon="6.11772">
        <ele>341</ele>
        <time>2013-07-14T11:12:50Z</time>
      </trkpt>
      <trkpt lat="48.65889" lon="6.11787">
        <ele>342</ele>
        <time>2013-07-14T11:12:52Z</time>
      </trkpt>
      <trkpt lat="48.65889" lon="6.11797">
        <ele>343</ele>
        <time>2013-07-14T11:12:54Z</time>
      </trkpt>
      <trkpt lat="48.65888" lon="6.11804">
        <ele>339</ele>
        <time>2013-07-14T11:12:56Z</time>
      </trkpt>
      <trkpt lat="48.65886" lon="6.1181">
        <ele>340</ele>
        <time>2013-07-14T11:12:58Z</time>
      </trkpt>
      <trkpt lat="48.65881" lon="6.11827">
        <ele>345</ele>
        <time>2013-07-14T11:13:04Z</time>
      </trkpt>
      <trkpt lat="48.65877" lon="6.11838">
        <ele>352</ele>
        <time>2013-07-14T11:13:08Z</time>
      </trkpt>
      <trkpt lat="48.65875" lon="6.11846">
        <ele>353</ele>
        <time>2013-07-14T11:13:10Z</time>
      </trkpt>
      <trkpt lat="48.65872" lon="6.11859">
        <ele>359</ele>
        <time>2013-07-14T11:13:14Z</time>
      </trkpt>
      <trkpt lat="48.65869" lon="6.11869">
        <ele>365</ele>
        <time>2013-07-14T11:13:18Z</time>
      </trkpt>
      <trkpt lat="48.65866" lon="6.11876">
        <ele>367</ele>
        <time>2013-07-14T11:13:20Z</time>
      </trkpt>
      <trkpt lat="48.65865" lon="6.11883">
        <ele>367</ele>
        <time>2013-07-14T11:13:22Z</time>
      </trkpt>
      <trkpt lat="48.65863" lon="6.1189">
        <ele>365</ele>
        <time>2013-07-14T11:13:24Z</time>
      </trkpt>
      <trkpt lat="48.65861" lon="6.11896">
        <ele>363</ele>
        <time>2013-07-14T11:13:26Z</time>
      </trkpt>
      <trkpt lat="48.6586" lon="6.11903">
        <ele>361</ele>
        <time>2013-07-14T11:13:28Z</time>
      </trkpt>
      <trkpt lat="48.65859" lon="6.1191">
        <ele>359</ele>
        <time>2013-07-14T11:13:30Z</time>
      </trkpt>
      <trkpt lat="48.65857" lon="6.11918">
        <ele>358</ele>
        <time>2013-07-14T11:13:32Z</time>
      </trkpt>
      <trkpt lat="48.65855" lon="6.11925">
        <ele>357</ele>
        <time>2013-07-14T11:13:34Z</time>
      </trkpt>
      <trkpt lat="48.65853" lon="6.11931">
        <ele>354</ele>
        <time>2013-07-14T11:13:36Z</time>
      </trkpt>
      <trkpt lat="48.65851" lon="6.11938">
        <ele>353</ele>
        <time>2013-07-14T11:13:38Z</time>
      </trkpt>
      <trkpt lat="48.65849" lon="6.11945">
        <ele>352</ele>
        <time>2013-07-14T11:13:40Z</time>
      </trkpt>
      <trkpt lat="48.65848" lon="6.11951">
        <ele>354</ele>
        <time>2013-07-14T11:13:42Z</time>
      </trkpt>
      <trkpt lat="48.65847" lon="6.11958">
        <ele>355</ele>
        <time>2013-07-14T11:13:44Z</time>
      </trkpt>
      <trkpt lat="48.65846" lon="6.11964">
        <ele>356</ele>
        <time>2013-07-14T11:13:46Z</time>
      </trkpt>
      <trkpt lat="48.65844" lon="6.11971">
        <ele>357</ele>
        <time>2013-07-14T11:13:48Z</time>
      </trkpt>
      <trkpt lat="48.65842" lon="6.11977">
        <ele>358</ele>
        <time>2013-07-14T11:13:50Z</time>
      </trkpt>
      <trkpt lat="48.65841" lon="6.11984">
        <ele>361</ele>
        <time>2013-07-14T11:13:52Z</time>
      </trkpt>
      <trkpt lat="48.65838" lon="6.11996">
        <ele>361</ele>
        <time>2013-07-14T11:13:56Z</time>
      </trkpt>
      <trkpt lat="48.65837" lon="6.12004">
        <ele>360</ele>
        <time>2013-07-14T11:13:58Z</time>
      </trkpt>
      <trkpt lat="48.65836" lon="6.12013">
        <ele>363</ele>
        <time>2013-07-14T11:14:00Z</time>
      </trkpt>
      <trkpt lat="48.65836" lon="6.12021">
        <ele>361</ele>
        <time>2013-07-14T11:14:02Z</time>
      </trkpt>
      <trkpt lat="48.65836" lon="6.12029">
        <ele>361</ele>
        <time>2013-07-14T11:14:04Z</time>
      </trkpt>
      <trkpt lat="48.65836" lon="6.12037">
        <ele>361</ele>
        <time>2013-07-14T11:14:06Z</time>
      </trkpt>
      <trkpt lat="48.65836" lon="6.12044">
        <ele>363</ele>
        <time>2013-07-14T11:14:08Z</time>
      </trkpt>
      <trkpt lat="48.65837" lon="6.12051">
        <ele>362</ele>
        <time>2013-07-14T11:14:10Z</time>
      </trkpt>
      <trkpt lat="48.65837" lon="6.12057">
        <ele>362</ele>
        <time>2013-07-14T11:14:12Z</time>
      </trkpt>
      <trkpt lat="48.65838" lon="6.12066">
        <ele>365</ele>
        <time>2013-07-14T11:14:14Z</time>
      </trkpt>
      <trkpt lat="48.65839" lon="6.12075">
        <ele>363</ele>
        <time>2013-07-14T11:14:16Z</time>
      </trkpt>
      <trkpt lat="48.65839" lon="6.12084">
        <ele>363</ele>
        <time>2013-07-14T11:14:18Z</time>
      </trkpt>
      <trkpt lat="48.6584" lon="6.12092">
        <ele>360</ele>
        <time>2013-07-14T11:14:20Z</time>
      </trkpt>
      <trkpt lat="48.65841" lon="6.121">
        <ele>359</ele>
        <time>2013-07-14T11:14:22Z</time>
      </trkpt>
      <trkpt lat="48.65842" lon="6.12107">
        <ele>360</ele>
        <time>2013-07-14T11:14:24Z</time>
      </trkpt>
      <trkpt lat="48.65842" lon="6.12115">
        <ele>359</ele>
        <time>2013-07-14T11:14:26Z</time>
      </trkpt>
      <trkpt lat="48.65844" lon="6.12123">
        <ele>361</ele>
        <time>2013-07-14T11:14:28Z</time>
      </trkpt>
      <trkpt lat="48.65846" lon="6.12132">
        <ele>356</ele>
        <time>2013-07-14T11:14:30Z</time>
      </trkpt>
      <trkpt lat="48.65847" lon="6.1214">
        <ele>357</ele>
        <time>2013-07-14T11:14:32Z</time>
      </trkpt>
      <trkpt lat="48.65849" lon="6.12146">
        <ele>358</ele>
        <time>2013-07-14T11:14:34Z</time>
      </trkpt>
      <trkpt lat="48.6585" lon="6.12153">
        <ele>359</ele>
        <time>2013-07-14T11:14:36Z</time>
      </trkpt>
      <trkpt lat="48.65852" lon="6.12161">
        <ele>359</ele>
        <time>2013-07-14T11:14:38Z</time>
      </trkpt>
      <trkpt lat="48.65855" lon="6.1217">
        <ele>364</ele>
        <time>2013-07-14T11:14:40Z</time>
      </trkpt>
      <trkpt lat="48.6586" lon="6.12189">
        <ele>366</ele>
        <time>2013-07-14T11:14:44Z</time>
      </trkpt>
      <trkpt lat="48.65862" lon="6.12198">
        <ele>364</ele>
        <time>2013-07-14T11:14:46Z</time>
      </trkpt>
      <trkpt lat="48.65864" lon="6.12206">
        <ele>361</ele>
        <time>2013-07-14T11:14:48Z</time>
      </trkpt>
      <trkpt lat="48.65867" lon="6.12214">
        <ele>359</ele>
        <time>2013-07-14T11:14:50Z</time>
      </trkpt>
      <trkpt lat="48.65868" lon="6.12221">
        <ele>357</ele>
        <time>2013-07-14T11:14:52Z</time>
      </trkpt>
      <trkpt lat="48.6587" lon="6.12228">
        <ele>358</ele>
        <time>2013-07-14T11:14:54Z</time>
      </trkpt>
      <trkpt lat="48.65873" lon="6.12235">
        <ele>360</ele>
        <time>2013-07-14T11:14:56Z</time>
      </trkpt>
      <trkpt lat="48.65874" lon="6.12242">
        <ele>358</ele>
        <time>2013-07-14T11:14:58Z</time>
      </trkpt>
      <trkpt lat="48.65876" lon="6.1225">
        <ele>359</ele>
        <time>2013-07-14T11:15:00Z</time>
      </trkpt>
      <trkpt lat="48.65878" lon="6.12258">
        <ele>360</ele>
        <time>2013-07-14T11:15:02Z</time>
      </trkpt>
      <trkpt lat="48.65881" lon="6.12265">
        <ele>359</ele>
        <time>2013-07-14T11:15:04Z</time>
      </trkpt>
      <trkpt lat="48.65884" lon="6.12272">
        <ele>360</ele>
        <time>2013-07-14T11:15:06Z</time>
      </trkpt>
      <trkpt lat="48.65886" lon="6.1228">
        <ele>362</ele>
        <time>2013-07-14T11:15:08Z</time>
      </trkpt>
      <trkpt lat="48.65889" lon="6.12288">
        <ele>363</ele>
        <time>2013-07-14T11:15:10Z</time>
      </trkpt>
      <trkpt lat="48.65891" lon="6.12296">
        <ele>363</ele>
        <time>2013-07-14T11:15:12Z</time>
      </trkpt>
      <trkpt lat="48.65893" lon="6.12303">
        <ele>364</ele>
        <time>2013-07-14T11:15:14Z</time>
      </trkpt>
      <trkpt lat="48.65896" lon="6.12311">
        <ele>364</ele>
        <time>2013-07-14T11:15:16Z</time>
      </trkpt>
      <trkpt lat="48.65898" lon="6.12319">
        <ele>369</ele>
        <time>2013-07-14T11:15:18Z</time>
      </trkpt>
      <trkpt lat="48.659" lon="6.12328">
        <ele>368</ele>
        <time>2013-07-14T11:15:20Z</time>
      </trkpt>
      <trkpt lat="48.65902" lon="6.12335">
        <ele>371</ele>
        <time>2013-07-14T11:15:22Z</time>
      </trkpt>
      <trkpt lat="48.65904" lon="6.12343">
        <ele>369</ele>
        <time>2013-07-14T11:15:24Z</time>
      </trkpt>
      <trkpt lat="48.65906" lon="6.1235">
        <ele>367</ele>
        <time>2013-07-14T11:15:26Z</time>
      </trkpt>
      <trkpt lat="48.65908" lon="6.12357">
        <ele>370</ele>
        <time>2013-07-14T11:15:28Z</time>
      </trkpt>
      <trkpt lat="48.65912" lon="6.12367">
        <ele>366</ele>
        <time>2013-07-14T11:15:30Z</time>
      </trkpt>
      <trkpt lat="48.65916" lon="6.1238">
        <ele>368</ele>
        <time>2013-07-14T11:15:32Z</time>
      </trkpt>
      <trkpt lat="48.65919" lon="6.1239">
        <ele>371</ele>
        <time>2013-07-14T11:15:34Z</time>
      </trkpt>
      <trkpt lat="48.65921" lon="6.12399">
        <ele>371</ele>
        <time>2013-07-14T11:15:36Z</time>
      </trkpt>
      <trkpt lat="48.65924" lon="6.12408">
        <ele>370</ele>
        <time>2013-07-14T11:15:38Z</time>
      </trkpt>
      <trkpt lat="48.65927" lon="6.12418">
        <ele>367</ele>
        <time>2013-07-14T11:15:40Z</time>
      </trkpt>
      <trkpt lat="48.65931" lon="6.12429">
        <ele>363</ele>
        <time>2013-07-14T11:15:42Z</time>
      </trkpt>
      <trkpt lat="48.65934" lon="6.12439">
        <ele>360</ele>
        <time>2013-07-14T11:15:44Z</time>
      </trkpt>
      <trkpt lat="48.65938" lon="6.12448">
        <ele>359</ele>
        <time>2013-07-14T11:15:46Z</time>
      </trkpt>
      <trkpt lat="48.65941" lon="6.12457">
        <ele>359</ele>
        <time>2013-07-14T11:15:48Z</time>
      </trkpt>
      <trkpt lat="48.65945" lon="6.12466">
        <ele>360</ele>
        <time>2013-07-14T11:15:50Z</time>
      </trkpt>
      <trkpt lat="48.65947" lon="6.12475">
        <ele>361</ele>
        <time>2013-07-14T11:15:52Z</time>
      </trkpt>
      <trkpt lat="48.65949" lon="6.12485">
        <ele>362</ele>
        <time>2013-07-14T11:15:54Z</time>
      </trkpt>
      <trkpt lat="48.65952" lon="6.12494">
        <ele>361</ele>
        <time>2013-07-14T11:15:56Z</time>
      </trkpt>
      <trkpt lat="48.65955" lon="6.12503">
        <ele>359</ele>
        <time>2013-07-14T11:15:58Z</time>
      </trkpt>
      <trkpt lat="48.65959" lon="6.12512">
        <ele>358</ele>
        <time>2013-07-14T11:16:00Z</time>
      </trkpt>
      <trkpt lat="48.65963" lon="6.12522">
        <ele>359</ele>
        <time>2013-07-14T11:16:02Z</time>
      </trkpt>
      <trkpt lat="48.65967" lon="6.12531">
        <ele>361</ele>
        <time>2013-07-14T11:16:04Z</time>
      </trkpt>
      <trkpt lat="48.65971" lon="6.12539">
        <ele>362</ele>
        <time>2013-07-14T11:16:06Z</time>
      </trkpt>
      <trkpt lat="48.65975" lon="6.12547">
        <ele>361</ele>
        <time>2013-07-14T11:16:08Z</time>
      </trkpt>
      <trkpt lat="48.65979" lon="6.12555">
        <ele>360</ele>
        <time>2013-07-14T11:16:10Z</time>
      </trkpt>
      <trkpt lat="48.65982" lon="6.12565">
        <ele>360</ele>
        <time>2013-07-14T11:16:12Z</time>
      </trkpt>
      <trkpt lat="48.65987" lon="6.12573">
        <ele>361</ele>
        <time>2013-07-14T11:16:14Z</time>
      </trkpt>
      <trkpt lat="48.65992" lon="6.12582">
        <ele>362</ele>
        <time>2013-07-14T11:16:16Z</time>
      </trkpt>
      <trkpt lat="48.65996" lon="6.12591">
        <ele>366</ele>
        <time>2013-07-14T11:16:18Z</time>
      </trkpt>
      <trkpt lat="48.66" lon="6.126">
        <ele>367</ele>
        <time>2013-07-14T11:16:20Z</time>
      </trkpt>
      <trkpt lat="48.66003" lon="6.12608">
        <ele>370</ele>
        <time>2013-07-14T11:16:22Z</time>
      </trkpt>
      <trkpt lat="48.66007" lon="6.12615">
        <ele>372</ele>
        <time>2013-07-14T11:16:24Z</time>
      </trkpt>
      <trkpt lat="48.66009" lon="6.12621">
        <ele>372</ele>
        <time>2013-07-14T11:16:26Z</time>
      </trkpt>
      <trkpt lat="48.66011" lon="6.12628">
        <ele>373</ele>
        <time>2013-07-14T11:16:28Z</time>
      </trkpt>
      <trkpt lat="48.66013" lon="6.12636">
        <ele>373</ele>
        <time>2013-07-14T11:16:30Z</time>
      </trkpt>
      <trkpt lat="48.66016" lon="6.12644">
        <ele>372</ele>
        <time>2013-07-14T11:16:32Z</time>
      </trkpt>
      <trkpt lat="48.66019" lon="6.12652">
        <ele>373</ele>
        <time>2013-07-14T11:16:34Z</time>
      </trkpt>
      <trkpt lat="48.66021" lon="6.1266">
        <ele>374</ele>
        <time>2013-07-14T11:16:36Z</time>
      </trkpt>
      <trkpt lat="48.66024" lon="6.1267">
        <ele>376</ele>
        <time>2013-07-14T11:16:38Z</time>
      </trkpt>
      <trkpt lat="48.66027" lon="6.12678">
        <ele>376</ele>
        <time>2013-07-14T11:16:40Z</time>
      </trkpt>
      <trkpt lat="48.66031" lon="6.12688">
        <ele>376</ele>
        <time>2013-07-14T11:16:42Z</time>
      </trkpt>
      <trkpt lat="48.66033" lon="6.12697">
        <ele>376</ele>
        <time>2013-07-14T11:16:44Z</time>
      </trkpt>
      <trkpt lat="48.66037" lon="6.12708">
        <ele>372</ele>
        <time>2013-07-14T11:16:46Z</time>
      </trkpt>
      <trkpt lat="48.6604" lon="6.12718">
        <ele>374</ele>
        <time>2013-07-14T11:16:48Z</time>
      </trkpt>
      <trkpt lat="48.66043" lon="6.12728">
        <ele>373</ele>
        <time>2013-07-14T11:16:50Z</time>
      </trkpt>
      <trkpt lat="48.66045" lon="6.12738">
        <ele>375</ele>
        <time>2013-07-14T11:16:52Z</time>
      </trkpt>
      <trkpt lat="48.66047" lon="6.12749">
        <ele>374</ele>
        <time>2013-07-14T11:16:54Z</time>
      </trkpt>
      <trkpt lat="48.66051" lon="6.1276">
        <ele>375</ele>
        <time>2013-07-14T11:16:56Z</time>
      </trkpt>
      <trkpt lat="48.66054" lon="6.12772">
        <ele>373</ele>
        <time>2013-07-14T11:16:58Z</time>
      </trkpt>
      <trkpt lat="48.66057" lon="6.12784">
        <ele>373</ele>
        <time>2013-07-14T11:17:00Z</time>
      </trkpt>
      <trkpt lat="48.6606" lon="6.12794">
        <ele>375</ele>
        <time>2013-07-14T11:17:02Z</time>
      </trkpt>
      <trkpt lat="48.66061" lon="6.12802">
        <ele>375</ele>
        <time>2013-07-14T11:17:04Z</time>
      </trkpt>
      <trkpt lat="48.66063" lon="6.1281">
        <ele>377</ele>
        <time>2013-07-14T11:17:06Z</time>
      </trkpt>
      <trkpt lat="48.66064" lon="6.12818">
        <ele>372</ele>
        <time>2013-07-14T11:17:08Z</time>
      </trkpt>
      <trkpt lat="48.66067" lon="6.12826">
        <ele>369</ele>
        <time>2013-07-14T11:17:10Z</time>
      </trkpt>
      <trkpt lat="48.66069" lon="6.12832">
        <ele>369</ele>
        <time>2013-07-14T11:17:12Z</time>
      </trkpt>
      <trkpt lat="48.6607" lon="6.1284">
        <ele>369</ele>
        <time>2013-07-14T11:17:14Z</time>
      </trkpt>
      <trkpt lat="48.66072" lon="6.12849">
        <ele>370</ele>
        <time>2013-07-14T11:17:16Z</time>
      </trkpt>
      <trkpt lat="48.66075" lon="6.12858">
        <ele>370</ele>
        <time>2013-07-14T11:17:18Z</time>
      </trkpt>
      <trkpt lat="48.66076" lon="6.12867">
        <ele>367</ele>
        <time>2013-07-14T11:17:20Z</time>
      </trkpt>
      <trkpt lat="48.66077" lon="6.12874">
        <ele>367</ele>
        <time>2013-07-14T11:17:22Z</time>
      </trkpt>
      <trkpt lat="48.6608" lon="6.12885">
        <ele>369</ele>
        <time>2013-07-14T11:17:24Z</time>
      </trkpt>
      <trkpt lat="48.66082" lon="6.12893">
        <ele>370</ele>
        <time>2013-07-14T11:17:26Z</time>
      </trkpt>
      <trkpt lat="48.66081" lon="6.129">
        <ele>371</ele>
        <time>2013-07-14T11:17:28Z</time>
      </trkpt>
      <trkpt lat="48.66082" lon="6.12907">
        <ele>370</ele>
        <time>2013-07-14T11:17:30Z</time>
      </trkpt>
      <trkpt lat="48.66083" lon="6.12915">
        <ele>371</ele>
        <time>2013-07-14T11:17:32Z</time>
      </trkpt>
      <trkpt lat="48.66085" lon="6.12922">
        <ele>370</ele>
        <time>2013-07-14T11:17:34Z</time>
      </trkpt>
      <trkpt lat="48.66089" lon="6.12928">
        <ele>367</ele>
        <time>2013-07-14T11:17:36Z</time>
      </trkpt>
      <trkpt lat="48.66091" lon="6.12934">
        <ele>369</ele>
        <time>2013-07-14T11:17:38Z</time>
      </trkpt>
      <trkpt lat="48.66094" lon="6.1294">
        <ele>372</ele>
        <time>2013-07-14T11:17:40Z</time>
      </trkpt>
      <trkpt lat="48.66096" lon="6.12947">
        <ele>374</ele>
        <time>2013-07-14T11:17:42Z</time>
      </trkpt>
      <trkpt lat="48.66098" lon="6.12953">
        <ele>376</ele>
        <time>2013-07-14T11:17:44Z</time>
      </trkpt>
      <trkpt lat="48.66101" lon="6.1296">
        <ele>376</ele>
        <time>2013-07-14T11:17:46Z</time>
      </trkpt>
      <trkpt lat="48.66104" lon="6.12967">
        <ele>377</ele>
        <time>2013-07-14T11:17:48Z</time>
      </trkpt>
      <trkpt lat="48.66108" lon="6.12975">
        <ele>378</ele>
        <time>2013-07-14T11:17:50Z</time>
      </trkpt>
      <trkpt lat="48.66112" lon="6.12983">
        <ele>378</ele>
        <time>2013-07-14T11:17:52Z</time>
      </trkpt>
      <trkpt lat="48.66116" lon="6.12991">
        <ele>377</ele>
        <time>2013-07-14T11:17:54Z</time>
      </trkpt>
      <trkpt lat="48.66119" lon="6.13">
        <ele>377</ele>
        <time>2013-07-14T11:17:56Z</time>
      </trkpt>
      <trkpt lat="48.66122" lon="6.13008">
        <ele>377</ele>
        <time>2013-07-14T11:17:58Z</time>
      </trkpt>
      <trkpt lat="48.66126" lon="6.13017">
        <ele>376</ele>
        <time>2013-07-14T11:18:00Z</time>
      </trkpt>
      <trkpt lat="48.6613" lon="6.13026">
        <ele>374</ele>
        <time>2013-07-14T11:18:02Z</time>
      </trkpt>
      <trkpt lat="48.66134" lon="6.13037">
        <ele>372</ele>
        <time>2013-07-14T11:18:04Z</time>
      </trkpt>
      <trkpt lat="48.66138" lon="6.13048">
        <ele>368</ele>
        <time>2013-07-14T11:18:06Z</time>
      </trkpt>
      <trkpt lat="48.66143" lon="6.13058">
        <ele>368</ele>
        <time>2013-07-14T11:18:08Z</time>
      </trkpt>
      <trkpt lat="48.66147" lon="6.1307">
        <ele>368</ele>
        <time>2013-07-14T11:18:10Z</time>
      </trkpt>
      <trkpt lat="48.6615" lon="6.13081">
        <ele>369</ele>
        <time>2013-07-14T11:18:12Z</time>
      </trkpt>
      <trkpt lat="48.66153" lon="6.13092">
        <ele>373</ele>
        <time>2013-07-14T11:18:14Z</time>
      </trkpt>
      <trkpt lat="48.66156" lon="6.13104">
        <ele>373</ele>
        <time>2013-07-14T11:18:16Z</time>
      </trkpt>
      <trkpt lat="48.66161" lon="6.13116">
        <ele>370</ele>
        <time>2013-07-14T11:18:18Z</time>
      </trkpt>
      <trkpt lat="48.66167" lon="6.13129">
        <ele>369</ele>
        <time>2013-07-14T11:18:20Z</time>
      </trkpt>
      <trkpt lat="48.66172" lon="6.1314">
        <ele>369</ele>
        <time>2013-07-14T11:18:22Z</time>
      </trkpt>
      <trkpt lat="48.66177" lon="6.13152">
        <ele>372</ele>
        <time>2013-07-14T11:18:24Z</time>
      </trkpt>
      <trkpt lat="48.66185" lon="6.13165">
        <ele>374</ele>
        <time>2013-07-14T11:18:26Z</time>
      </trkpt>
      <trkpt lat="48.66194" lon="6.13177">
        <ele>373</ele>
        <time>2013-07-14T11:18:28Z</time>
      </trkpt>
      <trkpt lat="48.66203" lon="6.13188">
        <ele>373</ele>
        <time>2013-07-14T11:18:30Z</time>
      </trkpt>
      <trkpt lat="48.66212" lon="6.13199">
        <ele>372</ele>
        <time>2013-07-14T11:18:32Z</time>
      </trkpt>
      <trkpt lat="48.66221" lon="6.1321">
        <ele>371</ele>
        <time>2013-07-14T11:18:34Z</time>
      </trkpt>
      <trkpt lat="48.66229" lon="6.13223">
        <ele>372</ele>
        <time>2013-07-14T11:18:36Z</time>
      </trkpt>
      <trkpt lat="48.66238" lon="6.13236">
        <ele>370</ele>
        <time>2013-07-14T11:18:38Z</time>
      </trkpt>
      <trkpt lat="48.66248" lon="6.1325">
        <ele>372</ele>
        <time>2013-07-14T11:18:40Z</time>
      </trkpt>
      <trkpt lat="48.66258" lon="6.13265">
        <ele>369</ele>
        <time>2013-07-14T11:18:42Z</time>
      </trkpt>
      <trkpt lat="48.66267" lon="6.1328">
        <ele>371</ele>
        <time>2013-07-14T11:18:44Z</time>
      </trkpt>
      <trkpt lat="48.66278" lon="6.13289">
        <ele>367</ele>
        <time>2013-07-14T11:18:46Z</time>
      </trkpt>
      <trkpt lat="48.6629" lon="6.13294">
        <ele>364</ele>
        <time>2013-07-14T11:18:48Z</time>
      </trkpt>
      <trkpt lat="48.66301" lon="6.13299">
        <ele>364</ele>
        <time>2013-07-14T11:18:50Z</time>
      </trkpt>
      <trkpt lat="48.66312" lon="6.13309">
        <ele>362</ele>
        <time>2013-07-14T11:18:52Z</time>
      </trkpt>
      <trkpt lat="48.66322" lon="6.13319">
        <ele>362</ele>
        <time>2013-07-14T11:18:54Z</time>
      </trkpt>
      <trkpt lat="48.66335" lon="6.1333">
        <ele>364</ele>
        <time>2013-07-14T11:18:56Z</time>
      </trkpt>
      <trkpt lat="48.66349" lon="6.13339">
        <ele>362</ele>
        <time>2013-07-14T11:18:58Z</time>
      </trkpt>
      <trkpt lat="48.66364" lon="6.13343">
        <ele>365</ele>
        <time>2013-07-14T11:19:00Z</time>
      </trkpt>
      <trkpt lat="48.66382" lon="6.13347">
        <ele>363</ele>
        <time>2013-07-14T11:19:02Z</time>
      </trkpt>
      <trkpt lat="48.66402" lon="6.13352">
        <ele>363</ele>
        <time>2013-07-14T11:19:04Z</time>
      </trkpt>
      <trkpt lat="48.66424" lon="6.13357">
        <ele>365</ele>
        <time>2013-07-14T11:19:06Z</time>
      </trkpt>
      <trkpt lat="48.66447" lon="6.13363">
        <ele>370</ele>
        <time>2013-07-14T11:19:08Z</time>
      </trkpt>
      <trkpt lat="48.66469" lon="6.13378">
        <ele>370</ele>
        <time>2013-07-14T11:19:10Z</time>
      </trkpt>
      <trkpt lat="48.66494" lon="6.13397">
        <ele>366</ele>
        <time>2013-07-14T11:19:12Z</time>
      </trkpt>
      <trkpt lat="48.66517" lon="6.13416">
        <ele>359</ele>
        <time>2013-07-14T11:19:14Z</time>
      </trkpt>
      <trkpt lat="48.66538" lon="6.13433">
        <ele>352</ele>
        <time>2013-07-14T11:19:16Z</time>
      </trkpt>
      <trkpt lat="48.66554" lon="6.13446">
        <ele>347</ele>
        <time>2013-07-14T11:19:18Z</time>
      </trkpt>
      <trkpt lat="48.66566" lon="6.13455">
        <ele>345</ele>
        <time>2013-07-14T11:19:20Z</time>
      </trkpt>
      <trkpt lat="48.66578" lon="6.13464">
        <ele>344</ele>
        <time>2013-07-14T11:19:22Z</time>
      </trkpt>
      <trkpt lat="48.66585" lon="6.13467">
        <ele>335</ele>
        <time>2013-07-14T11:19:24Z</time>
      </trkpt>
      <trkpt lat="48.66591" lon="6.13464">
        <ele>332</ele>
        <time>2013-07-14T11:19:26Z</time>
      </trkpt>
      <trkpt lat="48.66595" lon="6.13459">
        <ele>329</ele>
        <time>2013-07-14T11:19:28Z</time>
      </trkpt>
      <trkpt lat="48.66598" lon="6.13454">
        <ele>329</ele>
        <time>2013-07-14T11:19:30Z</time>
      </trkpt>
      <trkpt lat="48.66603" lon="6.13446">
        <ele>330</ele>
        <time>2013-07-14T11:19:34Z</time>
      </trkpt>
      <trkpt lat="48.66612" lon="6.13442">
        <ele>330</ele>
        <time>2013-07-14T11:19:42Z</time>
      </trkpt>
      <trkpt lat="48.66635" lon="6.13427">
        <ele>339</ele>
        <time>2013-07-14T11:19:58Z</time>
      </trkpt>
      <trkpt lat="48.66641" lon="6.13421">
        <ele>338</ele>
        <time>2013-07-14T11:20:02Z</time>
      </trkpt>
      <trkpt lat="48.66649" lon="6.1341">
        <ele>341</ele>
        <time>2013-07-14T11:20:06Z</time>
      </trkpt>
      <trkpt lat="48.66662" lon="6.1339">
        <ele>340</ele>
        <time>2013-07-14T11:20:12Z</time>
      </trkpt>
      <trkpt lat="48.66668" lon="6.13378">
        <ele>340</ele>
        <time>2013-07-14T11:20:16Z</time>
      </trkpt>
      <trkpt lat="48.66674" lon="6.13368">
        <ele>342</ele>
        <time>2013-07-14T11:20:20Z</time>
      </trkpt>
      <trkpt lat="48.66675" lon="6.13362">
        <ele>338</ele>
        <time>2013-07-14T11:20:22Z</time>
      </trkpt>
      <trkpt lat="48.66676" lon="6.13355">
        <ele>340</ele>
        <time>2013-07-14T11:20:24Z</time>
      </trkpt>
      <trkpt lat="48.66677" lon="6.13346">
        <ele>336</ele>
        <time>2013-07-14T11:20:28Z</time>
      </trkpt>
      <trkpt lat="48.66679" lon="6.1334">
        <ele>338</ele>
        <time>2013-07-14T11:20:30Z</time>
      </trkpt>
      <trkpt lat="48.66681" lon="6.13336">
        <ele>338</ele>
        <time>2013-07-14T11:20:32Z</time>
      </trkpt>
      <trkpt lat="48.66684" lon="6.13327">
        <ele>339</ele>
        <time>2013-07-14T11:20:36Z</time>
      </trkpt>
      <trkpt lat="48.66688" lon="6.13319">
        <ele>338</ele>
        <time>2013-07-14T11:20:40Z</time>
      </trkpt>
      <trkpt lat="48.66692" lon="6.13312">
        <ele>346</ele>
        <time>2013-07-14T11:20:44Z</time>
      </trkpt>
      <trkpt lat="48.66695" lon="6.13307">
        <ele>345</ele>
        <time>2013-07-14T11:20:46Z</time>
      </trkpt>
      <trkpt lat="48.66699" lon="6.13299">
        <ele>345</ele>
        <time>2013-07-14T11:20:50Z</time>
      </trkpt>
      <trkpt lat="48.66704" lon="6.13284">
        <ele>345</ele>
        <time>2013-07-14T11:20:58Z</time>
      </trkpt>
      <trkpt lat="48.66707" lon="6.13281">
        <ele>344</ele>
        <time>2013-07-14T11:21:00Z</time>
      </trkpt>
      <trkpt lat="48.6671" lon="6.13274">
        <ele>347</ele>
        <time>2013-07-14T11:21:05Z</time>
      </trkpt>
      <trkpt lat="48.66715" lon="6.13266">
        <ele>350</ele>
        <time>2013-07-14T11:21:08Z</time>
      </trkpt>
      <trkpt lat="48.66726" lon="6.13244">
        <ele>355</ele>
        <time>2013-07-14T11:21:20Z</time>
      </trkpt>
      <trkpt lat="48.66731" lon="6.13215">
        <ele>355</ele>
        <time>2013-07-14T11:21:30Z</time>
      </trkpt>
      <trkpt lat="48.66735" lon="6.13191">
        <ele>355</ele>
        <time>2013-07-14T11:21:38Z</time>
      </trkpt>
      <trkpt lat="48.66736" lon="6.13184">
        <ele>355</ele>
        <time>2013-07-14T11:21:40Z</time>
      </trkpt>
      <trkpt lat="48.66737" lon="6.13171">
        <ele>353</ele>
        <time>2013-07-14T11:21:44Z</time>
      </trkpt>
      <trkpt lat="48.66739" lon="6.13155">
        <ele>353</ele>
        <time>2013-07-14T11:21:50Z</time>
      </trkpt>
      <trkpt lat="48.66742" lon="6.13139">
        <ele>359</ele>
        <time>2013-07-14T11:21:56Z</time>
      </trkpt>
      <trkpt lat="48.6675" lon="6.13124">
        <ele>366</ele>
        <time>2013-07-14T11:22:04Z</time>
      </trkpt>
      <trkpt lat="48.66751" lon="6.13118">
        <ele>366</ele>
        <time>2013-07-14T11:22:06Z</time>
      </trkpt>
      <trkpt lat="48.6675" lon="6.13112">
        <ele>364</ele>
        <time>2013-07-14T11:22:08Z</time>
      </trkpt>
      <trkpt lat="48.6675" lon="6.13106">
        <ele>363</ele>
        <time>2013-07-14T11:22:10Z</time>
      </trkpt>
      <trkpt lat="48.6675" lon="6.13101">
        <ele>365</ele>
        <time>2013-07-14T11:22:12Z</time>
      </trkpt>
      <trkpt lat="48.6675" lon="6.13095">
        <ele>365</ele>
        <time>2013-07-14T11:22:14Z</time>
      </trkpt>
      <trkpt lat="48.66749" lon="6.13088">
        <ele>363</ele>
        <time>2013-07-14T11:22:16Z</time>
      </trkpt>
      <trkpt lat="48.66748" lon="6.13081">
        <ele>364</ele>
        <time>2013-07-14T11:22:18Z</time>
      </trkpt>
      <trkpt lat="48.66747" lon="6.13073">
        <ele>364</ele>
        <time>2013-07-14T11:22:20Z</time>
      </trkpt>
      <trkpt lat="48.66747" lon="6.13066">
        <ele>364</ele>
        <time>2013-07-14T11:22:22Z</time>
      </trkpt>
      <trkpt lat="48.66747" lon="6.1306">
        <ele>364</ele>
        <time>2013-07-14T11:22:24Z</time>
      </trkpt>
      <trkpt lat="48.66746" lon="6.13053">
        <ele>365</ele>
        <time>2013-07-14T11:22:26Z</time>
      </trkpt>
      <trkpt lat="48.66746" lon="6.13047">
        <ele>366</ele>
        <time>2013-07-14T11:22:28Z</time>
      </trkpt>
      <trkpt lat="48.66746" lon="6.13042">
        <ele>364</ele>
        <time>2013-07-14T11:22:30Z</time>
      </trkpt>
      <trkpt lat="48.66745" lon="6.13037">
        <ele>368</ele>
        <time>2013-07-14T11:22:32Z</time>
      </trkpt>
      <trkpt lat="48.66745" lon="6.13032">
        <ele>371</ele>
        <time>2013-07-14T11:22:34Z</time>
      </trkpt>
      <trkpt lat="48.66744" lon="6.13026">
        <ele>369</ele>
        <time>2013-07-14T11:22:36Z</time>
      </trkpt>
      <trkpt lat="48.66743" lon="6.1302">
        <ele>371</ele>
        <time>2013-07-14T11:22:38Z</time>
      </trkpt>
      <trkpt lat="48.66743" lon="6.13011">
        <ele>371</ele>
        <time>2013-07-14T11:22:40Z</time>
      </trkpt>
      <trkpt lat="48.66743" lon="6.13004">
        <ele>366</ele>
        <time>2013-07-14T11:22:42Z</time>
      </trkpt>
      <trkpt lat="48.66742" lon="6.12998">
        <ele>365</ele>
        <time>2013-07-14T11:22:44Z</time>
      </trkpt>
      <trkpt lat="48.66743" lon="6.12992">
        <ele>366</ele>
        <time>2013-07-14T11:22:46Z</time>
      </trkpt>
      <trkpt lat="48.66743" lon="6.12985">
        <ele>368</ele>
        <time>2013-07-14T11:22:48Z</time>
      </trkpt>
      <trkpt lat="48.66743" lon="6.12978">
        <ele>368</ele>
        <time>2013-07-14T11:22:50Z</time>
      </trkpt>
      <trkpt lat="48.66742" lon="6.12971">
        <ele>366</ele>
        <time>2013-07-14T11:22:52Z</time>
      </trkpt>
      <trkpt lat="48.66742" lon="6.12964">
        <ele>366</ele>
        <time>2013-07-14T11:22:54Z</time>
      </trkpt>
      <trkpt lat="48.66742" lon="6.12957">
        <ele>366</ele>
        <time>2013-07-14T11:22:56Z</time>
      </trkpt>
      <trkpt lat="48.66741" lon="6.1295">
        <ele>365</ele>
        <time>2013-07-14T11:22:58Z</time>
      </trkpt>
      <trkpt lat="48.66741" lon="6.12943">
        <ele>365</ele>
        <time>2013-07-14T11:23:00Z</time>
      </trkpt>
      <trkpt lat="48.66742" lon="6.12937">
        <ele>364</ele>
        <time>2013-07-14T11:23:02Z</time>
      </trkpt>
      <trkpt lat="48.66741" lon="6.12932">
        <ele>364</ele>
        <time>2013-07-14T11:23:04Z</time>
      </trkpt>
      <trkpt lat="48.66742" lon="6.12925">
        <ele>366</ele>
        <time>2013-07-14T11:23:06Z</time>
      </trkpt>
      <trkpt lat="48.66743" lon="6.12918">
        <ele>369</ele>
        <time>2013-07-14T11:23:08Z</time>
      </trkpt>
      <trkpt lat="48.66744" lon="6.12911">
        <ele>369</ele>
        <time>2013-07-14T11:23:10Z</time>
      </trkpt>
      <trkpt lat="48.66744" lon="6.12904">
        <ele>367</ele>
        <time>2013-07-14T11:23:12Z</time>
      </trkpt>
      <trkpt lat="48.66745" lon="6.12898">
        <ele>370</ele>
        <time>2013-07-14T11:23:14Z</time>
      </trkpt>
      <trkpt lat="48.66747" lon="6.12892">
        <ele>371</ele>
        <time>2013-07-14T11:23:16Z</time>
      </trkpt>
      <trkpt lat="48.66747" lon="6.12886">
        <ele>370</ele>
        <time>2013-07-14T11:23:18Z</time>
      </trkpt>
      <trkpt lat="48.66748" lon="6.12879">
        <ele>367</ele>
        <time>2013-07-14T11:23:20Z</time>
      </trkpt>
      <trkpt lat="48.66747" lon="6.1287">
        <ele>370</ele>
        <time>2013-07-14T11:23:22Z</time>
      </trkpt>
      <trkpt lat="48.66745" lon="6.1286">
        <ele>370</ele>
        <time>2013-07-14T11:23:24Z</time>
      </trkpt>
      <trkpt lat="48.66745" lon="6.12852">
        <ele>369</ele>
        <time>2013-07-14T11:23:26Z</time>
      </trkpt>
      <trkpt lat="48.66746" lon="6.12844">
        <ele>370</ele>
        <time>2013-07-14T11:23:28Z</time>
      </trkpt>
      <trkpt lat="48.66744" lon="6.12835">
        <ele>371</ele>
        <time>2013-07-14T11:23:30Z</time>
      </trkpt>
      <trkpt lat="48.66746" lon="6.12828">
        <ele>375</ele>
        <time>2013-07-14T11:23:32Z</time>
      </trkpt>
      <trkpt lat="48.66749" lon="6.12822">
        <ele>378</ele>
        <time>2013-07-14T11:23:34Z</time>
      </trkpt>
      <trkpt lat="48.66752" lon="6.12819">
        <ele>377</ele>
        <time>2013-07-14T11:23:36Z</time>
      </trkpt>
      <trkpt lat="48.66756" lon="6.12817">
        <ele>378</ele>
        <time>2013-07-14T11:23:38Z</time>
      </trkpt>
      <trkpt lat="48.6676" lon="6.12813">
        <ele>385</ele>
        <time>2013-07-14T11:23:40Z</time>
      </trkpt>
      <trkpt lat="48.66764" lon="6.1281">
        <ele>380</ele>
        <time>2013-07-14T11:23:42Z</time>
      </trkpt>
      <trkpt lat="48.66768" lon="6.12806">
        <ele>383</ele>
        <time>2013-07-14T11:23:44Z</time>
      </trkpt>
      <trkpt lat="48.66774" lon="6.12805">
        <ele>383</ele>
        <time>2013-07-14T11:23:46Z</time>
      </trkpt>
      <trkpt lat="48.66778" lon="6.12802">
        <ele>385</ele>
        <time>2013-07-14T11:23:48Z</time>
      </trkpt>
      <trkpt lat="48.66784" lon="6.12802">
        <ele>385</ele>
        <time>2013-07-14T11:23:50Z</time>
      </trkpt>
      <trkpt lat="48.66789" lon="6.128">
        <ele>386</ele>
        <time>2013-07-14T11:23:52Z</time>
      </trkpt>
      <trkpt lat="48.66793" lon="6.12799">
        <ele>387</ele>
        <time>2013-07-14T11:23:54Z</time>
      </trkpt>
      <trkpt lat="48.66797" lon="6.12799">
        <ele>388</ele>
        <time>2013-07-14T11:23:56Z</time>
      </trkpt>
      <trkpt lat="48.66802" lon="6.12798">
        <ele>389</ele>
        <time>2013-07-14T11:23:58Z</time>
      </trkpt>
      <trkpt lat="48.66806" lon="6.12797">
        <ele>385</ele>
        <time>2013-07-14T11:24:00Z</time>
      </trkpt>
      <trkpt lat="48.66811" lon="6.12797">
        <ele>384</ele>
        <time>2013-07-14T11:24:02Z</time>
      </trkpt>
      <trkpt lat="48.66818" lon="6.12796">
        <ele>385</ele>
        <time>2013-07-14T11:24:04Z</time>
      </trkpt>
      <trkpt lat="48.66825" lon="6.12795">
        <ele>387</ele>
        <time>2013-07-14T11:24:06Z</time>
      </trkpt>
      <trkpt lat="48.66831" lon="6.12794">
        <ele>383</ele>
        <time>2013-07-14T11:24:08Z</time>
      </trkpt>
      <trkpt lat="48.66836" lon="6.12793">
        <ele>378</ele>
        <time>2013-07-14T11:24:10Z</time>
      </trkpt>
      <trkpt lat="48.66843" lon="6.12792">
        <ele>384</ele>
        <time>2013-07-14T11:24:12Z</time>
      </trkpt>
      <trkpt lat="48.66849" lon="6.1279">
        <ele>382</ele>
        <time>2013-07-14T11:24:14Z</time>
      </trkpt>
      <trkpt lat="48.66858" lon="6.1279">
        <ele>380</ele>
        <time>2013-07-14T11:24:16Z</time>
      </trkpt>
      <trkpt lat="48.66866" lon="6.1279">
        <ele>389</ele>
        <time>2013-07-14T11:24:18Z</time>
      </trkpt>
      <trkpt lat="48.66874" lon="6.1279">
        <ele>386</ele>
        <time>2013-07-14T11:24:20Z</time>
      </trkpt>
      <trkpt lat="48.6688" lon="6.12789">
        <ele>387</ele>
        <time>2013-07-14T11:24:22Z</time>
      </trkpt>
      <trkpt lat="48.66888" lon="6.12787">
        <ele>381</ele>
        <time>2013-07-14T11:24:24Z</time>
      </trkpt>
      <trkpt lat="48.66898" lon="6.12788">
        <ele>373</ele>
        <time>2013-07-14T11:24:26Z</time>
      </trkpt>
      <trkpt lat="48.66909" lon="6.12788">
        <ele>373</ele>
        <time>2013-07-14T11:24:28Z</time>
      </trkpt>
      <trkpt lat="48.66918" lon="6.12786">
        <ele>371</ele>
        <time>2013-07-14T11:24:30Z</time>
      </trkpt>
      <trkpt lat="48.6693" lon="6.12784">
        <ele>371</ele>
        <time>2013-07-14T11:24:33Z</time>
      </trkpt>
      <trkpt lat="48.66934" lon="6.12783">
        <ele>373</ele>
        <time>2013-07-14T11:24:34Z</time>
      </trkpt>
      <trkpt lat="48.6694" lon="6.12782">
        <ele>373</ele>
        <time>2013-07-14T11:24:35Z</time>
      </trkpt>
      <trkpt lat="48.66946" lon="6.1278">
        <ele>374</ele>
        <time>2013-07-14T11:24:36Z</time>
      </trkpt>
      <trkpt lat="48.6695" lon="6.12778">
        <ele>377</ele>
        <time>2013-07-14T11:24:37Z</time>
      </trkpt>
      <trkpt lat="48.66953" lon="6.12776">
        <ele>376</ele>
        <time>2013-07-14T11:24:38Z</time>
      </trkpt>
      <trkpt lat="48.66958" lon="6.12776">
        <ele>371</ele>
        <time>2013-07-14T11:24:39Z</time>
      </trkpt>
      <trkpt lat="48.66962" lon="6.12776">
        <ele>372</ele>
        <time>2013-07-14T11:24:40Z</time>
      </trkpt>
      <trkpt lat="48.66966" lon="6.12775">
        <ele>369</ele>
        <time>2013-07-14T11:24:41Z</time>
      </trkpt>
      <trkpt lat="48.66976" lon="6.1277">
        <ele>367</ele>
        <time>2013-07-14T11:24:43Z</time>
      </trkpt>
      <trkpt lat="48.66983" lon="6.12761">
        <ele>367</ele>
        <time>2013-07-14T11:24:45Z</time>
      </trkpt>
      <trkpt lat="48.66992" lon="6.12754">
        <ele>364</ele>
        <time>2013-07-14T11:24:47Z</time>
      </trkpt>
      <trkpt lat="48.66999" lon="6.12747">
        <ele>371</ele>
        <time>2013-07-14T11:24:49Z</time>
      </trkpt>
      <trkpt lat="48.67006" lon="6.12736">
        <ele>369</ele>
        <time>2013-07-14T11:24:51Z</time>
      </trkpt>
      <trkpt lat="48.67012" lon="6.12724">
        <ele>366</ele>
        <time>2013-07-14T11:24:53Z</time>
      </trkpt>
      <trkpt lat="48.6702" lon="6.12715">
        <ele>369</ele>
        <time>2013-07-14T11:24:55Z</time>
      </trkpt>
      <trkpt lat="48.67029" lon="6.12707">
        <ele>372</ele>
        <time>2013-07-14T11:24:57Z</time>
      </trkpt>
      <trkpt lat="48.6704" lon="6.127">
        <ele>372</ele>
        <time>2013-07-14T11:24:59Z</time>
      </trkpt>
      <trkpt lat="48.6705" lon="6.12698">
        <ele>370</ele>
        <time>2013-07-14T11:25:01Z</time>
      </trkpt>
      <trkpt lat="48.67059" lon="6.12689">
        <ele>375</ele>
        <time>2013-07-14T11:25:03Z</time>
      </trkpt>
      <trkpt lat="48.67069" lon="6.12682">
        <ele>373</ele>
        <time>2013-07-14T11:25:05Z</time>
      </trkpt>
      <trkpt lat="48.67076" lon="6.12675">
        <ele>376</ele>
        <time>2013-07-14T11:25:07Z</time>
      </trkpt>
      <trkpt lat="48.67082" lon="6.12669">
        <ele>369</ele>
        <time>2013-07-14T11:25:09Z</time>
      </trkpt>
      <trkpt lat="48.67089" lon="6.12661">
        <ele>368</ele>
        <time>2013-07-14T11:25:11Z</time>
      </trkpt>
      <trkpt lat="48.67096" lon="6.12652">
        <ele>366</ele>
        <time>2013-07-14T11:25:13Z</time>
      </trkpt>
      <trkpt lat="48.67103" lon="6.12648">
        <ele>371</ele>
        <time>2013-07-14T11:25:15Z</time>
      </trkpt>
      <trkpt lat="48.67112" lon="6.12643">
        <ele>370</ele>
        <time>2013-07-14T11:25:17Z</time>
      </trkpt>
      <trkpt lat="48.67124" lon="6.12636">
        <ele>368</ele>
        <time>2013-07-14T11:25:19Z</time>
      </trkpt>
      <trkpt lat="48.67136" lon="6.12629">
        <ele>371</ele>
        <time>2013-07-14T11:25:21Z</time>
      </trkpt>
      <trkpt lat="48.67147" lon="6.12622">
        <ele>371</ele>
        <time>2013-07-14T11:25:23Z</time>
      </trkpt>
      <trkpt lat="48.67154" lon="6.12615">
        <ele>371</ele>
        <time>2013-07-14T11:25:25Z</time>
      </trkpt>
      <trkpt lat="48.67162" lon="6.1261">
        <ele>367</ele>
        <time>2013-07-14T11:25:27Z</time>
      </trkpt>
      <trkpt lat="48.67171" lon="6.12607">
        <ele>370</ele>
        <time>2013-07-14T11:25:29Z</time>
      </trkpt>
      <trkpt lat="48.67178" lon="6.12605">
        <ele>365</ele>
        <time>2013-07-14T11:25:31Z</time>
      </trkpt>
      <trkpt lat="48.67186" lon="6.12603">
        <ele>368</ele>
        <time>2013-07-14T11:25:33Z</time>
      </trkpt>
      <trkpt lat="48.67192" lon="6.12603">
        <ele>367</ele>
        <time>2013-07-14T11:25:35Z</time>
      </trkpt>
      <trkpt lat="48.67198" lon="6.12603">
        <ele>368</ele>
        <time>2013-07-14T11:25:37Z</time>
      </trkpt>
      <trkpt lat="48.67206" lon="6.12603">
        <ele>367</ele>
        <time>2013-07-14T11:25:39Z</time>
      </trkpt>
      <trkpt lat="48.67216" lon="6.12602">
        <ele>369</ele>
        <time>2013-07-14T11:25:41Z</time>
      </trkpt>
      <trkpt lat="48.6722" lon="6.12599">
        <ele>369</ele>
        <time>2013-07-14T11:25:43Z</time>
      </trkpt>
      <trkpt lat="48.67231" lon="6.12599">
        <ele>367</ele>
        <time>2013-07-14T11:25:45Z</time>
      </trkpt>
      <trkpt lat="48.67242" lon="6.126">
        <ele>367</ele>
        <time>2013-07-14T11:25:47Z</time>
      </trkpt>
      <trkpt lat="48.67254" lon="6.12602">
        <ele>368</ele>
        <time>2013-07-14T11:25:49Z</time>
      </trkpt>
      <trkpt lat="48.67262" lon="6.12604">
        <ele>367</ele>
        <time>2013-07-14T11:25:51Z</time>
      </trkpt>
      <trkpt lat="48.67272" lon="6.12609">
        <ele>373</ele>
        <time>2013-07-14T11:25:53Z</time>
      </trkpt>
      <trkpt lat="48.67281" lon="6.12611">
        <ele>373</ele>
        <time>2013-07-14T11:25:55Z</time>
      </trkpt>
      <trkpt lat="48.67291" lon="6.12615">
        <ele>375</ele>
        <time>2013-07-14T11:25:57Z</time>
      </trkpt>
      <trkpt lat="48.67301" lon="6.12617">
        <ele>375</ele>
        <time>2013-07-14T11:25:59Z</time>
      </trkpt>
      <trkpt lat="48.67309" lon="6.12618">
        <ele>378</ele>
        <time>2013-07-14T11:26:01Z</time>
      </trkpt>
      <trkpt lat="48.67321" lon="6.12619">
        <ele>379</ele>
        <time>2013-07-14T11:26:03Z</time>
      </trkpt>
      <trkpt lat="48.67331" lon="6.12617">
        <ele>378</ele>
        <time>2013-07-14T11:26:05Z</time>
      </trkpt>
      <trkpt lat="48.67339" lon="6.12615">
        <ele>376</ele>
        <time>2013-07-14T11:26:07Z</time>
      </trkpt>
      <trkpt lat="48.67352" lon="6.12617">
        <ele>371</ele>
        <time>2013-07-14T11:26:09Z</time>
      </trkpt>
      <trkpt lat="48.67363" lon="6.12618">
        <ele>373</ele>
        <time>2013-07-14T11:26:11Z</time>
      </trkpt>
      <trkpt lat="48.67373" lon="6.12621">
        <ele>372</ele>
        <time>2013-07-14T11:26:13Z</time>
      </trkpt>
      <trkpt lat="48.67383" lon="6.12623">
        <ele>373</ele>
        <time>2013-07-14T11:26:15Z</time>
      </trkpt>
      <trkpt lat="48.67392" lon="6.12623">
        <ele>373</ele>
        <time>2013-07-14T11:26:17Z</time>
      </trkpt>
      <trkpt lat="48.67401" lon="6.12621">
        <ele>374</ele>
        <time>2013-07-14T11:26:19Z</time>
      </trkpt>
      <trkpt lat="48.67411" lon="6.12621">
        <ele>374</ele>
        <time>2013-07-14T11:26:21Z</time>
      </trkpt>
      <trkpt lat="48.67424" lon="6.12619">
        <ele>373</ele>
        <time>2013-07-14T11:26:23Z</time>
      </trkpt>
      <trkpt lat="48.67434" lon="6.12618">
        <ele>376</ele>
        <time>2013-07-14T11:26:25Z</time>
      </trkpt>
      <trkpt lat="48.67445" lon="6.12617">
        <ele>375</ele>
        <time>2013-07-14T11:26:27Z</time>
      </trkpt>
      <trkpt lat="48.67458" lon="6.12612">
        <ele>372</ele>
        <time>2013-07-14T11:26:29Z</time>
      </trkpt>
      <trkpt lat="48.67473" lon="6.12606">
        <ele>375</ele>
        <time>2013-07-14T11:26:31Z</time>
      </trkpt>
      <trkpt lat="48.67484" lon="6.12602">
        <ele>372</ele>
        <time>2013-07-14T11:26:33Z</time>
      </trkpt>
      <trkpt lat="48.67495" lon="6.12601">
        <ele>369</ele>
        <time>2013-07-14T11:26:35Z</time>
      </trkpt>
      <trkpt lat="48.67505" lon="6.12597">
        <ele>368</ele>
        <time>2013-07-14T11:26:37Z</time>
      </trkpt>
      <trkpt lat="48.67516" lon="6.12597">
        <ele>368</ele>
        <time>2013-07-14T11:26:39Z</time>
      </trkpt>
      <trkpt lat="48.67524" lon="6.12596">
        <ele>368</ele>
        <time>2013-07-14T11:26:41Z</time>
      </trkpt>
      <trkpt lat="48.67532" lon="6.12595">
        <ele>369</ele>
        <time>2013-07-14T11:26:43Z</time>
      </trkpt>
      <trkpt lat="48.67542" lon="6.12596">
        <ele>367</ele>
        <time>2013-07-14T11:26:45Z</time>
      </trkpt>
      <trkpt lat="48.67551" lon="6.12597">
        <ele>365</ele>
        <time>2013-07-14T11:26:47Z</time>
      </trkpt>
      <trkpt lat="48.67558" lon="6.12594">
        <ele>367</ele>
        <time>2013-07-14T11:26:49Z</time>
      </trkpt>
      <trkpt lat="48.67566" lon="6.12593">
        <ele>366</ele>
        <time>2013-07-14T11:26:51Z</time>
      </trkpt>
      <trkpt lat="48.67572" lon="6.12592">
        <ele>367</ele>
        <time>2013-07-14T11:26:53Z</time>
      </trkpt>
      <trkpt lat="48.67579" lon="6.1259">
        <ele>369</ele>
        <time>2013-07-14T11:26:55Z</time>
      </trkpt>
      <trkpt lat="48.67585" lon="6.12589">
        <ele>366</ele>
        <time>2013-07-14T11:26:57Z</time>
      </trkpt>
      <trkpt lat="48.67593" lon="6.1259">
        <ele>367</ele>
        <time>2013-07-14T11:26:59Z</time>
      </trkpt>
      <trkpt lat="48.67601" lon="6.12587">
        <ele>367</ele>
        <time>2013-07-14T11:27:01Z</time>
      </trkpt>
      <trkpt lat="48.6761" lon="6.12587">
        <ele>363</ele>
        <time>2013-07-14T11:27:03Z</time>
      </trkpt>
      <trkpt lat="48.67618" lon="6.12587">
        <ele>365</ele>
        <time>2013-07-14T11:27:05Z</time>
      </trkpt>
      <trkpt lat="48.67626" lon="6.12588">
        <ele>369</ele>
        <time>2013-07-14T11:27:07Z</time>
      </trkpt>
      <trkpt lat="48.67635" lon="6.12589">
        <ele>373</ele>
        <time>2013-07-14T11:27:09Z</time>
      </trkpt>
      <trkpt lat="48.67644" lon="6.12588">
        <ele>372</ele>
        <time>2013-07-14T11:27:11Z</time>
      </trkpt>
      <trkpt lat="48.67651" lon="6.12587">
        <ele>368</ele>
        <time>2013-07-14T11:27:13Z</time>
      </trkpt>
      <trkpt lat="48.6766" lon="6.12587">
        <ele>367</ele>
        <time>2013-07-14T11:27:15Z</time>
      </trkpt>
      <trkpt lat="48.67669" lon="6.12586">
        <ele>365</ele>
        <time>2013-07-14T11:27:17Z</time>
      </trkpt>
      <trkpt lat="48.67677" lon="6.12588">
        <ele>367</ele>
        <time>2013-07-14T11:27:19Z</time>
      </trkpt>
      <trkpt lat="48.67685" lon="6.12589">
        <ele>366</ele>
        <time>2013-07-14T11:27:21Z</time>
      </trkpt>
      <trkpt lat="48.67694" lon="6.12594">
        <ele>366</ele>
        <time>2013-07-14T11:27:23Z</time>
      </trkpt>
      <trkpt lat="48.67701" lon="6.126">
        <ele>370</ele>
        <time>2013-07-14T11:27:25Z</time>
      </trkpt>
      <trkpt lat="48.67709" lon="6.12604">
        <ele>373</ele>
        <time>2013-07-14T11:27:27Z</time>
      </trkpt>
      <trkpt lat="48.67718" lon="6.12608">
        <ele>374</ele>
        <time>2013-07-14T11:27:29Z</time>
      </trkpt>
      <trkpt lat="48.67727" lon="6.12611">
        <ele>374</ele>
        <time>2013-07-14T11:27:31Z</time>
      </trkpt>
      <trkpt lat="48.67738" lon="6.12615">
        <ele>371</ele>
        <time>2013-07-14T11:27:33Z</time>
      </trkpt>
      <trkpt lat="48.67745" lon="6.12617">
        <ele>371</ele>
        <time>2013-07-14T11:27:35Z</time>
      </trkpt>
      <trkpt lat="48.67755" lon="6.12619">
        <ele>371</ele>
        <time>2013-07-14T11:27:37Z</time>
      </trkpt>
      <trkpt lat="48.67764" lon="6.1262">
        <ele>372</ele>
        <time>2013-07-14T11:27:39Z</time>
      </trkpt>
      <trkpt lat="48.67773" lon="6.12619">
        <ele>375</ele>
        <time>2013-07-14T11:27:41Z</time>
      </trkpt>
      <trkpt lat="48.67783" lon="6.1262">
        <ele>374</ele>
        <time>2013-07-14T11:27:43Z</time>
      </trkpt>
      <trkpt lat="48.67794" lon="6.12621">
        <ele>375</ele>
        <time>2013-07-14T11:27:45Z</time>
      </trkpt>
      <trkpt lat="48.67804" lon="6.12621">
        <ele>375</ele>
        <time>2013-07-14T11:27:47Z</time>
      </trkpt>
      <trkpt lat="48.67815" lon="6.12622">
        <ele>376</ele>
        <time>2013-07-14T11:27:49Z</time>
      </trkpt>
      <trkpt lat="48.67824" lon="6.12621">
        <ele>376</ele>
        <time>2013-07-14T11:27:51Z</time>
      </trkpt>
      <trkpt lat="48.67835" lon="6.12622">
        <ele>384</ele>
        <time>2013-07-14T11:27:53Z</time>
      </trkpt>
      <trkpt lat="48.67844" lon="6.12623">
        <ele>382</ele>
        <time>2013-07-14T11:27:55Z</time>
      </trkpt>
      <trkpt lat="48.67854" lon="6.12625">
        <ele>379</ele>
        <time>2013-07-14T11:27:57Z</time>
      </trkpt>
      <trkpt lat="48.67864" lon="6.12627">
        <ele>379</ele>
        <time>2013-07-14T11:27:59Z</time>
      </trkpt>
      <trkpt lat="48.67872" lon="6.1263">
        <ele>379</ele>
        <time>2013-07-14T11:28:01Z</time>
      </trkpt>
      <trkpt lat="48.67883" lon="6.12631">
        <ele>381</ele>
        <time>2013-07-14T11:28:03Z</time>
      </trkpt>
      <trkpt lat="48.67892" lon="6.12631">
        <ele>380</ele>
        <time>2013-07-14T11:28:05Z</time>
      </trkpt>
      <trkpt lat="48.67902" lon="6.12631">
        <ele>378</ele>
        <time>2013-07-14T11:28:07Z</time>
      </trkpt>
      <trkpt lat="48.67913" lon="6.12632">
        <ele>379</ele>
        <time>2013-07-14T11:28:09Z</time>
      </trkpt>
      <trkpt lat="48.67922" lon="6.1263">
        <ele>371</ele>
        <time>2013-07-14T11:28:11Z</time>
      </trkpt>
      <trkpt lat="48.6793" lon="6.12625">
        <ele>370</ele>
        <time>2013-07-14T11:28:13Z</time>
      </trkpt>
      <trkpt lat="48.67936" lon="6.12624">
        <ele>367</ele>
        <time>2013-07-14T11:28:15Z</time>
      </trkpt>
      <trkpt lat="48.67944" lon="6.12625">
        <ele>367</ele>
        <time>2013-07-14T11:28:17Z</time>
      </trkpt>
      <trkpt lat="48.67952" lon="6.12621">
        <ele>369</ele>
        <time>2013-07-14T11:28:19Z</time>
      </trkpt>
      <trkpt lat="48.67959" lon="6.12617">
        <ele>361</ele>
        <time>2013-07-14T11:28:21Z</time>
      </trkpt>
      <trkpt lat="48.67966" lon="6.12611">
        <ele>362</ele>
        <time>2013-07-14T11:28:23Z</time>
      </trkpt>
      <trkpt lat="48.67972" lon="6.12607">
        <ele>365</ele>
        <time>2013-07-14T11:28:25Z</time>
      </trkpt>
      <trkpt lat="48.67979" lon="6.12601">
        <ele>370</ele>
        <time>2013-07-14T11:28:27Z</time>
      </trkpt>
      <trkpt lat="48.67987" lon="6.12599">
        <ele>370</ele>
        <time>2013-07-14T11:28:29Z</time>
      </trkpt>
      <trkpt lat="48.67993" lon="6.12594">
        <ele>369</ele>
        <time>2013-07-14T11:28:31Z</time>
      </trkpt>
      <trkpt lat="48.67999" lon="6.12586">
        <ele>367</ele>
        <time>2013-07-14T11:28:33Z</time>
      </trkpt>
      <trkpt lat="48.68005" lon="6.12581">
        <ele>366</ele>
        <time>2013-07-14T11:28:35Z</time>
      </trkpt>
      <trkpt lat="48.68011" lon="6.12576">
        <ele>368</ele>
        <time>2013-07-14T11:28:37Z</time>
      </trkpt>
      <trkpt lat="48.68019" lon="6.12572">
        <ele>371</ele>
        <time>2013-07-14T11:28:39Z</time>
      </trkpt>
      <trkpt lat="48.68025" lon="6.12566">
        <ele>371</ele>
        <time>2013-07-14T11:28:41Z</time>
      </trkpt>
      <trkpt lat="48.68033" lon="6.12564">
        <ele>371</ele>
        <time>2013-07-14T11:28:43Z</time>
      </trkpt>
      <trkpt lat="48.68039" lon="6.12566">
        <ele>372</ele>
        <time>2013-07-14T11:28:45Z</time>
      </trkpt>
      <trkpt lat="48.68044" lon="6.12566">
        <ele>374</ele>
        <time>2013-07-14T11:28:47Z</time>
      </trkpt>
      <trkpt lat="48.68049" lon="6.12566">
        <ele>375</ele>
        <time>2013-07-14T11:28:49Z</time>
      </trkpt>
      <trkpt lat="48.68056" lon="6.12567">
        <ele>375</ele>
        <time>2013-07-14T11:28:51Z</time>
      </trkpt>
      <trkpt lat="48.68062" lon="6.12568">
        <ele>376</ele>
        <time>2013-07-14T11:28:53Z</time>
      </trkpt>
      <trkpt lat="48.68068" lon="6.12568">
        <ele>378</ele>
        <time>2013-07-14T11:28:55Z</time>
      </trkpt>
      <trkpt lat="48.68076" lon="6.12569">
        <ele>373</ele>
        <time>2013-07-14T11:28:57Z</time>
      </trkpt>
      <trkpt lat="48.68084" lon="6.12567">
        <ele>372</ele>
        <time>2013-07-14T11:28:59Z</time>
      </trkpt>
      <trkpt lat="48.68092" lon="6.12566">
        <ele>372</ele>
        <time>2013-07-14T11:29:01Z</time>
      </trkpt>
      <trkpt lat="48.681" lon="6.12568">
        <ele>371</ele>
        <time>2013-07-14T11:29:03Z</time>
      </trkpt>
      <trkpt lat="48.6811" lon="6.12571">
        <ele>376</ele>
        <time>2013-07-14T11:29:05Z</time>
      </trkpt>
      <trkpt lat="48.68119" lon="6.12571">
        <ele>378</ele>
        <time>2013-07-14T11:29:07Z</time>
      </trkpt>
      <trkpt lat="48.68128" lon="6.12572">
        <ele>380</ele>
        <time>2013-07-14T11:29:09Z</time>
      </trkpt>
      <trkpt lat="48.68136" lon="6.12575">
        <ele>379</ele>
        <time>2013-07-14T11:29:11Z</time>
      </trkpt>
      <trkpt lat="48.68144" lon="6.12581">
        <ele>379</ele>
        <time>2013-07-14T11:29:13Z</time>
      </trkpt>
      <trkpt lat="48.68151" lon="6.12586">
        <ele>377</ele>
        <time>2013-07-14T11:29:15Z</time>
      </trkpt>
      <trkpt lat="48.68158" lon="6.12592">
        <ele>376</ele>
        <time>2013-07-14T11:29:17Z</time>
      </trkpt>
      <trkpt lat="48.68166" lon="6.12598">
        <ele>374</ele>
        <time>2013-07-14T11:29:19Z</time>
      </trkpt>
      <trkpt lat="48.68174" lon="6.12605">
        <ele>372</ele>
        <time>2013-07-14T11:29:21Z</time>
      </trkpt>
      <trkpt lat="48.68182" lon="6.12614">
        <ele>375</ele>
        <time>2013-07-14T11:29:23Z</time>
      </trkpt>
      <trkpt lat="48.68192" lon="6.12622">
        <ele>375</ele>
        <time>2013-07-14T11:29:25Z</time>
      </trkpt>
      <trkpt lat="48.68201" lon="6.12632">
        <ele>377</ele>
        <time>2013-07-14T11:29:27Z</time>
      </trkpt>
      <trkpt lat="48.68211" lon="6.12641">
        <ele>378</ele>
        <time>2013-07-14T11:29:29Z</time>
      </trkpt>
      <trkpt lat="48.6822" lon="6.12651">
        <ele>379</ele>
        <time>2013-07-14T11:29:31Z</time>
      </trkpt>
      <trkpt lat="48.68229" lon="6.12662">
        <ele>375</ele>
        <time>2013-07-14T11:29:33Z</time>
      </trkpt>
      <trkpt lat="48.68238" lon="6.1267">
        <ele>370</ele>
        <time>2013-07-14T11:29:35Z</time>
      </trkpt>
      <trkpt lat="48.68246" lon="6.12678">
        <ele>370</ele>
        <time>2013-07-14T11:29:37Z</time>
      </trkpt>
      <trkpt lat="48.68254" lon="6.12685">
        <ele>371</ele>
        <time>2013-07-14T11:29:39Z</time>
      </trkpt>
      <trkpt lat="48.68263" lon="6.12694">
        <ele>375</ele>
        <time>2013-07-14T11:29:41Z</time>
      </trkpt>
      <trkpt lat="48.68271" lon="6.12704">
        <ele>376</ele>
        <time>2013-07-14T11:29:43Z</time>
      </trkpt>
      <trkpt lat="48.68281" lon="6.12714">
        <ele>375</ele>
        <time>2013-07-14T11:29:45Z</time>
      </trkpt>
      <trkpt lat="48.68288" lon="6.12723">
        <ele>373</ele>
        <time>2013-07-14T11:29:47Z</time>
      </trkpt>
      <trkpt lat="48.68296" lon="6.12731">
        <ele>370</ele>
        <time>2013-07-14T11:29:49Z</time>
      </trkpt>
      <trkpt lat="48.68304" lon="6.12737">
        <ele>371</ele>
        <time>2013-07-14T11:29:51Z</time>
      </trkpt>
      <trkpt lat="48.68311" lon="6.12745">
        <ele>371</ele>
        <time>2013-07-14T11:29:53Z</time>
      </trkpt>
      <trkpt lat="48.68319" lon="6.12752">
        <ele>373</ele>
        <time>2013-07-14T11:29:55Z</time>
      </trkpt>
      <trkpt lat="48.68328" lon="6.12763">
        <ele>374</ele>
        <time>2013-07-14T11:29:57Z</time>
      </trkpt>
      <trkpt lat="48.68337" lon="6.12772">
        <ele>374</ele>
        <time>2013-07-14T11:29:59Z</time>
      </trkpt>
      <trkpt lat="48.68346" lon="6.12781">
        <ele>375</ele>
        <time>2013-07-14T11:30:01Z</time>
      </trkpt>
      <trkpt lat="48.68354" lon="6.12789">
        <ele>375</ele>
        <time>2013-07-14T11:30:03Z</time>
      </trkpt>
      <trkpt lat="48.68365" lon="6.128">
        <ele>366</ele>
        <time>2013-07-14T11:30:05Z</time>
      </trkpt>
      <trkpt lat="48.68375" lon="6.12809">
        <ele>364</ele>
        <time>2013-07-14T11:30:07Z</time>
      </trkpt>
      <trkpt lat="48.68385" lon="6.12818">
        <ele>362</ele>
        <time>2013-07-14T11:30:09Z</time>
      </trkpt>
      <trkpt lat="48.68393" lon="6.12827">
        <ele>365</ele>
        <time>2013-07-14T11:30:11Z</time>
      </trkpt>
      <trkpt lat="48.68403" lon="6.12835">
        <ele>367</ele>
        <time>2013-07-14T11:30:13Z</time>
      </trkpt>
      <trkpt lat="48.68413" lon="6.12845">
        <ele>365</ele>
        <time>2013-07-14T11:30:15Z</time>
      </trkpt>
      <trkpt lat="48.68421" lon="6.12854">
        <ele>364</ele>
        <time>2013-07-14T11:30:17Z</time>
      </trkpt>
      <trkpt lat="48.6843" lon="6.12865">
        <ele>361</ele>
        <time>2013-07-14T11:30:19Z</time>
      </trkpt>
      <trkpt lat="48.6844" lon="6.12876">
        <ele>363</ele>
        <time>2013-07-14T11:30:21Z</time>
      </trkpt>
      <trkpt lat="48.68448" lon="6.12881">
        <ele>364</ele>
        <time>2013-07-14T11:30:23Z</time>
      </trkpt>
      <trkpt lat="48.68459" lon="6.12882">
        <ele>360</ele>
        <time>2013-07-14T11:30:25Z</time>
      </trkpt>
      <trkpt lat="48.68469" lon="6.12878">
        <ele>351</ele>
        <time>2013-07-14T11:30:27Z</time>
      </trkpt>
      <trkpt lat="48.6848" lon="6.12874">
        <ele>349</ele>
        <time>2013-07-14T11:30:29Z</time>
      </trkpt>
      <trkpt lat="48.68488" lon="6.12867">
        <ele>345</ele>
        <time>2013-07-14T11:30:31Z</time>
      </trkpt>
      <trkpt lat="48.68498" lon="6.1286">
        <ele>341</ele>
        <time>2013-07-14T11:30:33Z</time>
      </trkpt>
      <trkpt lat="48.68508" lon="6.12854">
        <ele>341</ele>
        <time>2013-07-14T11:30:35Z</time>
      </trkpt>
      <trkpt lat="48.68518" lon="6.12848">
        <ele>342</ele>
        <time>2013-07-14T11:30:37Z</time>
      </trkpt>
      <trkpt lat="48.68528" lon="6.12842">
        <ele>339</ele>
        <time>2013-07-14T11:30:39Z</time>
      </trkpt>
      <trkpt lat="48.68539" lon="6.12835">
        <ele>340</ele>
        <time>2013-07-14T11:30:41Z</time>
      </trkpt>
      <trkpt lat="48.6855" lon="6.12828">
        <ele>342</ele>
        <time>2013-07-14T11:30:43Z</time>
      </trkpt>
      <trkpt lat="48.6856" lon="6.12821">
        <ele>345</ele>
        <time>2013-07-14T11:30:45Z</time>
      </trkpt>
      <trkpt lat="48.6857" lon="6.12815">
        <ele>343</ele>
        <time>2013-07-14T11:30:47Z</time>
      </trkpt>
      <trkpt lat="48.68581" lon="6.1281">
        <ele>345</ele>
        <time>2013-07-14T11:30:49Z</time>
      </trkpt>
      <trkpt lat="48.68591" lon="6.12806">
        <ele>344</ele>
        <time>2013-07-14T11:30:51Z</time>
      </trkpt>
      <trkpt lat="48.68602" lon="6.12803">
        <ele>345</ele>
        <time>2013-07-14T11:30:53Z</time>
      </trkpt>
      <trkpt lat="48.68613" lon="6.12799">
        <ele>347</ele>
        <time>2013-07-14T11:30:55Z</time>
      </trkpt>
      <trkpt lat="48.68624" lon="6.12797">
        <ele>348</ele>
        <time>2013-07-14T11:30:57Z</time>
      </trkpt>
      <trkpt lat="48.68634" lon="6.12794">
        <ele>349</ele>
        <time>2013-07-14T11:30:59Z</time>
      </trkpt>
      <trkpt lat="48.68644" lon="6.12791">
        <ele>346</ele>
        <time>2013-07-14T11:31:01Z</time>
      </trkpt>
      <trkpt lat="48.68655" lon="6.12788">
        <ele>346</ele>
        <time>2013-07-14T11:31:03Z</time>
      </trkpt>
      <trkpt lat="48.68666" lon="6.12784">
        <ele>345</ele>
        <time>2013-07-14T11:31:05Z</time>
      </trkpt>
      <trkpt lat="48.68676" lon="6.1278">
        <ele>346</ele>
        <time>2013-07-14T11:31:07Z</time>
      </trkpt>
      <trkpt lat="48.68686" lon="6.12775">
        <ele>347</ele>
        <time>2013-07-14T11:31:09Z</time>
      </trkpt>
      <trkpt lat="48.68697" lon="6.1277">
        <ele>346</ele>
        <time>2013-07-14T11:31:11Z</time>
      </trkpt>
      <trkpt lat="48.68707" lon="6.12765">
        <ele>346</ele>
        <time>2013-07-14T11:31:13Z</time>
      </trkpt>
      <trkpt lat="48.68716" lon="6.12759">
        <ele>347</ele>
        <time>2013-07-14T11:31:15Z</time>
      </trkpt>
      <trkpt lat="48.68726" lon="6.12754">
        <ele>349</ele>
        <time>2013-07-14T11:31:17Z</time>
      </trkpt>
      <trkpt lat="48.68737" lon="6.1275">
        <ele>349</ele>
        <time>2013-07-14T11:31:19Z</time>
      </trkpt>
      <trkpt lat="48.68747" lon="6.12744">
        <ele>351</ele>
        <time>2013-07-14T11:31:21Z</time>
      </trkpt>
      <trkpt lat="48.68757" lon="6.12739">
        <ele>353</ele>
        <time>2013-07-14T11:31:23Z</time>
      </trkpt>
      <trkpt lat="48.68766" lon="6.12735">
        <ele>355</ele>
        <time>2013-07-14T11:31:25Z</time>
      </trkpt>
      <trkpt lat="48.68776" lon="6.12731">
        <ele>356</ele>
        <time>2013-07-14T11:31:27Z</time>
      </trkpt>
      <trkpt lat="48.68785" lon="6.12736">
        <ele>354</ele>
        <time>2013-07-14T11:31:29Z</time>
      </trkpt>
      <trkpt lat="48.68789" lon="6.12749">
        <ele>358</ele>
        <time>2013-07-14T11:31:31Z</time>
      </trkpt>
      <trkpt lat="48.68791" lon="6.12765">
        <ele>359</ele>
        <time>2013-07-14T11:31:33Z</time>
      </trkpt>
      <trkpt lat="48.68792" lon="6.12784">
        <ele>357</ele>
        <time>2013-07-14T11:31:35Z</time>
      </trkpt>
      <trkpt lat="48.68794" lon="6.12804">
        <ele>356</ele>
        <time>2013-07-14T11:31:37Z</time>
      </trkpt>
      <trkpt lat="48.68794" lon="6.12826">
        <ele>354</ele>
        <time>2013-07-14T11:31:39Z</time>
      </trkpt>
      <trkpt lat="48.68796" lon="6.12847">
        <ele>350</ele>
        <time>2013-07-14T11:31:41Z</time>
      </trkpt>
      <trkpt lat="48.68797" lon="6.12869">
        <ele>347</ele>
        <time>2013-07-14T11:31:43Z</time>
      </trkpt>
      <trkpt lat="48.68799" lon="6.12889">
        <ele>346</ele>
        <time>2013-07-14T11:31:45Z</time>
      </trkpt>
      <trkpt lat="48.688" lon="6.12911">
        <ele>345</ele>
        <time>2013-07-14T11:31:47Z</time>
      </trkpt>
      <trkpt lat="48.68802" lon="6.12935">
        <ele>343</ele>
        <time>2013-07-14T11:31:49Z</time>
      </trkpt>
      <trkpt lat="48.68804" lon="6.12959">
        <ele>341</ele>
        <time>2013-07-14T11:31:51Z</time>
      </trkpt>
      <trkpt lat="48.68805" lon="6.12983">
        <ele>342</ele>
        <time>2013-07-14T11:31:53Z</time>
      </trkpt>
      <trkpt lat="48.68807" lon="6.13008">
        <ele>342</ele>
        <time>2013-07-14T11:31:55Z</time>
      </trkpt>
      <trkpt lat="48.68809" lon="6.13033">
        <ele>341</ele>
        <time>2013-07-14T11:31:57Z</time>
      </trkpt>
      <trkpt lat="48.68811" lon="6.13058">
        <ele>341</ele>
        <time>2013-07-14T11:31:59Z</time>
      </trkpt>
      <trkpt lat="48.68814" lon="6.13083">
        <ele>340</ele>
        <time>2013-07-14T11:32:01Z</time>
      </trkpt>
      <trkpt lat="48.68817" lon="6.13109">
        <ele>340</ele>
        <time>2013-07-14T11:32:03Z</time>
      </trkpt>
      <trkpt lat="48.68821" lon="6.13135">
        <ele>339</ele>
        <time>2013-07-14T11:32:05Z</time>
      </trkpt>
      <trkpt lat="48.68824" lon="6.13161">
        <ele>337</ele>
        <time>2013-07-14T11:32:07Z</time>
      </trkpt>
      <trkpt lat="48.68823" lon="6.13176">
        <ele>336</ele>
        <time>2013-07-14T11:32:09Z</time>
      </trkpt>
      <trkpt lat="48.68814" lon="6.13177">
        <ele>333</ele>
        <time>2013-07-14T11:32:11Z</time>
      </trkpt>
      <trkpt lat="48.68804" lon="6.13171">
        <ele>332</ele>
        <time>2013-07-14T11:32:13Z</time>
      </trkpt>
      <trkpt lat="48.68791" lon="6.13162">
        <ele>334</ele>
        <time>2013-07-14T11:32:15Z</time>
      </trkpt>
      <trkpt lat="48.68776" lon="6.13153">
        <ele>331</ele>
        <time>2013-07-14T11:32:17Z</time>
      </trkpt>
      <trkpt lat="48.68757" lon="6.13145">
        <ele>327</ele>
        <time>2013-07-14T11:32:19Z</time>
      </trkpt>
      <trkpt lat="48.68736" lon="6.13139">
        <ele>324</ele>
        <time>2013-07-14T11:32:21Z</time>
      </trkpt>
      <trkpt lat="48.68713" lon="6.13136">
        <ele>324</ele>
        <time>2013-07-14T11:32:23Z</time>
      </trkpt>
      <trkpt lat="48.6869" lon="6.13135">
        <ele>324</ele>
        <time>2013-07-14T11:32:25Z</time>
      </trkpt>
      <trkpt lat="48.68665" lon="6.13135">
        <ele>325</ele>
        <time>2013-07-14T11:32:27Z</time>
      </trkpt>
      <trkpt lat="48.6864" lon="6.13138">
        <ele>323</ele>
        <time>2013-07-14T11:32:29Z</time>
      </trkpt>
      <trkpt lat="48.68617" lon="6.13147">
        <ele>323</ele>
        <time>2013-07-14T11:32:31Z</time>
      </trkpt>
      <trkpt lat="48.68594" lon="6.13165">
        <ele>326</ele>
        <time>2013-07-14T11:32:33Z</time>
      </trkpt>
      <trkpt lat="48.68569" lon="6.13185">
        <ele>330</ele>
        <time>2013-07-14T11:32:35Z</time>
      </trkpt>
      <trkpt lat="48.68544" lon="6.13209">
        <ele>333</ele>
        <time>2013-07-14T11:32:37Z</time>
      </trkpt>
      <trkpt lat="48.68521" lon="6.13238">
        <ele>333</ele>
        <time>2013-07-14T11:32:39Z</time>
      </trkpt>
      <trkpt lat="48.68506" lon="6.13276">
        <ele>330</ele>
        <time>2013-07-14T11:32:41Z</time>
      </trkpt>
      <trkpt lat="48.68491" lon="6.13316">
        <ele>326</ele>
        <time>2013-07-14T11:32:43Z</time>
      </trkpt>
      <trkpt lat="48.68477" lon="6.13358">
        <ele>317</ele>
        <time>2013-07-14T11:32:45Z</time>
      </trkpt>
      <trkpt lat="48.68468" lon="6.13402">
        <ele>313</ele>
        <time>2013-07-14T11:32:47Z</time>
      </trkpt>
      <trkpt lat="48.68465" lon="6.1345">
        <ele>308</ele>
        <time>2013-07-14T11:32:49Z</time>
      </trkpt>
      <trkpt lat="48.68465" lon="6.13499">
        <ele>304</ele>
        <time>2013-07-14T11:32:51Z</time>
      </trkpt>
      <trkpt lat="48.68467" lon="6.1355">
        <ele>298</ele>
        <time>2013-07-14T11:32:53Z</time>
      </trkpt>
      <trkpt lat="48.6847" lon="6.136">
        <ele>293</ele>
        <time>2013-07-14T11:32:55Z</time>
      </trkpt>
      <trkpt lat="48.68473" lon="6.13647">
        <ele>293</ele>
        <time>2013-07-14T11:32:57Z</time>
      </trkpt>
      <trkpt lat="48.68473" lon="6.13696">
        <ele>291</ele>
        <time>2013-07-14T11:32:59Z</time>
      </trkpt>
      <trkpt lat="48.68467" lon="6.13743">
        <ele>288</ele>
        <time>2013-07-14T11:33:01Z</time>
      </trkpt>
      <trkpt lat="48.68455" lon="6.13787">
        <ele>287</ele>
        <time>2013-07-14T11:33:03Z</time>
      </trkpt>
      <trkpt lat="48.68438" lon="6.13827">
        <ele>284</ele>
        <time>2013-07-14T11:33:05Z</time>
      </trkpt>
      <trkpt lat="48.68417" lon="6.1386">
        <ele>284</ele>
        <time>2013-07-14T11:33:07Z</time>
      </trkpt>
      <trkpt lat="48.68395" lon="6.13887">
        <ele>283</ele>
        <time>2013-07-14T11:33:09Z</time>
      </trkpt>
      <trkpt lat="48.68374" lon="6.13911">
        <ele>282</ele>
        <time>2013-07-14T11:33:11Z</time>
      </trkpt>
      <trkpt lat="48.6836" lon="6.13922">
        <ele>280</ele>
        <time>2013-07-14T11:33:13Z</time>
      </trkpt>
      <trkpt lat="48.68345" lon="6.13923">
        <ele>280</ele>
        <time>2013-07-14T11:33:15Z</time>
      </trkpt>
      <trkpt lat="48.68332" lon="6.13918">
        <ele>277</ele>
        <time>2013-07-14T11:33:17Z</time>
      </trkpt>
      <trkpt lat="48.68323" lon="6.1392">
        <ele>278</ele>
        <time>2013-07-14T11:33:19Z</time>
      </trkpt>
      <trkpt lat="48.68313" lon="6.13927">
        <ele>277</ele>
        <time>2013-07-14T11:33:21Z</time>
      </trkpt>
      <trkpt lat="48.68301" lon="6.13937">
        <ele>276</ele>
        <time>2013-07-14T11:33:23Z</time>
      </trkpt>
      <trkpt lat="48.68286" lon="6.1395">
        <ele>276</ele>
        <time>2013-07-14T11:33:25Z</time>
      </trkpt>
      <trkpt lat="48.68268" lon="6.13964">
        <ele>274</ele>
        <time>2013-07-14T11:33:27Z</time>
      </trkpt>
      <trkpt lat="48.6825" lon="6.13979">
        <ele>271</ele>
        <time>2013-07-14T11:33:29Z</time>
      </trkpt>
      <trkpt lat="48.68229" lon="6.13995">
        <ele>268</ele>
        <time>2013-07-14T11:33:31Z</time>
      </trkpt>
      <trkpt lat="48.68208" lon="6.14012">
        <ele>265</ele>
        <time>2013-07-14T11:33:33Z</time>
      </trkpt>
      <trkpt lat="48.68188" lon="6.14028">
        <ele>263</ele>
        <time>2013-07-14T11:33:35Z</time>
      </trkpt>
      <trkpt lat="48.68168" lon="6.14045">
        <ele>262</ele>
        <time>2013-07-14T11:33:37Z</time>
      </trkpt>
      <trkpt lat="48.68146" lon="6.14062">
        <ele>261</ele>
        <time>2013-07-14T11:33:39Z</time>
      </trkpt>
      <trkpt lat="48.68124" lon="6.14079">
        <ele>260</ele>
        <time>2013-07-14T11:33:41Z</time>
      </trkpt>
      <trkpt lat="48.68103" lon="6.14093">
        <ele>259</ele>
        <time>2013-07-14T11:33:43Z</time>
      </trkpt>
      <trkpt lat="48.68078" lon="6.14107">
        <ele>260</ele>
        <time>2013-07-14T11:33:45Z</time>
      </trkpt>
      <trkpt lat="48.68054" lon="6.14121">
        <ele>259</ele>
        <time>2013-07-14T11:33:47Z</time>
      </trkpt>
      <trkpt lat="48.6803" lon="6.1413">
        <ele>256</ele>
        <time>2013-07-14T11:33:49Z</time>
      </trkpt>
      <trkpt lat="48.68007" lon="6.1414">
        <ele>254</ele>
        <time>2013-07-14T11:33:51Z</time>
      </trkpt>
      <trkpt lat="48.67984" lon="6.1415">
        <ele>257</ele>
        <time>2013-07-14T11:33:53Z</time>
      </trkpt>
      <trkpt lat="48.67962" lon="6.14156">
        <ele>253</ele>
        <time>2013-07-14T11:33:55Z</time>
      </trkpt>
      <trkpt lat="48.67945" lon="6.14149">
        <ele>250</ele>
        <time>2013-07-14T11:33:57Z</time>
      </trkpt>
      <trkpt lat="48.67927" lon="6.1414">
        <ele>252</ele>
        <time>2013-07-14T11:33:59Z</time>
      </trkpt>
      <trkpt lat="48.67909" lon="6.1414">
        <ele>250</ele>
        <time>2013-07-14T11:34:01Z</time>
      </trkpt>
      <trkpt lat="48.67896" lon="6.14156">
        <ele>250</ele>
        <time>2013-07-14T11:34:03Z</time>
      </trkpt>
      <trkpt lat="48.67891" lon="6.14177">
        <ele>250</ele>
        <time>2013-07-14T11:34:05Z</time>
      </trkpt>
      <trkpt lat="48.67894" lon="6.14199">
        <ele>247</ele>
        <time>2013-07-14T11:34:07Z</time>
      </trkpt>
      <trkpt lat="48.67901" lon="6.14214">
        <ele>246</ele>
        <time>2013-07-14T11:34:09Z</time>
      </trkpt>
      <trkpt lat="48.67905" lon="6.14221">
        <ele>245</ele>
        <time>2013-07-14T11:34:11Z</time>
      </trkpt>
      <trkpt lat="48.67907" lon="6.14223">
        <ele>248</ele>
        <time>2013-07-14T11:34:13Z</time>
      </trkpt>
      <trkpt lat="48.67909" lon="6.14223">
        <ele>249</ele>
        <time>2013-07-14T11:34:15Z</time>
      </trkpt>
      <trkpt lat="48.67911" lon="6.14222">
        <ele>249</ele>
        <time>2013-07-14T11:34:17Z</time>
      </trkpt>
      <trkpt lat="48.67915" lon="6.14225">
        <ele>245</ele>
        <time>2013-07-14T11:34:19Z</time>
      </trkpt>
      <trkpt lat="48.67916" lon="6.14232">
        <ele>244</ele>
        <time>2013-07-14T11:34:21Z</time>
      </trkpt>
      <trkpt lat="48.67916" lon="6.14238">
        <ele>244</ele>
        <time>2013-07-14T11:34:23Z</time>
      </trkpt>
      <trkpt lat="48.67917" lon="6.14244">
        <ele>244</ele>
        <time>2013-07-14T11:34:25Z</time>
      </trkpt>
      <trkpt lat="48.6792" lon="6.1425">
        <ele>247</ele>
        <time>2013-07-14T11:34:27Z</time>
      </trkpt>
      <trkpt lat="48.67923" lon="6.14258">
        <ele>247</ele>
        <time>2013-07-14T11:34:29Z</time>
      </trkpt>
      <trkpt lat="48.67928" lon="6.14263">
        <ele>246</ele>
        <time>2013-07-14T11:34:31Z</time>
      </trkpt>
      <trkpt lat="48.67935" lon="6.1427">
        <ele>245</ele>
        <time>2013-07-14T11:34:33Z</time>
      </trkpt>
      <trkpt lat="48.6794" lon="6.14277">
        <ele>248</ele>
        <time>2013-07-14T11:34:35Z</time>
      </trkpt>
      <trkpt lat="48.67946" lon="6.1429">
        <ele>249</ele>
        <time>2013-07-14T11:34:37Z</time>
      </trkpt>
      <trkpt lat="48.67953" lon="6.14305">
        <ele>248</ele>
        <time>2013-07-14T11:34:39Z</time>
      </trkpt>
      <trkpt lat="48.67961" lon="6.14321">
        <ele>247</ele>
        <time>2013-07-14T11:34:41Z</time>
      </trkpt>
      <trkpt lat="48.67971" lon="6.14338">
        <ele>246</ele>
        <time>2013-07-14T11:34:43Z</time>
      </trkpt>
      <trkpt lat="48.67981" lon="6.14356">
        <ele>245</ele>
        <time>2013-07-14T11:34:45Z</time>
      </trkpt>
      <trkpt lat="48.67991" lon="6.14375">
        <ele>245</ele>
        <time>2013-07-14T11:34:47Z</time>
      </trkpt>
      <trkpt lat="48.68002" lon="6.14395">
        <ele>244</ele>
        <time>2013-07-14T11:34:49Z</time>
      </trkpt>
      <trkpt lat="48.68013" lon="6.14416">
        <ele>239</ele>
        <time>2013-07-14T11:34:51Z</time>
      </trkpt>
      <trkpt lat="48.68023" lon="6.14436">
        <ele>239</ele>
        <time>2013-07-14T11:34:53Z</time>
      </trkpt>
      <trkpt lat="48.68034" lon="6.14456">
        <ele>238</ele>
        <time>2013-07-14T11:34:55Z</time>
      </trkpt>
      <trkpt lat="48.68045" lon="6.14475">
        <ele>241</ele>
        <time>2013-07-14T11:34:57Z</time>
      </trkpt>
      <trkpt lat="48.68055" lon="6.14493">
        <ele>243</ele>
        <time>2013-07-14T11:34:59Z</time>
      </trkpt>
      <trkpt lat="48.68066" lon="6.14511">
        <ele>245</ele>
        <time>2013-07-14T11:35:01Z</time>
      </trkpt>
      <trkpt lat="48.68076" lon="6.1453">
        <ele>246</ele>
        <time>2013-07-14T11:35:03Z</time>
      </trkpt>
      <trkpt lat="48.68085" lon="6.1455">
        <ele>246</ele>
        <time>2013-07-14T11:35:05Z</time>
      </trkpt>
      <trkpt lat="48.68095" lon="6.1457">
        <ele>246</ele>
        <time>2013-07-14T11:35:07Z</time>
      </trkpt>
      <trkpt lat="48.68105" lon="6.1459">
        <ele>242</ele>
        <time>2013-07-14T11:35:09Z</time>
      </trkpt>
      <trkpt lat="48.68116" lon="6.14609">
        <ele>243</ele>
        <time>2013-07-14T11:35:11Z</time>
      </trkpt>
      <trkpt lat="48.68124" lon="6.14625">
        <ele>245</ele>
        <time>2013-07-14T11:35:13Z</time>
      </trkpt>
      <trkpt lat="48.68132" lon="6.14641">
        <ele>245</ele>
        <time>2013-07-14T11:35:15Z</time>
      </trkpt>
      <trkpt lat="48.68141" lon="6.14659">
        <ele>247</ele>
        <time>2013-07-14T11:35:17Z</time>
      </trkpt>
      <trkpt lat="48.68149" lon="6.14675">
        <ele>248</ele>
        <time>2013-07-14T11:35:19Z</time>
      </trkpt>
      <trkpt lat="48.68157" lon="6.14692">
        <ele>246</ele>
        <time>2013-07-14T11:35:21Z</time>
      </trkpt>
      <trkpt lat="48.68164" lon="6.14708">
        <ele>242</ele>
        <time>2013-07-14T11:35:23Z</time>
      </trkpt>
      <trkpt lat="48.68171" lon="6.14724">
        <ele>240</ele>
        <time>2013-07-14T11:35:25Z</time>
      </trkpt>
      <trkpt lat="48.6818" lon="6.14742">
        <ele>241</ele>
        <time>2013-07-14T11:35:27Z</time>
      </trkpt>
      <trkpt lat="48.68189" lon="6.14759">
        <ele>241</ele>
        <time>2013-07-14T11:35:29Z</time>
      </trkpt>
      <trkpt lat="48.68199" lon="6.14778">
        <ele>241</ele>
        <time>2013-07-14T11:35:31Z</time>
      </trkpt>
      <trkpt lat="48.68209" lon="6.14797">
        <ele>239</ele>
        <time>2013-07-14T11:35:33Z</time>
      </trkpt>
      <trkpt lat="48.68221" lon="6.14815">
        <ele>238</ele>
        <time>2013-07-14T11:35:35Z</time>
      </trkpt>
      <trkpt lat="48.68233" lon="6.14832">
        <ele>238</ele>
        <time>2013-07-14T11:35:37Z</time>
      </trkpt>
      <trkpt lat="48.68245" lon="6.1485">
        <ele>238</ele>
        <time>2013-07-14T11:35:39Z</time>
      </trkpt>
      <trkpt lat="48.68257" lon="6.14868">
        <ele>240</ele>
        <time>2013-07-14T11:35:41Z</time>
      </trkpt>
      <trkpt lat="48.68271" lon="6.14887">
        <ele>242</ele>
        <time>2013-07-14T11:35:43Z</time>
      </trkpt>
      <trkpt lat="48.68284" lon="6.14907">
        <ele>242</ele>
        <time>2013-07-14T11:35:45Z</time>
      </trkpt>
      <trkpt lat="48.68298" lon="6.14929">
        <ele>241</ele>
        <time>2013-07-14T11:35:47Z</time>
      </trkpt>
      <trkpt lat="48.68311" lon="6.14949">
        <ele>240</ele>
        <time>2013-07-14T11:35:49Z</time>
      </trkpt>
      <trkpt lat="48.68324" lon="6.14969">
        <ele>237</ele>
        <time>2013-07-14T11:35:51Z</time>
      </trkpt>
      <trkpt lat="48.68337" lon="6.14988">
        <ele>236</ele>
        <time>2013-07-14T11:35:53Z</time>
      </trkpt>
      <trkpt lat="48.6835" lon="6.15006">
        <ele>235</ele>
        <time>2013-07-14T11:35:55Z</time>
      </trkpt>
      <trkpt lat="48.6836" lon="6.15027">
        <ele>234</ele>
        <time>2013-07-14T11:35:57Z</time>
      </trkpt>
      <trkpt lat="48.68369" lon="6.15049">
        <ele>230</ele>
        <time>2013-07-14T11:35:59Z</time>
      </trkpt>
      <trkpt lat="48.68378" lon="6.1507">
        <ele>225</ele>
        <time>2013-07-14T11:36:01Z</time>
      </trkpt>
      <trkpt lat="48.68383" lon="6.15085">
        <ele>226</ele>
        <time>2013-07-14T11:36:03Z</time>
      </trkpt>
      <trkpt lat="48.68388" lon="6.15098">
        <ele>227</ele>
        <time>2013-07-14T11:36:05Z</time>
      </trkpt>
      <trkpt lat="48.68396" lon="6.15112">
        <ele>228</ele>
        <time>2013-07-14T11:36:07Z</time>
      </trkpt>
      <trkpt lat="48.68401" lon="6.15129">
        <ele>228</ele>
        <time>2013-07-14T11:36:09Z</time>
      </trkpt>
      <trkpt lat="48.68406" lon="6.15148">
        <ele>228</ele>
        <time>2013-07-14T11:36:11Z</time>
      </trkpt>
      <trkpt lat="48.68411" lon="6.15167">
        <ele>227</ele>
        <time>2013-07-14T11:36:13Z</time>
      </trkpt>
      <trkpt lat="48.68417" lon="6.15185">
        <ele>229</ele>
        <time>2013-07-14T11:36:15Z</time>
      </trkpt>
      <trkpt lat="48.68422" lon="6.15203">
        <ele>230</ele>
        <time>2013-07-14T11:36:17Z</time>
      </trkpt>
      <trkpt lat="48.68427" lon="6.15222">
        <ele>232</ele>
        <time>2013-07-14T11:36:19Z</time>
      </trkpt>
      <trkpt lat="48.6843" lon="6.15242">
        <ele>231</ele>
        <time>2013-07-14T11:36:21Z</time>
      </trkpt>
      <trkpt lat="48.68435" lon="6.15261">
        <ele>232</ele>
        <time>2013-07-14T11:36:23Z</time>
      </trkpt>
      <trkpt lat="48.6844" lon="6.1528">
        <ele>232</ele>
        <time>2013-07-14T11:36:25Z</time>
      </trkpt>
      <trkpt lat="48.68444" lon="6.15299">
        <ele>230</ele>
        <time>2013-07-14T11:36:27Z</time>
      </trkpt>
      <trkpt lat="48.68448" lon="6.15318">
        <ele>230</ele>
        <time>2013-07-14T11:36:29Z</time>
      </trkpt>
      <trkpt lat="48.68451" lon="6.15335">
        <ele>230</ele>
        <time>2013-07-14T11:36:31Z</time>
      </trkpt>
      <trkpt lat="48.68449" lon="6.15351">
        <ele>230</ele>
        <time>2013-07-14T11:36:33Z</time>
      </trkpt>
      <trkpt lat="48.68452" lon="6.15368">
        <ele>228</ele>
        <time>2013-07-14T11:36:35Z</time>
      </trkpt>
      <trkpt lat="48.68454" lon="6.15384">
        <ele>230</ele>
        <time>2013-07-14T11:36:37Z</time>
      </trkpt>
      <trkpt lat="48.68457" lon="6.15397">
        <ele>230</ele>
        <time>2013-07-14T11:36:39Z</time>
      </trkpt>
      <trkpt lat="48.6846" lon="6.15411">
        <ele>232</ele>
        <time>2013-07-14T11:36:41Z</time>
      </trkpt>
      <trkpt lat="48.68462" lon="6.15423">
        <ele>232</ele>
        <time>2013-07-14T11:36:43Z</time>
      </trkpt>
      <trkpt lat="48.68465" lon="6.15435">
        <ele>238</ele>
        <time>2013-07-14T11:36:45Z</time>
      </trkpt>
      <trkpt lat="48.68469" lon="6.15449">
        <ele>241</ele>
        <time>2013-07-14T11:36:47Z</time>
      </trkpt>
      <trkpt lat="48.68472" lon="6.15465">
        <ele>244</ele>
        <time>2013-07-14T11:36:49Z</time>
      </trkpt>
      <trkpt lat="48.68477" lon="6.15482">
        <ele>245</ele>
        <time>2013-07-14T11:36:51Z</time>
      </trkpt>
      <trkpt lat="48.6848" lon="6.15497">
        <ele>245</ele>
        <time>2013-07-14T11:36:53Z</time>
      </trkpt>
      <trkpt lat="48.68484" lon="6.15512">
        <ele>247</ele>
        <time>2013-07-14T11:36:55Z</time>
      </trkpt>
      <trkpt lat="48.68486" lon="6.15529">
        <ele>246</ele>
        <time>2013-07-14T11:36:57Z</time>
      </trkpt>
      <trkpt lat="48.68485" lon="6.15546">
        <ele>237</ele>
        <time>2013-07-14T11:36:59Z</time>
      </trkpt>
      <trkpt lat="48.68484" lon="6.15561">
        <ele>237</ele>
        <time>2013-07-14T11:37:01Z</time>
      </trkpt>
      <trkpt lat="48.68483" lon="6.15576">
        <ele>238</ele>
        <time>2013-07-14T11:37:03Z</time>
      </trkpt>
      <trkpt lat="48.68481" lon="6.15595">
        <ele>234</ele>
        <time>2013-07-14T11:37:05Z</time>
      </trkpt>
      <trkpt lat="48.68479" lon="6.15611">
        <ele>232</ele>
        <time>2013-07-14T11:37:07Z</time>
      </trkpt>
      <trkpt lat="48.68478" lon="6.15626">
        <ele>232</ele>
        <time>2013-07-14T11:37:09Z</time>
      </trkpt>
      <trkpt lat="48.68475" lon="6.15642">
        <ele>229</ele>
        <time>2013-07-14T11:37:11Z</time>
      </trkpt>
      <trkpt lat="48.68472" lon="6.15656">
        <ele>232</ele>
        <time>2013-07-14T11:37:13Z</time>
      </trkpt>
      <trkpt lat="48.68468" lon="6.15669">
        <ele>233</ele>
        <time>2013-07-14T11:37:15Z</time>
      </trkpt>
      <trkpt lat="48.68465" lon="6.15682">
        <ele>234</ele>
        <time>2013-07-14T11:37:17Z</time>
      </trkpt>
      <trkpt lat="48.68462" lon="6.15698">
        <ele>233</ele>
        <time>2013-07-14T11:37:19Z</time>
      </trkpt>
      <trkpt lat="48.68458" lon="6.15713">
        <ele>232</ele>
        <time>2013-07-14T11:37:21Z</time>
      </trkpt>
      <trkpt lat="48.68455" lon="6.1573">
        <ele>232</ele>
        <time>2013-07-14T11:37:23Z</time>
      </trkpt>
      <trkpt lat="48.68451" lon="6.15748">
        <ele>230</ele>
        <time>2013-07-14T11:37:25Z</time>
      </trkpt>
      <trkpt lat="48.68449" lon="6.15766">
        <ele>229</ele>
        <time>2013-07-14T11:37:27Z</time>
      </trkpt>
      <trkpt lat="48.68449" lon="6.15783">
        <ele>228</ele>
        <time>2013-07-14T11:37:29Z</time>
      </trkpt>
      <trkpt lat="48.68452" lon="6.15799">
        <ele>228</ele>
        <time>2013-07-14T11:37:31Z</time>
      </trkpt>
      <trkpt lat="48.68455" lon="6.15815">
        <ele>225</ele>
        <time>2013-07-14T11:37:33Z</time>
      </trkpt>
      <trkpt lat="48.68459" lon="6.15832">
        <ele>227</ele>
        <time>2013-07-14T11:37:35Z</time>
      </trkpt>
      <trkpt lat="48.68463" lon="6.15846">
        <ele>228</ele>
        <time>2013-07-14T11:37:37Z</time>
      </trkpt>
      <trkpt lat="48.68468" lon="6.1586">
        <ele>226</ele>
        <time>2013-07-14T11:37:39Z</time>
      </trkpt>
      <trkpt lat="48.68472" lon="6.15874">
        <ele>226</ele>
        <time>2013-07-14T11:37:41Z</time>
      </trkpt>
      <trkpt lat="48.68477" lon="6.15886">
        <ele>226</ele>
        <time>2013-07-14T11:37:43Z</time>
      </trkpt>
      <trkpt lat="48.68481" lon="6.15897">
        <ele>228</ele>
        <time>2013-07-14T11:37:45Z</time>
      </trkpt>
      <trkpt lat="48.68485" lon="6.15908">
        <ele>228</ele>
        <time>2013-07-14T11:37:47Z</time>
      </trkpt>
      <trkpt lat="48.68488" lon="6.15919">
        <ele>227</ele>
        <time>2013-07-14T11:37:49Z</time>
      </trkpt>
      <trkpt lat="48.68491" lon="6.1593">
        <ele>228</ele>
        <time>2013-07-14T11:37:51Z</time>
      </trkpt>
      <trkpt lat="48.68494" lon="6.15938">
        <ele>230</ele>
        <time>2013-07-14T11:37:53Z</time>
      </trkpt>
      <trkpt lat="48.68497" lon="6.15947">
        <ele>231</ele>
        <time>2013-07-14T11:37:55Z</time>
      </trkpt>
      <trkpt lat="48.685" lon="6.15955">
        <ele>235</ele>
        <time>2013-07-14T11:37:57Z</time>
      </trkpt>
      <trkpt lat="48.68503" lon="6.15963">
        <ele>235</ele>
        <time>2013-07-14T11:37:59Z</time>
      </trkpt>
      <trkpt lat="48.68507" lon="6.15972">
        <ele>233</ele>
        <time>2013-07-14T11:38:01Z</time>
      </trkpt>
      <trkpt lat="48.68511" lon="6.1598">
        <ele>234</ele>
        <time>2013-07-14T11:38:03Z</time>
      </trkpt>
      <trkpt lat="48.68517" lon="6.15985">
        <ele>227</ele>
        <time>2013-07-14T11:38:05Z</time>
      </trkpt>
      <trkpt lat="48.68523" lon="6.15985">
        <ele>224</ele>
        <time>2013-07-14T11:38:07Z</time>
      </trkpt>
      <trkpt lat="48.6853" lon="6.15982">
        <ele>227</ele>
        <time>2013-07-14T11:38:09Z</time>
      </trkpt>
      <trkpt lat="48.68535" lon="6.1598">
        <ele>227</ele>
        <time>2013-07-14T11:38:11Z</time>
      </trkpt>
      <trkpt lat="48.68538" lon="6.15976">
        <ele>224</ele>
        <time>2013-07-14T11:38:13Z</time>
      </trkpt>
      <trkpt lat="48.68545" lon="6.15971">
        <ele>228</ele>
        <time>2013-07-14T11:38:17Z</time>
      </trkpt>
      <trkpt lat="48.68552" lon="6.15967">
        <ele>231</ele>
        <time>2013-07-14T11:38:21Z</time>
      </trkpt>
    </trkseg>
  </trk>
</gpx>